[[{"header":{"parameterUnit":"m.s-1","parameterCategory":1,"la1":30.6,"la2":28.766,"lo1":-90.7593,"lo2":-88.6598,"dy":0.0162,"dx":0.0183,"nx":116,"ny":114,"refTime":"2023-03-15T00:00:00:Z","depth":0,"parameterNumber":2,"parameterNumberName":"U-component_of_WINDS"},"data":[0.0,0.0,0.0,0.0,0.0,0.0,0.0,0.0,0.0,0.0,0.0,0.0,0.0,0.0,0.0,0.0,0.0,0.0,0.0,0.0,0.0,0.0,0.0,0.0,0.0,0.0,0.0,0.0,0.0,0.0,0.0,0.0,0.0,0.0,0.0,0.0,0.0,0.0,0.0,0.0,0.0,0.0,0.0,0.0,0.0,0.0,0.0,0.0,0.0,0.0,0.0,0.0,0.0,0.0,0.0,0.0,0.0,0.0,0.0,0.0,0.0,0.0,0.0,0.0,0.0,0.0,0.0,0.0,0.0,0.0,0.0,0.0,0.0,0.0,0.0,0.0,0.0,0.0,0.0,0.0,0.0,0.0,0.0,0.0,0.0,0.0,0.0,0.0,0.0,0.0,0.0,0.0,0.0,0.0,0.0,0.0,0.0,0.0,0.0,0.0,0.0,0.0,0.0,0.0,0.0,0.0,0.0,0.0,0.0,0.0,0.0,0.0,0.0,0.0,0.0,0.0,0.0,0.0,0.0,0.0,0.0,0.0,0.0,0.0,0.0,0.0,0.0,0.0,0.0,0.0,0.0,0.0,0.0,0.0,0.0,0.0,0.0,0.0,0.0,0.0,0.0,0.0,0.0,0.0,0.0,0.0,0.0,0.0,0.0,0.0,0.0,0.0,0.0,0.0,0.0,0.0,0.0,0.0,0.0,0.0,0.0,0.0,0.0,0.0,0.0,0.0,0.0,0.0,0.0,0.0,0.0,0.0,0.0,0.0,0.0,0.0,0.0,0.0,0.0,0.0,0.0,0.0,0.0,0.0,0.0,0.0,0.0,0.0,0.0,0.0,0.0,0.0,0.0,0.0,0.0,0.0,0.0,0.0,0.0,0.0,0.0,0.0,0.0,0.0,0.0,0.0,0.0,0.0,0.0,0.0,0.0,0.0,0.0,0.0,0.0,0.0,0.0,0.0,0.0,0.0,0.0,0.0,0.0,0.0,0.0,0.0,0.0,0.0,0.0,0.0,0.0,0.0,0.0,0.0,0.0,0.0,0.0,0.0,0.0,0.0,0.0,0.0,0.0,0.0,0.0,0.0,0.0,0.0,0.0,0.0,0.0,0.0,0.0,0.0,0.0,0.0,0.0,0.0,0.0,0.0,0.0,0.0,0.0,0.0,0.0,0.0,0.0,0.0,0.0,0.0,0.0,0.0,0.0,0.0,0.0,0.0,0.0,0.0,0.0,0.0,0.0,0.0,0.0,0.0,0.0,0.0,0.0,0.0,0.0,0.0,0.0,0.0,0.0,0.0,0.0,0.0,0.0,0.0,0.0,0.0,0.0,0.0,0.0,0.0,0.0,0.0,0.0,0.0,0.0,0.0,0.0,0.0,0.0,0.0,0.0,0.0,0.0,0.0,0.0,0.0,0.0,0.0,0.0,0.0,0.0,0.0,0.0,0.0,0.0,0.0,0.0,0.0,0.0,0.0,0.0,0.0,0.0,0.0,0.0,0.0,0.0,0.0,0.0,0.0,0.0,0.0,0.0,0.0,0.0,0.0,0.0,0.0,0.0,0.0,0.0,0.0,0.0,0.0,0.0,0.0,0.0,0.0,0.0,0.0,0.0,0.0,0.0,0.0,0.0,0.0,0.0,0.0,0.0,0.0,0.0,0.0,0.0,0.0,0.0,0.0,0.0,0.0,0.0,0.0,0.0,0.0,0.0,0.0,0.0,0.0,0.0,0.0,0.0,0.0,0.0,0.0,0.0,0.0,0.0,0.0,0.0,0.0,0.0,0.0,0.0,0.0,0.0,0.0,0.0,0.0,0.0,0.0,0.0,0.0,0.0,0.0,0.0,0.0,0.0,0.0,0.0,0.0,0.0,0.0,0.0,0.0,0.0,0.0,0.0,0.0,0.0,0.0,0.0,0.0,0.0,0.0,0.0,0.0,0.0,0.0,0.0,0.0,0.0,0.0,0.0,0.0,0.0,0.0,0.0,0.0,0.0,0.0,0.0,0.0,0.0,0.0,0.0,0.0,0.0,0.0,0.0,0.0,0.0,0.0,0.0,0.0,0.0,0.0,0.0,0.0,0.0,0.0,0.0,0.0,0.0,0.0,0.0,0.0,0.0,0.0,0.0,0.0,0.0,0.0,0.0,0.0,0.0,0.0,0.0,0.0,0.0,0.0,0.0,0.0,0.0,0.0,0.0,0.0,0.0,0.0,0.0,0.0,0.0,0.0,0.0,0.0,0.0,0.0,0.0,0.0,0.0,0.0,0.0,0.0,0.0,0.0,0.0,0.0,0.0,0.0,0.0,0.0,0.0,0.0,0.0,0.0,0.0,0.0,0.0,0.0,0.0,0.0,0.0,0.0,0.0,0.0,0.0,0.0,0.0,0.0,0.0,0.0,0.0,0.0,0.0,0.0,0.0,0.0,0.0,0.0,0.0,0.0,0.0,0.0,0.0,0.0,0.0,0.0,0.0,0.0,0.0,0.0,0.0,0.0,0.0,0.0,0.0,0.0,0.0,0.0,0.0,0.0,0.0,0.0,0.0,0.0,0.0,0.0,0.0,0.0,0.0,0.0,0.0,0.0,0.0,0.0,0.0,0.0,0.0,0.0,0.0,0.0,0.0,0.0,0.0,0.0,0.0,0.0,0.0,0.0,0.0,0.0,0.0,0.0,0.0,0.0,0.0,0.0,0.0,0.0,0.0,0.0,0.0,0.0,0.0,0.0,0.0,0.0,0.0,0.0,0.0,0.0,0.0,0.0,0.0,0.0,0.0,0.0,0.0,0.0,0.0,0.0,0.0,0.0,0.0,0.0,0.0,0.0,0.0,0.0,0.0,0.0,0.0,0.0,0.0,0.0,0.0,0.0,0.0,0.0,0.0,0.0,0.0,0.0,0.0,0.0,0.0,0.0,0.0,0.0,0.0,0.0,0.0,0.0,0.0,0.0,0.0,0.0,0.0,0.0,0.0,0.0,0.0,0.0,0.0,0.0,0.0,0.0,0.0,0.0,0.0,0.0,0.0,0.0,0.0,0.0,0.0,0.0,0.0,0.0,0.0,0.0,0.0,0.0,0.0,0.0,0.0,0.0,0.0,0.0,0.0,0.0,0.0,0.0,0.0,0.0,0.0,0.0,0.0,0.0,0.0,0.0,0.0,0.0,0.0,0.0,0.0,0.0,0.0,0.0,0.0,0.0,0.0,0.0,0.0,0.0,0.0,0.0,0.0,0.0,0.0,0.0,0.0,0.0,0.0,0.0,0.0,0.0,0.0,0.0,0.0,0.0,0.0,0.0,0.0,0.0,0.0,0.0,0.0,0.0,0.0,0.0,0.0,0.0,0.0,0.0,0.0,0.0,0.0,0.0,0.0,0.0,0.0,0.0,0.0,0.0,0.0,0.0,0.0,0.0,0.0,0.0,0.0,0.0,0.0,0.0,0.0,0.0,0.0,0.0,0.0,0.0,0.0,0.0,0.0,0.0,0.0,0.0,0.0,0.0,0.0,0.0,0.0,0.0,0.0,0.0,0.0,0.0,0.0,0.0,0.0,0.0,0.0,0.0,0.0,0.0,0.0,0.0,0.0,0.0,0.0,0.0,0.0,0.0,0.0,0.0,0.0,0.0,0.0,0.0,0.0,0.0,0.0,0.0,0.0,0.0,0.0,0.0,0.0,0.0,0.0,0.0,0.0,0.0,0.0,0.0,0.0,0.0,0.0,0.0,0.0,0.0,0.0,0.0,0.0,0.0,0.0,0.0,0.0,0.0,0.0,0.0,0.0,0.0,0.0,0.0,0.0,0.0,0.0,0.0,0.0,0.0,0.0,0.0,0.0,0.0,0.0,0.0,0.0,0.0,0.0,0.0,0.0,0.0,0.0,0.0,0.0,0.0,0.0,0.0,0.0,0.0,0.0,0.0,0.0,0.0,0.0,0.0,0.0,0.0,0.0,0.0,0.0,0.0,0.0,0.0,0.0,0.0,0.0,0.0,0.0,0.0,0.0,0.0,0.0,0.0,0.0,0.0,0.0,0.0,0.0,0.0,0.0,0.0,0.0,0.0,0.0,0.0,0.0,0.0,0.0,0.0,0.0,0.0,0.0,0.0,0.0,0.0,0.0,0.0,0.0,0.0,0.0,0.0,0.0,0.0,0.0,0.0,0.0,0.0,0.0,0.0,0.0,0.0,0.0,0.0,0.0,0.0,0.0,0.0,0.0,0.0,0.0,0.0,0.0,0.0,0.0,0.0,0.0,0.0,0.0,0.0,0.0,0.0,0.0,0.0,0.0,0.0,0.0,0.0,0.0,0.0,0.0,0.0,0.0,0.0,0.0,0.0,0.0,0.0,0.0,0.0,0.0,0.0,0.0,0.0,0.0,0.0,0.0,0.0,0.0,0.0,0.0,0.0,0.0,0.0,0.0,0.0,0.0,0.0,0.0,0.0,0.0,0.0,0.0,0.0,0.0,0.0,0.0,0.0,0.0,0.0,0.0,0.0,0.0,0.0,0.0,0.0,0.0,0.0,0.0,0.0,0.0,0.0,0.0,0.0,0.0,0.0,0.0,0.0,0.0,0.0,0.0,0.0,0.0,0.0,0.0,0.0,0.0,0.0,0.0,0.0,0.0,0.0,0.0,0.0,0.0,0.0,0.0,0.0,0.0,0.0,0.0,0.0,0.0,0.0,0.0,0.0,0.0,0.0,0.0,0.0,0.0,0.0,0.0,0.0,0.0,0.0,0.0,0.0,0.0,0.0,0.0,0.0,0.0,0.0,0.0,0.0,0.0,0.0,0.0,0.0,0.0,0.0,0.0,0.0,0.0,0.0,0.0,0.0,0.0,0.0,0.0,0.0,0.0,0.0,0.0,0.0,0.0,0.0,0.0,0.0,0.0,0.0,0.0,0.0,0.0,0.0,0.0,0.0,0.0,0.0,0.0,0.0,0.0,0.0,0.0,0.0,0.0,0.0,0.0,0.0,0.0,0.0,0.0,0.0,0.0,0.0,0.0,0.0,0.0,0.0,0.0,0.0,0.0,0.0,0.0,0.0,0.0,0.0,0.0,0.0,0.0,0.0,0.0,0.0,0.0,0.0,0.0,0.0,0.0,0.0,0.0,0.0,0.0,0.0,0.0,0.0,0.0,0.0,0.0,0.0,0.0,0.0,0.0,0.0,0.0,0.0,0.0,0.0,0.0,0.0,0.0,0.0,0.0,0.0,0.0,0.0,0.0,0.0,0.0,0.0,0.0,0.0,0.0,0.0,0.0,0.0,0.0,0.0,0.0,0.0,0.0,0.0,0.0,0.0,0.0,0.0,0.0,0.0,0.0,0.0,0.0,0.0,0.0,0.0,0.0,0.0,0.0,0.0,0.0,0.0,0.0,0.0,0.0,0.0,0.0,0.0,0.0,0.0,0.0,0.0,0.0,0.0,0.0,0.0,0.0,0.0,0.0,0.0,0.0,0.0,0.0,0.0,0.0,0.0,0.0,0.0,0.0,0.0,0.0,0.0,0.0,0.0,0.0,0.0,0.0,0.0,0.0,0.0,0.0,0.0,0.0,0.0,0.0,0.0,0.0,0.0,0.0,0.0,0.0,0.0,0.0,0.0,0.0,0.0,0.0,0.0,0.0,0.0,0.0,0.0,0.0,0.0,0.0,0.0,0.0,0.0,0.0,0.0,0.0,0.0,0.0,0.0,0.0,0.0,0.0,0.0,0.0,0.0,0.0,0.0,0.0,0.0,0.0,0.0,0.0,0.0,0.0,0.0,0.0,0.0,0.0,0.0,0.0,0.0,0.0,0.0,0.0,0.0,0.0,0.0,0.0,0.0,0.0,0.0,0.0,0.0,0.0,0.0,0.0,0.0,0.0,0.0,0.0,0.0,0.0,0.0,0.0,0.0,0.0,0.0,0.0,0.0,0.0,0.0,0.0,0.0,0.0,0.0,0.0,0.0,0.0,0.0,0.0,0.0,0.0,0.0,0.0,0.0,0.0,0.0,0.0,0.0,0.0,0.0,0.0,0.0,0.0,0.0,0.0,0.0,0.0,0.0,0.0,0.0,0.0,0.0,0.0,0.0,0.0,0.0,0.0,0.0,0.0,0.0,0.0,0.0,0.0,0.0,-1.6596,0.0,0.0,0.0,0.0,0.0,0.0,0.0,0.0,0.0,0.0,0.0,0.0,0.0,0.0,0.0,0.0,0.0,0.0,0.0,0.0,0.0,0.0,0.0,0.0,0.0,0.0,0.0,0.0,0.0,0.0,0.0,0.0,0.0,0.0,0.0,0.0,0.0,0.0,0.0,-2.8905,-2.9171,-2.9445,-2.687,-2.3014,-1.8186,0.0,0.0,0.0,0.0,0.0,0.0,0.0,0.0,0.0,0.0,0.0,0.0,0.0,0.0,0.0,0.0,0.0,0.0,0.0,0.0,0.0,0.0,0.0,0.0,0.0,0.0,0.0,0.0,0.0,0.0,0.0,0.0,0.0,0.0,0.0,0.0,0.0,0.0,0.0,0.0,0.0,0.0,0.0,0.0,0.0,0.0,0.0,0.0,0.0,0.0,0.0,0.0,0.0,0.0,0.0,0.0,0.0,0.0,0.0,0.0,0.0,0.0,0.0,0.0,0.0,0.0,0.0,0.0,0.0,0.0,0.0,-1.9207,0.0,0.0,0.0,0.0,0.0,0.0,0.0,0.0,0.0,0.0,0.0,0.0,0.0,0.0,0.0,0.0,0.0,0.0,0.0,0.0,0.0,0.0,0.0,0.0,-2.0689,-2.0912,-2.0828,0.0,0.0,0.0,0.0,0.0,0.0,0.0,0.0,-2.9686,-3.1105,-3.2583,-3.2795,-3.3656,-3.5124,-3.4473,-3.0467,-2.3755,-2.2072,0.0,0.0,0.0,0.0,0.0,0.0,0.0,0.0,0.0,0.0,0.0,0.0,0.0,0.0,0.0,0.0,0.0,0.0,0.0,0.0,0.0,0.0,0.0,0.0,0.0,0.0,0.0,0.0,0.0,0.0,0.0,0.0,0.0,0.0,0.0,0.0,0.0,0.0,0.0,0.0,0.0,0.0,0.0,0.0,0.0,0.0,0.0,0.0,0.0,0.0,0.0,0.0,0.0,0.0,0.0,0.0,0.0,0.0,0.0,0.0,0.0,0.0,0.0,0.0,0.0,-4.1171,-4.0857,-4.1,-4.1055,-3.2591,-2.677,-2.328,0.0,0.0,0.0,0.0,0.0,0.0,0.0,0.0,0.0,0.0,0.0,0.0,0.0,0.0,0.0,0.0,0.0,0.0,0.0,0.0,0.0,0.0,-2.2604,-2.3045,-2.4096,-2.3658,-2.381,0.0,0.0,0.0,0.0,0.0,0.0,-3.1891,-3.3172,-3.46,-3.6114,-3.7393,-3.8823,-4.0393,-4.0254,-3.932,-3.7494,-2.9371,-2.547,-2.4694,0.0,0.0,0.0,0.0,0.0,0.0,0.0,0.0,0.0,0.0,0.0,0.0,0.0,0.0,0.0,0.0,0.0,0.0,0.0,0.0,0.0,0.0,0.0,0.0,0.0,0.0,0.0,0.0,0.0,0.0,0.0,0.0,0.0,0.0,0.0,0.0,0.0,0.0,0.0,0.0,0.0,-2.5432,-2.6527,0.0,0.0,0.0,0.0,0.0,0.0,0.0,0.0,0.0,0.0,0.0,0.0,0.0,0.0,-4.0918,-4.3526,-4.4567,-4.4091,-4.6513,-4.7317,-4.6657,-4.7195,-4.753,-4.7594,-4.569,0.0,-3.1902,-2.9289,0.0,0.0,0.0,0.0,0.0,0.0,0.0,0.0,0.0,0.0,0.0,0.0,0.0,0.0,0.0,0.0,0.0,0.0,0.0,0.0,0.0,-2.625,-2.6909,-2.7465,-2.8586,-2.8845,-2.7919,0.0,0.0,0.0,0.0,-3.2485,-3.4242,-3.5296,-3.6965,-3.9276,-4.2455,-4.417,-4.4447,-4.4855,-4.4634,-4.3762,-3.852,-3.4057,-3.0174,-2.6652,0.0,0.0,0.0,0.0,0.0,0.0,0.0,0.0,0.0,0.0,0.0,0.0,0.0,0.0,0.0,0.0,0.0,0.0,0.0,0.0,0.0,0.0,0.0,0.0,0.0,0.0,0.0,0.0,0.0,0.0,0.0,0.0,0.0,0.0,0.0,0.0,0.0,0.0,0.0,-3.0319,-3.1314,-2.995,-3.0349,-3.0207,0.0,0.0,0.0,0.0,0.0,0.0,0.0,0.0,0.0,-4.317,-4.5005,-4.6202,-4.677,-4.9434,-5.078,-5.087,-5.2474,-5.3307,-5.3541,-5.3837,-5.4252,-5.4603,-5.4311,-5.0608,-4.4403,-3.9213,-3.5407,-3.2726,0.0,0.0,0.0,0.0,0.0,-3.2155,0.0,0.0,0.0,0.0,0.0,0.0,0.0,0.0,0.0,0.0,0.0,0.0,-2.8963,-3.0161,-3.1119,-3.1808,-3.3155,-3.3245,-3.1478,-3.2078,0.0,0.0,-3.3079,-3.4374,-3.6422,-3.7787,-4.002,-4.32,-4.6921,-4.8781,-4.8815,-4.956,-4.9579,-4.8927,-4.7223,-4.2808,-3.6405,-3.2673,-2.8867,-2.5127,0.0,0.0,0.0,0.0,0.0,0.0,0.0,0.0,0.0,0.0,0.0,0.0,0.0,0.0,0.0,0.0,0.0,0.0,0.0,0.0,0.0,0.0,0.0,0.0,0.0,0.0,0.0,0.0,0.0,0.0,0.0,0.0,0.0,0.0,0.0,0.0,0.0,-3.5013,-3.5776,-3.291,-3.4784,-3.5353,0.0,0.0,0.0,0.0,0.0,0.0,-4.3479,-4.4556,-4.613,-4.8506,-5.0661,-5.187,-5.2199,-5.4551,-5.5957,-5.6466,-5.7124,-5.8022,-5.9129,-5.9129,-5.9488,-6.0116,-5.9937,-5.8189,-5.4855,-4.8093,-4.3359,-4.0337,-3.9466,-3.8256,0.0,-3.7975,-3.8394,-3.8619,0.0,0.0,0.0,0.0,0.0,0.0,0.0,0.0,0.0,0.0,0.0,-2.9714,-3.2856,-3.3845,-3.5252,-3.7734,-3.6387,-3.5609,-3.6118,-3.3873,-3.3383,-3.54,-3.5518,-3.66,-3.8777,-4.161,-4.4863,-4.8612,-5.0236,-5.2131,-5.4194,-5.4972,-5.5276,-5.5207,-5.443,-5.0591,-4.4354,-3.7561,-3.4751,-3.4354,-2.7895,0.0,0.0,0.0,0.0,0.0,0.0,0.0,0.0,0.0,0.0,0.0,0.0,0.0,0.0,0.0,0.0,0.0,0.0,0.0,0.0,0.0,0.0,0.0,0.0,0.0,0.0,0.0,0.0,0.0,0.0,0.0,0.0,0.0,0.0,0.0,0.0,0.0,0.0,-3.6413,-4.0136,0.0,0.0,0.0,0.0,-4.2742,-4.4067,-4.6292,-4.9568,-4.9807,-5.1379,-5.464,-5.5478,-5.6466,-5.7723,-5.9099,-5.9817,-5.9847,-6.0535,-6.1224,-6.1882,-6.1882,-6.2241,-6.2839,-6.2211,-6.1466,-6.022,-5.395,-4.8775,-4.4687,-4.3543,-4.2699,-4.2149,-4.2193,-4.257,-4.2968,0.0,0.0,0.0,0.0,0.0,0.0,0.0,0.0,0.0,-2.7465,-2.9654,-3.2377,-3.5639,-3.7764,-3.9649,-4.1414,-4.1713,-4.1175,-3.9738,-3.7943,-3.7091,-3.7498,-3.7245,-3.8841,-4.2496,-4.5026,-4.7635,-5.0439,-5.3856,-5.5683,-5.6055,-5.7273,-5.734,-5.6393,-5.6122,-5.4525,-5.1623,-4.58,-4.1215,-3.7588,-3.3767,-3.0069,0.0,0.0,0.0,0.0,0.0,0.0,0.0,0.0,0.0,0.0,0.0,0.0,0.0,0.0,0.0,0.0,0.0,0.0,0.0,0.0,0.0,0.0,0.0,0.0,0.0,0.0,0.0,0.0,0.0,0.0,0.0,0.0,0.0,0.0,0.0,0.0,0.0,-4.286,-4.6142,0.0,0.0,-4.5274,-4.6381,-4.7625,-4.8985,-5.099,-5.3892,-5.485,-5.6256,-5.8291,-5.9398,-6.0206,-6.0685,-6.1583,-6.2002,-6.2002,-6.2271,-6.251,-6.272,-6.272,-6.2839,-6.3079,-6.2839,-6.2361,-6.1613,-5.9339,-5.5995,-5.2021,-4.9927,-4.8428,-4.7549,-4.7957,-4.8003,-4.7923,0.0,0.0,0.0,0.0,0.0,0.0,0.0,0.0,-2.6752,-2.8094,-3.0941,-3.4173,-3.7704,-4.0636,-4.3,-4.4515,-4.4855,-4.4227,-4.2491,-4.0098,-3.9001,-3.962,-3.9981,-4.1773,-4.5263,-4.8003,-5.0608,-5.3112,-5.6562,-5.8152,-5.7915,-5.893,-5.8863,-5.7915,-5.7645,-5.7137,-5.6188,-5.2537,-4.7704,-4.2269,-3.9314,-3.6072,-3.2715,0.0,0.0,0.0,0.0,0.0,0.0,0.0,0.0,0.0,0.0,0.0,0.0,0.0,0.0,0.0,0.0,0.0,0.0,0.0,0.0,0.0,0.0,0.0,0.0,0.0,0.0,0.0,0.0,0.0,0.0,0.0,0.0,0.0,0.0,0.0,-4.7649,-4.7322,-5.081,-5.2247,-4.9853,-5.0421,-5.1498,-5.2737,-5.3922,-5.5598,-5.8052,-5.8979,-5.9967,-6.1074,-6.1972,-6.2421,-6.2421,-6.2869,-6.3079,-6.3079,-6.3079,-6.3079,-6.3079,-6.3079,-6.3079,-6.3079,-6.3079,-6.2839,-6.2391,-6.1942,-6.0206,-5.7603,-5.5388,-5.3772,-5.2637,-5.2792,-5.2625,-5.2373,0.0,0.0,0.0,0.0,0.0,0.0,0.0,-2.5182,-2.6548,-2.9232,-3.1898,-3.51,-3.9014,-4.2462,-4.5214,-4.7189,-4.5544,-4.4347,-4.4317,-4.0008,-3.8794,-4.1756,-4.3591,-4.5336,-4.6955,-5.0541,-5.3856,-5.6867,-5.8355,-5.9438,-6.0148,-6.0148,-6.0148,-6.0114,-5.9404,-5.866,-5.7881,-5.7171,-5.395,-4.8962,-4.4462,-4.1558,-3.9619,0.0,0.0,0.0,0.0,0.0,0.0,0.0,0.0,0.0,0.0,0.0,0.0,0.0,0.0,0.0,0.0,0.0,0.0,0.0,0.0,0.0,0.0,0.0,0.0,0.0,0.0,0.0,0.0,0.0,0.0,0.0,0.0,0.0,-4.25,-4.707,-5.0182,-4.9689,-5.4102,-5.5987,-5.2815,-5.485,-5.6885,-5.8141,-5.889,-6.0086,-6.2032,-6.2181,-6.245,-6.3049,-6.3109,-6.3109,-6.3079,-6.3079,-6.3079,-6.3079,-6.3079,-6.3079,-6.3079,-6.3079,-6.3079,-6.3079,-6.3079,-6.3079,-6.2959,-6.1672,-6.1134,-6.0954,-5.9608,-5.8261,-5.7064,-5.6406,-5.6218,-5.6098,0.0,0.0,0.0,0.0,0.0,0.0,0.0,-2.4583,-2.6402,-2.8584,-3.2826,-3.6985,-4.0457,-4.4646,-4.7608,-4.8626,-4.692,-4.5364,-4.4377,-4.0427,-3.9321,-4.1981,-4.3069,-4.6118,-5.1523,-5.3179,-5.5412,-5.8423,-5.9945,-6.0791,-6.0994,-6.1501,-6.1467,-6.096,-6.0757,-5.9945,-5.8693,-5.849,-5.6961,-5.4288,-4.9791,-4.6283,-4.3461,0.0,0.0,0.0,0.0,0.0,0.0,0.0,0.0,0.0,0.0,0.0,0.0,0.0,0.0,0.0,0.0,0.0,0.0,0.0,0.0,0.0,0.0,0.0,0.0,0.0,0.0,0.0,0.0,0.0,0.0,0.0,0.0,-4.6441,-4.6664,-5.081,-5.4461,-5.6196,-5.8949,-6.0356,-5.9458,-6.0027,-6.0625,-6.0984,-6.2032,-6.269,-6.281,-6.3707,-6.3857,-6.3109,-6.3498,-6.3528,-6.3079,-6.3079,-6.3079,-6.3079,-6.3079,-6.3079,-6.3079,-6.3079,-6.3079,-6.3079,-6.3079,-6.281,-6.2331,-6.1972,-6.1253,-6.0236,-5.8919,-5.8171,-5.7693,-5.6585,-5.5867,-5.5448,0.0,0.0,0.0,0.0,0.0,0.0,0.0,-2.3815,-2.5945,-2.7918,-3.3033,-3.7524,-4.0277,-4.4676,-4.7399,-4.7219,-4.6142,-4.4676,-4.2791,-4.1126,-4.0689,-4.1906,-4.4594,-4.8364,-5.3133,-5.5174,-5.7406,-5.9979,-6.1163,-6.1772,-6.1772,-6.2178,-6.2178,-6.1738,-6.1434,-6.0791,-5.9945,-5.9607,-5.8964,-5.7946,-5.4988,-5.2073,-4.9079,-4.5989,-4.3997,-4.2541,-4.0327,-3.9693,-3.9459,-3.6593,0.0,0.0,0.0,0.0,0.0,0.0,0.0,0.0,0.0,0.0,0.0,0.0,0.0,0.0,0.0,0.0,0.0,0.0,0.0,0.0,0.0,0.0,0.0,0.0,-4.7938,-5.1259,-5.2636,-5.5359,-5.8022,-6.0116,-6.2121,-6.3109,-6.257,-6.275,-6.2899,-6.2899,-6.3588,-6.3977,-6.3887,-6.4336,-6.4246,-6.3498,-6.3558,-6.3438,-6.3079,-6.3079,-6.3079,-6.3079,-6.3079,-6.3079,-6.3079,-6.3079,-6.3079,0.0,-6.3079,-6.2869,-6.248,-6.1912,-6.1224,0.0,0.0,0.0,0.0,0.0,-5.5987,-5.5179,0.0,0.0,0.0,0.0,0.0,0.0,0.0,-2.2948,-2.5189,-2.7031,-3.2522,-3.6896,-3.8571,-4.294,-4.5274,-4.4077,-4.3898,-4.288,-4.0546,-4.1589,-4.2309,-4.2195,-4.7246,-5.1064,-5.3138,-5.6645,-5.9352,-6.1205,-6.2037,-6.2381,-6.2381,-6.2381,-6.2381,-6.2347,-6.1704,-6.1366,-6.1264,-6.0554,-6.0148,-5.9945,-5.937,-5.7524,-5.4797,-5.1596,-4.9874,-4.8773,-4.6144,-4.4384,-4.3039,-4.1294,0.0,0.0,0.0,0.0,0.0,0.0,0.0,0.0,0.0,0.0,0.0,0.0,0.0,0.0,0.0,0.0,0.0,0.0,0.0,0.0,0.0,0.0,0.0,0.0,-5.2187,-5.5897,-5.9099,-6.0116,-6.0984,-6.2181,-6.3857,-6.4485,-6.3408,-6.3707,-6.4036,-6.4126,-6.4186,-6.4425,-6.4874,0.0,0.0,0.0,0.0,-6.3139,-6.3079,-6.3079,-6.3079,-6.3079,-6.3079,-6.3079,-6.3079,-6.3079,-6.3079,-6.3079,-6.3079,-6.3049,-6.2869,-6.1613,-6.1014,-6.0835,-6.0146,-5.9458,-5.871,-5.7453,-5.6226,0.0,0.0,0.0,0.0,0.0,0.0,0.0,0.0,-2.1921,-2.3745,-2.5073,-3.0865,-3.4801,-3.4651,-3.923,-4.2222,-4.1953,-4.1474,-4.0935,-4.0427,-4.019,-4.1784,-4.568,-4.8493,-5.1578,-5.5031,-5.783,-5.9746,-6.0755,-6.185,-6.2381,-6.2381,-6.2381,-6.2381,-6.2381,-6.2245,-6.1839,-6.1298,-6.1129,-6.0351,-5.9268,-5.9708,-5.8068,-5.5132,-5.2932,-5.112,-4.9337,-4.6356,-4.6749,-4.8073,-4.4067,-4.3559,-4.4077,-4.1175,0.0,0.0,0.0,0.0,0.0,0.0,0.0,0.0,0.0,0.0,0.0,0.0,0.0,0.0,0.0,0.0,0.0,0.0,0.0,0.0,-5.1648,-5.5568,-5.9129,-6.1912,-6.2839,-6.3348,-6.3588,-6.3977,-6.4306,-6.4635,-6.4246,-6.4216,-6.4784,-6.5323,-6.5203,-6.4246,-6.5114,0.0,-6.3318,-6.3617,-6.3588,-6.3079,-6.3079,-6.3079,-6.3079,0.0,0.0,-6.3079,-6.3079,-6.3079,-6.3079,-6.3079,-6.278,-6.2241,-6.1433,-6.0475,-5.9428,-5.877,-5.8082,-5.7393,-5.6645,-5.5867,-5.5179,0.0,0.0,0.0,0.0,0.0,0.0,0.0,-2.0558,-2.2511,-2.4106,-2.8821,-3.2286,-3.2946,-3.6537,-3.8697,-3.8038,-3.7943,-3.8661,-4.0277,-4.1025,-4.3055,-4.6915,-4.9291,-5.2034,-5.521,-5.7485,-5.9281,-6.0586,-6.1797,-6.2381,-6.2381,-6.2381,-6.2178,-6.1873,-6.2245,-6.1975,-6.1298,-6.1298,-6.1061,-6.0689,-6.0689,-5.9511,-5.7615,-5.6316,-5.5129,-5.3798,-5.0589,-5.0371,-5.1013,-4.7104,-4.6022,-4.5903,-4.3569,-4.1713,-4.0074,0.0,0.0,0.0,0.0,0.0,0.0,0.0,0.0,0.0,0.0,0.0,0.0,0.0,0.0,-4.4347,0.0,0.0,-5.2695,-5.5658,-5.8919,-6.1553,-6.2899,-6.3917,-6.4515,-6.4515,-6.4814,-6.5024,-6.5024,-6.5024,-6.5144,-6.5503,-6.5533,-6.5503,-6.5503,-6.5173,-6.4725,-6.4066,-6.3707,-6.3378,-6.3079,-6.3079,-6.3079,-6.3079,-6.3079,-6.3079,-6.3079,-6.3079,-6.3079,-6.3079,-6.3079,-6.2899,-6.251,-6.1523,-6.0326,-5.9039,-5.8381,-5.7693,-5.7094,-5.7124,-5.6316,-5.5239,0.0,0.0,0.0,0.0,0.0,0.0,0.0,0.0,-2.1313,-2.3069,-2.6535,-2.9431,-3.0975,-3.3544,-3.4893,-3.4174,-3.4951,-3.6956,-4.0367,-4.2432,-4.4766,-4.7578,-5.0092,-5.2329,-5.4437,-5.6293,-5.7997,-5.949,-6.1091,-6.1688,-6.1321,-6.1919,-6.1655,-6.079,-6.1593,-6.1704,-6.1298,-6.1298,-6.1637,-6.211,-6.1535,-6.0825,-6.0013,-5.9133,-5.8557,-5.7869,-5.4688,-5.306,-5.202,-4.9604,-4.7662,-4.613,-4.5334,-4.4107,-4.247,-3.9888,-3.9984,0.0,0.0,0.0,0.0,0.0,0.0,0.0,0.0,0.0,-4.3297,-4.5092,-4.7045,-4.8996,-5.1006,-5.3892,-5.6735,-5.9099,-6.1523,-6.3109,-6.3228,-6.4066,-6.4755,-6.4994,-6.5383,-6.5503,-6.5233,-6.5592,-6.5922,-6.6191,-6.5592,-6.5622,-6.655,-6.4964,-6.4186,-6.4635,-6.3617,-6.3079,-6.3079,-6.3079,-6.3079,-6.3079,-6.3079,-6.3079,-6.3079,-6.3079,-6.3079,-6.3079,-6.2929,-6.281,-6.26,-6.1403,-6.0206,-5.9069,-5.853,-5.7812,-5.7154,-5.7723,-5.6855,-5.5448,0.0,0.0,0.0,0.0,0.0,0.0,0.0,0.0,0.0,-2.1098,-2.4165,-2.6264,-2.635,-2.8757,-3.1001,-3.2587,-3.4442,-3.7135,-4.1025,-4.312,-4.5663,-4.894,-5.099,-5.2204,-5.2515,-5.436,-5.5422,-5.5621,-5.8515,-5.9094,-5.7484,-6.0171,-6.0494,-5.8859,-5.99,-6.0723,-6.1298,-6.1298,-6.1366,-6.1434,-6.1332,-6.0825,-5.9945,-5.8558,-5.7716,-5.6985,-5.4405,-5.2071,-5.0246,-5.0437,-4.8639,-4.6501,-4.7519,-4.6531,-4.4556,-4.256,0.0,-3.8681,-3.8497,-3.9292,-4.0431,-4.1495,-4.2172,-4.3793,0.0,0.0,-5.1507,-5.2642,-5.4512,-5.5869,-5.5581,-5.7244,-5.9159,-6.0655,-6.2121,-6.3258,-6.3827,-6.3558,-6.3737,-6.4904,-6.4545,-6.4665,-6.5802,-6.5443,-6.5622,-6.6789,-6.6281,-6.5712,-6.5263,-6.4455,-6.3767,-6.3318,-6.3139,-6.3079,-6.3079,-6.3079,-6.3079,-6.3079,-6.3079,-6.3079,-6.3079,-6.3079,-6.3079,-6.3049,-6.245,-6.1882,-6.1283,-6.0505,-5.9757,-5.9099,-5.9009,-5.8201,-5.7094,-5.7184,-5.6735,-5.6128,0.0,0.0,0.0,0.0,0.0,0.0,0.0,0.0,0.0,0.0,-2.1698,-2.322,-2.3947,-2.6312,-2.8798,-3.1152,-3.3185,-3.6028,-3.9978,-4.2791,-4.5454,-4.8027,-5.0002,-5.1229,-5.1618,-5.3101,-5.4231,-5.4992,-5.6616,-5.7171,-5.6841,-5.7965,-5.8002,-5.7206,-5.8312,-5.8998,-5.9302,-5.9302,-5.981,-6.052,-5.9674,-5.9099,-5.866,-5.7171,-5.5669,-5.4125,-5.2473,-5.1215,0.0,0.0,-4.6843,-4.6447,-4.6521,-4.5693,-4.4407,-4.286,-4.1332,0.0,-3.9945,-4.1573,-4.3419,0.0,-4.6518,-4.9462,-5.1507,-5.3006,-5.434,-5.559,-5.7476,-5.891,-5.9027,-6.0356,-6.1732,0.0,-6.3258,-6.3707,-6.3947,-6.3767,-6.3408,-6.281,-6.3169,-6.3977,-6.5293,-6.5533,-6.5652,-6.5832,-6.5592,-6.5323,-6.5054,-6.4036,-6.3498,-6.3617,-6.3258,-6.3079,-6.3079,-6.3079,-6.3079,-6.3079,-6.3079,-6.3079,-6.3079,-6.3079,-6.3079,-6.3049,-6.2391,-6.1732,-6.1074,-6.0386,-5.9697,-5.9099,-5.9099,-5.853,-5.7693,-5.7693,-5.6795,-5.5658,0.0,0.0,0.0,0.0,0.0,0.0,0.0,0.0,0.0,0.0,0.0,-2.0855,-2.2637,-2.4604,-2.6782,-2.9233,-3.1423,-3.4292,-3.8093,-4.1414,-4.4287,-4.6651,-4.8432,-4.9823,-5.0661,-5.1529,-5.2438,-5.3453,-5.4328,-5.4729,-5.4743,-5.5668,-5.577,-5.5228,-5.6657,-5.7408,-5.7577,-5.7577,-5.8321,-5.937,-5.8084,-5.734,-5.6799,-5.5108,-5.3078,-5.1053,-5.0692,-4.9752,0.0,0.0,-4.4781,-4.4864,-4.4819,-4.4339,-4.3509,-4.2261,-4.1308,-4.0708,-4.0768,0.0,0.0,-4.7132,-5.0641,-5.4098,-5.5101,-5.6227,-5.7435,-5.872,-6.0294,-6.1514,-6.1609,-6.245,-6.3288,-6.3887,-6.3857,-6.3797,-6.3977,-6.3528,-6.269,-6.1283,-6.1463,-6.2301,-6.3797,-6.4874,-6.5323,-6.4994,-6.4844,-6.4755,-6.4755,-6.3677,-6.3288,-6.3737,-6.3318,-6.3079,-6.3079,-6.3079,-6.3079,-6.3079,-6.3079,-6.3079,-6.3079,-6.3079,-6.2989,-6.278,-6.2121,-6.1433,-6.0775,-6.0086,-5.9548,-5.9099,-5.9099,-5.871,-5.8112,-5.7902,-5.6825,-5.5538,0.0,0.0,0.0,0.0,0.0,0.0,0.0,0.0,0.0,0.0,0.0,0.0,0.0,0.0,-2.4577,-2.6538,-2.9089,-3.2018,-3.54,-3.8691,-4.1953,-4.5214,-4.6651,-4.7997,-4.9329,-4.9404,-4.9434,-4.9464,-5.1269,-5.1238,-4.9599,-5.352,-5.4358,-5.2701,-5.4789,-5.6156,-5.6833,-5.6833,-5.7273,-5.7881,-5.7137,-5.5987,-5.4431,-5.2198,-4.9934,-4.821,-4.963,0.0,0.0,0.0,-4.3228,-4.111,-4.2977,-4.3062,0.0,-4.0846,-3.9714,0.0,0.0,0.0,-4.7601,-5.1219,-5.3705,-5.6263,-6.0228,-6.1583,-6.2312,-6.3547,-6.4414,-6.4586,-6.3276,-6.3049,-6.3288,-6.3887,-6.3498,-6.3318,-6.3917,-6.2391,-6.1194,-6.1134,-5.9428,-5.9039,0.0,-6.2959,-6.4336,-6.4934,-6.4425,-6.4036,-6.4036,-6.3438,-6.3079,-6.3109,-6.3079,-6.3079,-6.3079,-6.3079,-6.3079,-6.3079,-6.3079,-6.3079,-6.3079,-6.3079,-6.272,-6.2091,-6.1433,-6.0745,-6.0057,-5.9398,-5.9129,-5.9099,-5.9099,-5.871,-5.8052,-5.7363,-5.6705,-5.6188,0.0,0.0,0.0,0.0,0.0,0.0,0.0,0.0,0.0,0.0,0.0,0.0,0.0,0.0,0.0,0.0,-2.7331,-2.9804,-3.2646,-3.5968,-3.8661,-4.0636,-4.2851,-4.4436,-4.5304,-4.6172,-4.686,-4.7309,-4.792,-4.8132,-4.7981,-4.9206,-4.9591,-4.9425,-5.107,-5.2103,-5.2609,-5.284,-5.3554,-5.4486,-5.2289,-5.1799,-5.1995,-4.8781,-4.6447,-4.4829,0.0,0.0,0.0,0.0,0.0,0.0,-4.0209,0.0,0.0,-3.7695,0.0,0.0,0.0,0.0,-4.9783,-5.335,-5.6531,-5.9422,-6.186,-6.2933,-6.3117,-6.2287,-6.1552,-6.0838,-5.9956,-5.9787,-6.0296,-6.1852,-6.2271,-6.278,-6.3857,-6.3079,-6.1762,-5.9997,-6.0356,0.0,0.0,0.0,0.0,-6.3647,-6.3887,-6.3827,-6.3408,-6.3199,-6.3079,-6.3079,-6.3079,-6.3079,-6.3079,-6.3079,-6.3079,-6.3079,-6.3079,-6.3079,-6.3049,-6.263,-6.2301,-6.2032,-6.0924,-6.0296,-6.0027,-5.9368,-5.9099,-5.9069,-5.862,-5.8052,-5.7363,-5.6705,-5.6077,-5.5538,0.0,0.0,0.0,0.0,0.0,0.0,0.0,0.0,0.0,0.0,0.0,0.0,0.0,0.0,0.0,0.0,0.0,0.0,-2.9919,-3.2583,-3.5023,-3.7285,-3.923,-4.0786,-4.1884,-4.2761,-4.3419,-4.3828,-4.4077,-4.4436,-4.4866,-4.5295,-4.5701,-4.6112,-4.7364,-4.8074,-4.8349,-4.8537,-4.9012,-4.9436,-4.7601,-4.7009,-4.6996,-4.4313,-4.257,0.0,-4.0358,0.0,0.0,0.0,0.0,0.0,0.0,0.0,0.0,0.0,0.0,0.0,0.0,-4.7784,-5.2431,-5.6181,-5.908,-6.1388,-6.2631,-6.2933,-6.2421,-6.0431,-5.8979,-5.7842,-5.7214,-5.6496,-5.6974,-5.9907,-6.0146,-6.0835,-6.3318,-6.251,-6.1194,-5.9967,-6.0116,-6.0027,0.0,0.0,0.0,-6.26,-6.3318,-6.3498,-6.3109,-6.3079,-6.3079,-6.3079,-6.3079,-6.3079,-6.3079,-6.3079,-6.3079,-6.3079,-6.3079,-6.3079,-6.3049,-6.2391,-6.1972,-6.1672,-6.0565,-5.9937,-5.9697,-5.9279,-5.9099,-5.9039,-5.8381,-5.7842,-5.7363,-5.6496,-5.5897,-5.5457,0.0,0.0,0.0,0.0,0.0,0.0,0.0,0.0,0.0,0.0,0.0,0.0,0.0,0.0,0.0,0.0,0.0,0.0,-2.7151,-2.8624,-3.11,-3.4946,-3.5845,-3.7131,-3.908,-3.9194,-3.926,-3.926,-3.9888,-4.0187,-4.0254,-4.1792,-4.2536,-4.2572,-4.3639,-4.4104,-4.4104,-4.4104,-4.3783,-4.317,-4.3073,-4.1857,-4.0001,-3.9175,-3.8412,-3.7787,-3.7787,0.0,0.0,0.0,0.0,0.0,0.0,0.0,0.0,0.0,0.0,-4.2957,-4.7698,-5.1612,-5.534,-5.9535,-6.1252,-6.2029,-6.2637,-6.1801,-6.0356,-5.8261,-5.6765,-5.5598,0.0,0.0,-5.3593,-5.8112,-5.7453,-5.7932,-6.245,-6.0894,-5.9757,0.0,0.0,0.0,0.0,0.0,0.0,-6.1942,0.0,-6.3049,-6.3079,-6.3079,-6.3079,-6.3079,-6.3079,-6.3079,-6.3079,-6.3079,-6.3079,-6.3079,-6.3079,-6.3049,-6.3019,-6.2331,-6.1672,-6.1014,-6.0326,-5.9668,-5.9069,-5.9069,-5.9039,-5.8949,-5.8291,-5.8022,-5.7819,-5.6534,-5.6055,-5.573,0.0,0.0,0.0,0.0,0.0,0.0,0.0,0.0,0.0,0.0,0.0,0.0,0.0,0.0,0.0,0.0,0.0,0.0,-2.3837,-2.5597,-2.7455,-2.9519,-3.1596,-3.3399,-3.4981,-3.6477,-3.7225,-3.7225,-3.7404,-3.7494,-3.7464,-3.7439,-3.7392,-3.7425,-3.8403,-3.8715,-3.8527,-3.8748,-3.903,-3.9188,-3.7584,-3.7612,-3.8434,-3.653,-3.5976,-3.6174,0.0,0.0,0.0,0.0,0.0,0.0,0.0,0.0,-3.9529,0.0,0.0,-4.6629,-5.0321,-5.3801,-5.7,-5.9575,-6.0789,-6.1091,-6.0301,-5.9489,-5.7902,-5.4431,-5.2276,-5.0541,0.0,0.0,0.0,-5.494,-5.7513,0.0,-6.269,-6.248,0.0,-6.1194,0.0,-6.1224,-6.0416,-6.1403,0.0,0.0,-6.2241,-6.257,-6.3049,-6.3079,-6.3079,-6.3079,-6.3079,-6.3079,-6.3079,-6.3079,-6.3079,-6.3079,-6.3079,-6.281,-6.2331,-6.1672,-6.0984,-6.0326,-5.9638,-5.8979,-5.8381,-5.8381,-5.8082,-5.7543,-5.6915,-5.6675,-5.6452,-5.4521,-5.3833,-5.3405,0.0,0.0,0.0,0.0,0.0,0.0,0.0,0.0,0.0,0.0,0.0,0.0,0.0,0.0,0.0,0.0,0.0,0.0,0.0,-2.3278,-2.4693,-2.6603,-2.8054,-2.943,-3.0743,-3.188,-3.2608,-3.2867,-3.3218,-3.3672,-3.4171,-3.4195,-3.4203,-3.4234,-3.4729,-3.4729,-3.4324,-3.4455,-3.4418,0.0,0.0,-3.3047,-3.3759,-3.249,-3.2728,0.0,0.0,0.0,0.0,0.0,0.0,-4.0089,-4.0642,-4.1435,-4.2611,-4.5185,0.0,-5.0182,-5.3443,-5.6346,-5.874,-6.0176,-6.0386,-5.9668,-5.7453,-5.6196,-5.4221,-4.9673,-4.7638,0.0,0.0,0.0,0.0,0.0,0.0,0.0,-6.2151,-6.2391,-6.2151,0.0,-6.2361,0.0,-6.1493,-6.2151,-6.26,0.0,-6.254,-6.269,-6.3049,-6.3079,-6.3079,-6.3079,-6.3079,-6.3079,-6.3079,-6.3079,-6.3079,-6.3079,-6.3079,-6.272,-6.2061,-6.1403,-6.0745,-6.0057,0.0,-5.874,-5.8112,-5.8112,-5.7723,-5.7034,-5.6406,-5.6218,-5.5922,-5.3803,-5.3016,-5.2591,0.0,0.0,0.0,0.0,0.0,0.0,0.0,0.0,0.0,0.0,0.0,0.0,0.0,0.0,0.0,0.0,0.0,0.0,0.0,0.0,0.0,-2.4887,-2.5218,-2.591,-2.7049,-2.7299,-2.7658,0.0,0.0,-2.9747,-3.0778,-3.1453,-3.1723,-3.1664,-3.1664,-3.1308,-3.0715,-3.0801,-3.0147,-2.9052,-2.9271,-2.891,-2.8237,0.0,0.0,0.0,0.0,0.0,0.0,0.0,-4.1452,-4.2082,-4.2849,-4.4078,-4.5873,-4.9105,-5.1379,-5.3533,-5.6765,-5.889,-6.0356,-6.0835,-5.9907,-5.7932,-5.4461,-5.2576,-5.0062,-4.4855,0.0,-4.2611,-4.1991,-4.2641,-4.5203,-5.1109,0.0,-5.6286,-6.1493,-6.1732,-6.1792,-6.2929,-6.266,-6.254,-6.3019,-6.263,-6.254,-6.3049,-6.3079,-6.3079,-6.3079,-6.3079,-6.3079,-6.3079,-6.3079,-6.3079,-6.3079,-6.3079,-6.3079,-6.3079,-6.2989,-6.26,-6.1942,-6.1283,-6.0595,-5.9907,0.0,0.0,-5.7992,-5.7902,-5.7453,-5.6795,-5.6256,-5.6098,-5.5803,-5.3564,-5.2669,-5.2241,0.0,0.0,0.0,0.0,0.0,0.0,0.0,0.0,0.0,0.0,-1.2915,-1.2944,0.0,0.0,0.0,0.0,0.0,0.0,0.0,0.0,0.0,0.0,-2.3822,-2.4963,-2.58,0.0,0.0,0.0,0.0,0.0,-2.8549,-2.8142,-2.7729,-2.7281,-2.7281,-2.6974,-2.6497,-2.7104,-2.6907,-2.6243,-2.745,-2.748,-2.6874,0.0,0.0,0.0,0.0,0.0,0.0,0.0,-4.1438,-4.3629,-4.6105,-4.8311,-5.0571,-5.3354,-5.5149,-5.6855,-5.9668,-6.0655,-6.0835,-6.0386,-5.883,-5.6286,-5.187,-4.9494,0.0,0.0,0.0,-3.9888,-3.92,-4.1414,-4.5053,-5.0511,0.0,0.0,0.0,0.0,-6.281,0.0,0.0,0.0,0.0,0.0,0.0,0.0,0.0,0.0,-6.3079,-6.3079,-6.3079,-6.3079,-6.3079,-6.3079,-6.3079,-6.3079,-6.3079,-6.3079,-6.254,-6.1912,-6.1253,-6.0565,-5.9907,-5.9249,0.0,0.0,-5.7244,-5.6735,-5.6107,-5.5508,-5.5388,-5.5359,-5.5024,-5.2133,-5.1098,-5.0657,0.0,0.0,0.0,0.0,0.0,0.0,0.0,0.0,-1.3431,-1.4033,-1.3394,-1.2902,-1.2905,-1.3867,0.0,0.0,0.0,0.0,0.0,0.0,0.0,0.0,0.0,0.0,0.0,0.0,0.0,0.0,0.0,0.0,0.0,0.0,0.0,0.0,0.0,0.0,0.0,0.0,0.0,0.0,0.0,0.0,0.0,0.0,0.0,0.0,0.0,0.0,0.0,0.0,-4.1333,-4.4313,-4.7729,-5.0291,-5.2518,-5.499,-5.6615,-5.8141,-6.0475,-6.1613,-6.1792,-6.0416,-5.8082,-5.473,-4.9359,0.0,0.0,0.0,-3.7883,-3.7793,-3.7464,0.0,0.0,0.0,0.0,0.0,0.0,0.0,0.0,0.0,0.0,0.0,0.0,0.0,0.0,0.0,0.0,0.0,-6.3079,-6.3079,-6.3079,-6.3079,-6.3079,-6.3079,-6.3079,-6.3079,-6.3079,-6.3079,-6.2421,-6.1762,-6.1104,-6.0416,-5.9727,-5.9099,0.0,0.0,-5.7064,-5.6765,-5.6077,-5.5179,-5.5179,-5.5179,-5.4845,-5.1807,-5.0713,-5.0268,0.0,0.0,0.0,0.0,0.0,0.0,0.0,-1.3957,-1.389,-1.5044,-1.4002,-1.3064,-1.2838,-1.3641,-1.4338,0.0,0.0,0.0,0.0,0.0,0.0,0.0,0.0,0.0,0.0,0.0,0.0,0.0,0.0,0.0,0.0,0.0,0.0,0.0,0.0,0.0,0.0,0.0,0.0,0.0,0.0,0.0,0.0,0.0,0.0,0.0,0.0,0.0,0.0,0.0,-4.0575,-4.3709,-4.717,-5.0237,-5.2899,-5.4778,-5.6645,-5.856,-6.0565,-6.1882,-6.2181,-6.0176,-5.7094,-5.3025,-4.7219,-4.3838,0.0,0.0,-3.5908,-3.6327,-3.6447,0.0,-4.1743,0.0,-4.7638,0.0,0.0,0.0,0.0,0.0,0.0,0.0,0.0,0.0,0.0,0.0,0.0,0.0,0.0,-6.3079,-6.3079,-6.3079,-6.3079,-6.3079,-6.3079,-6.3079,-6.3019,-6.2869,-6.2211,-6.1523,-6.0864,-6.0176,-5.9608,-5.9099,0.0,0.0,0.0,-5.6855,-5.6166,-5.5388,-5.5239,-5.5179,-5.4845,-5.2159,-5.0989,-5.0324,0.0,0.0,0.0,0.0,0.0,0.0,0.0,-1.3957,-1.389,-1.5044,-1.4499,-1.3628,-1.2628,-1.2841,-1.2977,0.0,0.0,0.0,0.0,0.0,0.0,0.0,0.0,0.0,0.0,0.0,0.0,0.0,0.0,0.0,0.0,0.0,0.0,0.0,0.0,0.0,0.0,0.0,0.0,0.0,0.0,0.0,0.0,0.0,0.0,0.0,0.0,0.0,0.0,0.0,0.0,-4.0822,-4.2886,-4.7251,-5.1707,-5.2382,0.0,0.0,-6.0565,-6.1194,-6.0805,-5.88,-5.5359,-5.1079,-4.5723,0.0,0.0,-3.6207,-3.5549,-3.5789,-3.6387,-3.7195,-3.9439,0.0,0.0,-4.9793,0.0,0.0,0.0,0.0,0.0,0.0,0.0,0.0,0.0,0.0,0.0,0.0,0.0,-6.3079,-6.3079,-6.3079,-6.3079,-6.3079,-6.3079,-6.3079,-6.278,-6.2181,-6.1523,-6.0835,-6.0146,-5.9488,-5.9159,-5.9039,0.0,0.0,0.0,-5.6107,-5.5658,-5.6017,-5.5418,-5.5179,-5.5027,-5.3413,-5.1889,-5.0491,0.0,0.0,0.0,0.0,0.0,0.0,-1.4423,-1.3957,-1.4015,-1.5442,-1.4574,-1.3405,-1.2383,-1.2261,-1.2346,0.0,0.0,0.0,0.0,0.0,0.0,0.0,0.0,0.0,0.0,0.0,0.0,0.0,0.0,0.0,0.0,0.0,0.0,0.0,0.0,0.0,0.0,0.0,0.0,0.0,0.0,0.0,0.0,0.0,0.0,0.0,0.0,0.0,0.0,0.0,0.0,0.0,-3.8533,-4.15,0.0,0.0,-5.2416,-5.5239,-5.8441,-6.0206,-6.0535,-5.8112,-5.4521,-5.0331,-4.5424,0.0,-3.8482,-3.6028,-3.5519,-3.5579,-3.5848,-3.6417,-3.8063,-4.1743,-4.2462,0.0,0.0,0.0,0.0,0.0,0.0,0.0,0.0,0.0,0.0,0.0,0.0,0.0,0.0,-6.3079,-6.3079,-6.3079,-6.3079,-6.3079,-6.3079,-6.269,-6.2361,-6.2091,-6.1014,-6.0356,-6.0057,-5.9398,-5.9099,-5.9069,0.0,0.0,0.0,-5.6256,-5.5718,-5.5568,-5.5299,-5.5179,-5.5027,-5.3518,-5.1997,-5.0491,0.0,0.0,0.0,0.0,0.0,-1.3277,-1.4423,-1.3957,-1.4035,-1.5505,-1.4551,-1.3367,-1.2326,-1.2301,-1.236,-1.2301,0.0,0.0,0.0,0.0,0.0,0.0,0.0,0.0,0.0,0.0,0.0,0.0,0.0,0.0,0.0,0.0,0.0,0.0,0.0,0.0,0.0,0.0,0.0,0.0,0.0,0.0,0.0,0.0,0.0,0.0,0.0,0.0,0.0,0.0,0.0,0.0,0.0,0.0,0.0,0.0,-4.9031,-5.2127,-5.5688,-5.8261,-5.9338,-5.6855,-5.3264,-4.9194,0.0,0.0,-3.7614,-3.5878,-3.5519,-3.5519,-3.5519,-3.5878,-3.6985,-3.9409,-3.9738,-4.1803,-4.7848,0.0,0.0,0.0,0.0,0.0,0.0,0.0,0.0,0.0,0.0,0.0,0.0,-6.3079,-6.3079,-6.3079,-6.3079,-6.2989,-6.278,-6.2331,-6.1882,-6.1493,-6.0535,-5.9997,-5.9787,-5.9308,-5.9009,0.0,0.0,0.0,0.0,-5.6226,-5.5718,-5.5478,-5.5269,-5.5179,-5.5078,-5.4016,-5.2669,-5.1153,0.0,0.0,0.0,0.0,0.0,0.0,0.0,-1.3957,-1.389,-1.5044,-1.4572,-1.3674,-1.2604,-1.3086,-1.3042,-1.19,0.0,0.0,0.0,0.0,0.0,0.0,0.0,0.0,0.0,0.0,0.0,-2.3095,0.0,0.0,0.0,0.0,0.0,0.0,0.0,0.0,0.0,0.0,0.0,0.0,0.0,0.0,0.0,0.0,0.0,0.0,0.0,0.0,0.0,0.0,0.0,0.0,0.0,0.0,0.0,0.0,-4.5192,-4.9928,-5.2516,-5.5149,-5.6675,-5.473,-5.1259,-4.7279,0.0,0.0,-3.7045,-3.5759,-3.5519,-3.5519,-3.5519,-3.5519,-3.6148,-3.8093,-3.9529,-4.2013,-4.6681,0.0,0.0,0.0,0.0,0.0,0.0,0.0,0.0,0.0,0.0,0.0,0.0,0.0,-6.3079,-6.3079,-6.3079,-6.278,-6.2121,-6.2091,-6.1433,-6.0116,-6.0086,-5.9727,-5.9129,-5.9099,0.0,0.0,0.0,0.0,0.0,-5.5718,-5.5598,-5.6107,-5.5448,-5.5179,-5.5179,-5.5179,-5.4252,-5.2751,0.0,0.0,0.0,0.0,0.0,0.0,0.0,-1.3239,-1.3322,-1.3941,-1.3821,-1.3394,-1.2594,-1.2698,-1.254,-1.185,0.0,0.0,0.0,0.0,0.0,0.0,0.0,0.0,0.0,0.0,-2.2221,-2.3728,-2.4808,-2.5636,0.0,0.0,0.0,0.0,0.0,0.0,0.0,0.0,0.0,0.0,0.0,0.0,0.0,0.0,0.0,0.0,0.0,0.0,0.0,0.0,0.0,0.0,0.0,0.0,0.0,-3.6969,0.0,0.0,-4.695,-4.9075,-5.0032,-4.8506,-4.6172,-4.3609,-4.0935,0.0,-3.6537,-3.5699,-3.5519,-3.5519,-3.5519,-3.5519,-3.6447,-3.929,-4.0127,0.0,0.0,0.0,0.0,0.0,0.0,0.0,0.0,0.0,0.0,0.0,0.0,0.0,0.0,0.0,-6.3079,-6.3079,-6.3079,-6.275,-6.2121,-6.1642,-6.0984,-6.0086,-5.9638,-5.9308,-5.9099,-5.865,0.0,0.0,0.0,0.0,0.0,-5.5538,-5.5329,-5.5478,-5.5269,-5.459,-5.3675,-5.3675,-5.2079,-4.9847,0.0,0.0,0.0,0.0,0.0,0.0,0.0,-1.2915,-1.2993,-1.3242,-1.3262,-1.3111,-1.2707,-1.2656,-1.2544,-1.224,0.0,0.0,0.0,0.0,0.0,0.0,0.0,0.0,0.0,-2.0471,-2.2422,-2.4305,-2.5184,-2.6113,-2.7128,-2.7253,0.0,0.0,0.0,0.0,0.0,0.0,0.0,0.0,0.0,0.0,-2.9891,0.0,0.0,0.0,0.0,0.0,0.0,0.0,0.0,0.0,0.0,0.0,0.0,0.0,0.0,0.0,0.0,-4.4975,-4.5933,-4.4825,-4.309,0.0,0.0,0.0,-3.5998,-3.5579,-3.5519,-3.5519,-3.5519,-3.5519,-3.6267,-3.8542,0.0,0.0,0.0,0.0,0.0,0.0,0.0,0.0,0.0,0.0,0.0,0.0,0.0,0.0,0.0,0.0,-6.26,-6.2331,-6.257,-6.2271,-6.1343,-6.0924,-6.0386,-5.9697,-5.9308,-5.8979,-5.871,0.0,0.0,0.0,0.0,0.0,0.0,-5.5359,-5.5179,-5.5179,-5.5179,-5.4156,-5.2641,-5.2641,-5.0979,-4.8691,0.0,0.0,0.0,0.0,0.0,0.0,0.0,0.0,-1.2915,-1.2915,-1.2915,-1.2915,-1.2915,-1.2915,-1.2915,-1.2915,0.0,0.0,0.0,0.0,0.0,0.0,0.0,0.0,0.0,-2.0523,-2.2598,-2.485,-2.541,-2.649,-2.8097,-2.762,-2.7344,-2.7304,-2.6776,0.0,0.0,0.0,0.0,0.0,0.0,0.0,0.0,0.0,0.0,0.0,0.0,0.0,0.0,0.0,0.0,0.0,0.0,0.0,0.0,0.0,0.0,0.0,0.0,0.0,0.0,0.0,0.0,0.0,0.0,0.0,0.0,-3.5519,-3.5519,-3.5519,-3.5639,-3.5579,-3.5789,-3.6686,0.0,0.0,0.0,0.0,0.0,0.0,0.0,0.0,0.0,0.0,0.0,0.0,0.0,0.0,0.0,0.0,0.0,-6.1074,-6.1642,-6.1343,-6.0086,-6.0086,-5.9757,-5.9099,-5.9069,-5.871,-5.8112,0.0,0.0,0.0,0.0,0.0,0.0,-5.5179,-5.5149,-5.5119,-5.5018,-5.37,-5.1845,-5.1741,-5.0481,-4.8652,0.0,0.0,0.0,0.0,0.0,0.0,0.0,0.0,0.0,0.0,-1.2915,-1.2915,-1.2915,-1.2915,-1.2915,0.0,0.0,0.0,0.0,0.0,0.0,0.0,0.0,0.0,0.0,-2.0973,-2.2774,-2.541,-2.6021,-2.6927,-2.8122,-2.8398,-2.8097,-2.7268,-2.7178,-2.6826,-2.6298,0.0,0.0,0.0,0.0,0.0,0.0,0.0,0.0,0.0,-3.2048,-3.2931,0.0,0.0,0.0,0.0,0.0,0.0,0.0,0.0,-3.63,0.0,-3.7591,0.0,-3.7404,-3.6716,-3.6596,-3.6567,0.0,0.0,0.0,0.0,0.0,0.0,0.0,0.0,0.0,0.0,0.0,0.0,0.0,0.0,0.0,0.0,0.0,0.0,0.0,0.0,0.0,0.0,0.0,0.0,0.0,0.0,0.0,-6.0356,-6.0475,-6.0416,-6.0086,-6.0086,-5.9757,-5.9099,-5.859,-5.8261,-5.8082,0.0,0.0,0.0,0.0,0.0,0.0,-5.5179,-5.491,-5.4331,-5.3253,-5.1551,-4.9537,-4.8491,-4.7063,-4.5628,0.0,0.0,0.0,0.0,0.0,0.0,0.0,0.0,0.0,0.0,0.0,0.0,0.0,0.0,0.0,0.0,0.0,0.0,0.0,0.0,0.0,0.0,0.0,0.0,-2.037,-2.1131,-2.2975,-2.6021,-2.6348,-2.7329,-2.8875,-2.8863,-2.8189,-2.6956,-2.6208,-2.5718,-2.5458,-2.5893,-2.6341,0.0,0.0,0.0,0.0,0.0,0.0,0.0,-3.3272,-3.3983,0.0,-3.4975,-3.605,-3.7068,0.0,0.0,0.0,0.0,-3.668,-3.7137,-3.6371,-3.6076,-3.582,-3.5106,-3.522,-3.5519,-3.5519,0.0,0.0,0.0,0.0,0.0,0.0,0.0,0.0,0.0,0.0,0.0,0.0,0.0,0.0,0.0,0.0,0.0,0.0,0.0,0.0,0.0,0.0,0.0,0.0,0.0,0.0,0.0,-5.9189,-5.9189,-5.9189,-5.9189,-5.886,-5.8171,-5.7812,-5.7513,-5.7214,0.0,0.0,0.0,0.0,0.0,-5.4202,-5.3621,-5.3133,-5.2658,-5.1241,-4.9401,-4.7487,-4.6753,-4.5374,-4.3915,0.0,0.0,0.0,0.0,0.0,0.0,0.0,0.0,0.0,0.0,0.0,0.0,0.0,0.0,0.0,0.0,0.0,0.0,0.0,0.0,0.0,0.0,0.0,-1.9103,-2.0663,-2.1425,-2.3351,-2.6499,-2.6575,-2.7731,-2.9779,-2.9377,-2.8223,-2.6542,-2.4992,-2.4316,-2.4385,-2.5441,-2.5862,-2.6005,0.0,0.0,0.0,0.0,0.0,0.0,0.0,0.0,0.0,-3.613,-3.7129,-3.7831,-3.7047,0.0,0.0,0.0,0.0,0.0,-3.6272,-3.6565,-3.6786,-3.5657,-3.5429,-3.5519,-3.5519,0.0,0.0,0.0,0.0,0.0,0.0,-3.6866,0.0,0.0,0.0,0.0,0.0,0.0,0.0,0.0,0.0,0.0,0.0,0.0,0.0,0.0,0.0,0.0,0.0,0.0,0.0,0.0,-5.8022,-5.7932,-5.7812,-5.7932,-5.7663,-5.7094,-5.7004,-5.6675,-5.6218,-5.5957,0.0,0.0,0.0,0.0,-5.3077,-5.167,-5.1027,-5.0787,-4.9231,-4.746,-4.5815,-4.5623,-4.4484,-4.3037,0.0,0.0,0.0,0.0,0.0,0.0,0.0,0.0,0.0,0.0,0.0,0.0,0.0,0.0,0.0,0.0,0.0,0.0,0.0,0.0,0.0,0.0,-1.9058,-2.0415,-2.1973,-2.2745,-2.4219,-2.6499,-2.6952,-2.8072,-2.9804,-3.0181,-2.9001,-2.6542,-2.5373,-2.4897,-2.4957,-2.6431,-2.7017,-2.7173,0.0,0.0,0.0,0.0,0.0,0.0,0.0,0.0,0.0,-3.5273,-3.6657,-3.8578,-3.7222,0.0,0.0,0.0,0.0,0.0,-3.8541,-3.8798,-3.8558,-3.5424,-3.507,-3.5519,-3.5519,0.0,0.0,0.0,0.0,0.0,0.0,-3.8571,0.0,0.0,0.0,0.0,0.0,0.0,0.0,0.0,0.0,0.0,0.0,0.0,0.0,0.0,0.0,0.0,0.0,0.0,0.0,0.0,0.0,-5.7004,-5.6466,-5.7004,-5.7184,-5.7094,-5.6555,-5.6308,-5.6188,-5.5029,-5.4401,0.0,0.0,0.0,-5.3077,-5.167,-5.0796,-5.0083,-4.7484,-4.5953,-4.5018,-4.3896,-4.326,-4.2986,0.0,0.0,0.0,0.0,0.0,0.0,0.0,0.0,0.0,0.0,0.0,0.0,0.0,0.0,0.0,0.0,0.0,0.0,0.0,0.0,0.0,-1.9032,-2.0862,-2.2122,-2.2723,-2.3658,-2.5517,-2.8284,-2.8524,-2.9478,-3.1044,-2.9052,-2.7317,-2.5769,-2.41,-2.3844,-2.4692,-2.5949,-2.6989,-2.7806,0.0,0.0,0.0,0.0,0.0,0.0,0.0,0.0,0.0,0.0,-3.7301,-3.8346,-3.7624,0.0,0.0,0.0,0.0,0.0,-3.8484,-3.8467,-3.8299,-3.6514,-3.6567,-3.6896,-3.6178,-3.6297,0.0,0.0,0.0,0.0,0.0,0.0,0.0,0.0,0.0,0.0,0.0,0.0,0.0,0.0,0.0,0.0,0.0,0.0,0.0,0.0,0.0,0.0,0.0,0.0,0.0,0.0,0.0,0.0,-5.5119,-5.5388,-5.5718,-5.6047,-5.5418,-5.5119,-5.5089,-5.4102,-5.3473,0.0,0.0,-5.2456,-5.2001,-5.065,-4.9452,-4.8308,-4.6276,-4.4798,-4.3852,-4.324,-4.2986,-4.2986,0.0,0.0,0.0,0.0,0.0,0.0,0.0,0.0,0.0,0.0,0.0,0.0,0.0,0.0,0.0,0.0,0.0,0.0,0.0,0.0,-1.8631,-1.9585,-2.1894,-2.3312,-2.3678,-2.4968,-2.7066,-2.998,-3.0105,-3.0809,-3.1922,-2.8146,-2.6044,-2.5462,-2.3539,-2.3438,-2.4754,-2.5836,-2.7091,-2.8348,0.0,0.0,0.0,0.0,0.0,0.0,0.0,0.0,0.0,0.0,0.0,0.0,0.0,0.0,0.0,-3.9242,-3.9242,-3.9076,-3.8254,-3.8144,-3.8109,-3.7392,-3.7464,-3.7704,-3.7644,-3.7764,-3.8182,0.0,0.0,0.0,0.0,0.0,0.0,0.0,0.0,0.0,0.0,0.0,0.0,0.0,0.0,0.0,0.0,0.0,0.0,0.0,0.0,0.0,0.0,0.0,0.0,0.0,0.0,0.0,-5.4221,-5.4042,-5.4221,-5.473,-5.4221,-5.3982,-5.3952,-5.3264,-5.2665,-5.2187,-5.2037,-5.1678,-5.1105,-4.9776,-4.8539,-4.7402,-4.5661,-4.4155,-4.2986,-4.2986,-4.2986,-4.2986,0.0,0.0,0.0,0.0,0.0,0.0,0.0,0.0,0.0,0.0,0.0,0.0,0.0,0.0,0.0,0.0,0.0,0.0,0.0,0.0,-1.848,-1.9033,-2.1169,-2.3336,-2.5385,-2.7206,-2.8924,-3.0557,-3.1035,-3.1336,-3.1411,-2.8664,-2.7076,-2.6453,-2.5299,-2.5134,-2.5777,-2.7323,-2.8299,-2.8888,-2.9503,0.0,0.0,0.0,0.0,0.0,0.0,0.0,0.0,0.0,0.0,0.0,0.0,0.0,-4.0011,-4.0011,-4.0011,-3.9815,-3.8969,-3.9171,-3.9155,-3.7059,-3.6118,-3.6656,-4.0217,-4.0127,-3.9941,-4.2423,0.0,0.0,0.0,0.0,0.0,0.0,0.0,0.0,0.0,0.0,0.0,0.0,0.0,0.0,0.0,0.0,0.0,0.0,0.0,0.0,0.0,0.0,0.0,0.0,0.0,0.0,-5.4221,-5.3563,-5.3264,-5.3324,-5.3264,-5.3264,-5.3234,-5.2576,-5.2247,-5.2157,-5.1558,-5.1259,-5.1105,-4.9776,-4.9161,-4.8787,-4.6083,-4.4155,-4.2986,-4.2986,-4.2986,-4.2986,0.0,0.0,0.0,0.0,0.0,0.0,0.0,0.0,0.0,0.0,0.0,0.0,0.0,0.0,0.0,0.0,0.0,0.0,0.0,0.0,-1.8606,-1.9459,-2.1317,-2.3201,-2.5084,-2.7475,-2.9859,-3.2139,-3.2692,-3.224,-3.0844,-2.8572,-2.7191,-2.6528,-2.5187,-2.5401,-2.688,-2.7099,-2.805,-2.9453,-2.9302,-2.9682,0.0,0.0,0.0,0.0,0.0,0.0,0.0,0.0,-3.6089,-3.6855,-3.7081,-3.7833,-3.8668,-3.8668,-3.8668,-3.8479,-3.7668,-3.8216,-3.8928,-3.843,-3.8123,-3.8661,-4.1422,-4.288,-4.4227,-4.6052,-4.707,0.0,0.0,0.0,0.0,0.0,0.0,0.0,0.0,0.0,0.0,0.0,0.0,0.0,0.0,0.0,0.0,0.0,0.0,0.0,0.0,0.0,0.0,0.0,0.0,0.0,0.0,-5.2695,-5.2366,-5.1977,-5.2366,-5.2576,-5.2546,-5.1887,-5.1588,-5.1558,-5.1319,-5.1229,-5.1182,-5.065,-4.9921,-4.8886,-4.6135,-4.4155,-4.2986,-4.2986,-4.2986,-4.2986,0.0,0.0,0.0,0.0,0.0,0.0,0.0,0.0,0.0,0.0,0.0,0.0,0.0,0.0,0.0,0.0,0.0,0.0,-1.6788,-1.7654,-1.861,-1.9761,-2.1435,-2.2955,-2.4224,-2.699,-2.9694,-3.229,-3.2842,-3.2164,-3.0292,-2.8699,-2.7732,-2.7268,-2.6042,-2.651,-2.8208,-2.7586,-2.827,-2.9754,-2.9352,-2.9428,0.0,0.0,0.0,0.0,0.0,0.0,0.0,0.0,-3.5431,-3.6008,-3.651,-3.7176,-3.7793,-3.7793,-3.7793,-3.7616,-3.6813,-3.7281,-3.8108,-3.8632,-3.9409,-4.0816,-4.3878,-4.5783,-4.7608,-4.9972,-5.069,-5.0823,0.0,0.0,0.0,0.0,0.0,0.0,0.0,0.0,0.0,0.0,0.0,0.0,0.0,0.0,0.0,0.0,0.0,0.0,0.0,0.0,0.0,0.0,0.0,0.0,0.0,-5.2007,-5.1648,-5.1229,-5.1678,-5.1887,-5.1887,-5.1439,-5.1229,-5.1199,-5.099,-5.0853,-5.0853,-5.0241,-4.8972,-4.7197,-4.5256,-4.3795,-4.2766,-4.2766,-4.2836,-4.2986,0.0,0.0,0.0,0.0,0.0,0.0,0.0,0.0,0.0,0.0,0.0,0.0,0.0,0.0,0.0,0.0,0.0,0.0,-1.7731,-1.7879,-1.8476,-1.9735,-2.1483,-2.2594,-2.3075,-2.591,-2.845,-3.0608,-3.111,-3.0834,-2.9754,-2.9176,-2.8888,-2.89,-2.8373,-2.875,-2.9754,-2.9176,-2.9277,-2.9804,-2.9779,-2.9779,-2.9804,0.0,0.0,0.0,0.0,0.0,0.0,0.0,-3.5148,-3.6569,-3.6569,-3.7114,-3.7793,-3.7793,-3.7793,-3.7587,-3.6813,-3.66,-3.6754,-3.7308,-3.9439,-4.283,-4.8131,-4.882,-4.9643,-5.4281,-5.3623,-5.2247,-5.2247,0.0,0.0,0.0,0.0,0.0,0.0,0.0,0.0,0.0,0.0,0.0,0.0,0.0,0.0,0.0,0.0,0.0,0.0,0.0,0.0,0.0,0.0,0.0,0.0,-5.1528,-5.1199,-5.1199,-5.1199,-5.1199,-5.1199,-5.1199,-5.1199,-5.1169,-5.0465,-5.0166,-5.0044,-4.8144,-4.579,-4.3409,-4.3409,-4.2916,-4.2213,-4.2213,-4.2539,-4.2961,0.0,0.0,0.0,0.0,0.0,0.0,0.0,0.0,0.0,0.0,0.0,0.0,0.0,0.0,0.0,0.0,0.0,0.0,-1.6632,-1.7461,-1.8509,-1.9874,-2.1144,-2.2115,-2.2723,-2.4642,-2.6889,-2.9389,-2.998,-2.9704,-2.8599,-2.8423,-2.8918,-2.9939,-2.9516,-2.9846,-3.0681,-2.9453,-2.9277,-2.9754,-2.9352,-2.9428,-2.9804,0.0,0.0,0.0,0.0,0.0,0.0,0.0,0.0,0.0,-3.5623,-3.6005,-3.6164,-3.6164,-3.6164,-3.6133,-3.591,-3.6479,-3.765,-3.9691,0.0,0.0,0.0,-5.1169,0.0,0.0,-5.5688,-5.4431,0.0,0.0,0.0,0.0,0.0,0.0,0.0,0.0,0.0,0.0,0.0,0.0,0.0,0.0,0.0,0.0,0.0,0.0,0.0,0.0,0.0,0.0,0.0,0.0,0.0,0.0,-4.9853,-4.9853,-4.9853,-5.0092,-5.0495,-5.0495,-5.0272,-4.9823,-4.9643,-4.9067,-4.8144,-4.665,-4.5001,-4.3409,-4.3409,-4.263,-4.158,-4.158,-4.1681,-4.1831,0.0,0.0,0.0,0.0,0.0,0.0,0.0,0.0,0.0,0.0,-1.3242,-1.3203,0.0,0.0,0.0,0.0,0.0,0.0,0.0,-1.7685,-1.8855,-2.0244,-2.1175,-2.2274,-2.3618,-2.4733,-2.5979,-2.7394,-2.8153,-2.8222,-2.7795,-2.8473,-2.9389,-3.0479,-3.0683,-3.0964,-3.1203,-3.0075,-2.9679,-2.9754,-2.9402,-2.9478,-2.9804,0.0,0.0,0.0,0.0,0.0,0.0,0.0,0.0,0.0,-3.471,-3.5166,-3.5519,-3.5519,-3.531,-3.522,-3.5759,-3.6626,-3.8182,-4.1354,-4.4347,-4.7758,-5.2665,0.0,0.0,0.0,0.0,0.0,0.0,0.0,0.0,0.0,0.0,0.0,0.0,0.0,0.0,0.0,0.0,0.0,0.0,0.0,0.0,0.0,0.0,0.0,0.0,0.0,0.0,0.0,0.0,0.0,0.0,0.0,0.0,-4.8558,-4.8558,-4.8341,-4.7992,-4.9291,-4.9643,-4.9254,-4.8504,-4.7004,-4.5016,-4.4288,-4.3175,-4.1905,-4.1905,-4.1566,-4.0949,-4.0949,-4.11,-4.1275,0.0,0.0,0.0,0.0,0.0,0.0,0.0,0.0,0.0,0.0,-1.3782,-1.3685,0.0,0.0,0.0,0.0,0.0,0.0,0.0,0.0,-1.9474,-2.0899,-2.1602,-2.2985,-2.5194,-2.5646,-2.5614,-2.513,-2.6063,-2.6769,-2.7278,-2.9038,-3.0122,-3.0702,-3.1703,-3.1854,-3.1347,-3.0773,-3.0256,-2.9804,-2.9804,-2.9804,-2.9804,-2.9804,0.0,0.0,0.0,0.0,0.0,0.0,0.0,0.0,-3.3945,-3.461,-3.5392,-3.5457,-3.507,-3.4893,-3.6207,-3.7075,-3.8571,-4.2572,-4.6322,0.0,-5.5299,-5.8321,-6.0416,-6.1583,0.0,0.0,0.0,0.0,0.0,0.0,0.0,0.0,0.0,0.0,0.0,0.0,0.0,0.0,0.0,0.0,0.0,0.0,0.0,0.0,0.0,0.0,0.0,0.0,0.0,0.0,0.0,0.0,0.0,0.0,-4.7117,-4.6111,-4.4525,-4.7503,-4.8834,-4.8654,-4.679,-4.4288,-4.1591,-4.1468,-4.0743,-3.9697,-3.9697,-3.9998,-4.045,-4.045,-4.0752,-4.1125,0.0,0.0,0.0,0.0,0.0,0.0,0.0,0.0,0.0,0.0,0.0,0.0,0.0,0.0,0.0,0.0,0.0,0.0,0.0,0.0,-2.0731,-2.216,-2.3344,-2.4253,-2.4817,-2.5351,-2.5546,-2.541,-2.6334,-2.6768,-2.67,-2.9027,-3.0481,-3.1092,-3.1422,-3.1425,-3.1185,-3.0329,-2.9905,-2.9804,-2.9804,-2.9804,-2.9804,-2.9804,-2.9804,0.0,0.0,0.0,0.0,0.0,0.0,0.0,-3.3533,-3.4143,-3.4476,-3.5294,-3.54,-3.5579,-3.6866,-3.8093,0.0,-4.4515,-5.0122,-5.5179,-5.7872,-5.9308,-6.0027,0.0,0.0,0.0,0.0,0.0,0.0,0.0,0.0,0.0,0.0,0.0,0.0,0.0,0.0,0.0,0.0,0.0,0.0,0.0,0.0,0.0,0.0,0.0,0.0,0.0,0.0,0.0,-4.8506,-4.7019,-4.6094,0.0,-4.479,-4.4093,-4.3772,-4.5004,-4.527,-4.4697,-4.3272,-4.2239,-4.1492,-4.0516,-3.9929,-3.9697,-3.9697,-3.9772,-3.9873,-3.9873,-3.9948,-4.0049,0.0,0.0,0.0,0.0,0.0,0.0,0.0,0.0,0.0,0.0,0.0,0.0,0.0,0.0,0.0,0.0,0.0,0.0,0.0,0.0,0.0,-2.3512,-2.4534,-2.5375,-2.6045,-2.6628,-2.6945,-2.6895,-2.8337,-2.8754,-2.8218,-2.9566,-3.0698,-3.1604,-3.1705,-3.1443,-3.0881,-3.039,-3.003,-2.9804,-2.9804,-2.9804,-2.9804,-2.9804,-2.9804,0.0,0.0,0.0,0.0,0.0,0.0,0.0,0.0,0.0,-3.4081,-3.461,-3.4896,-3.537,0.0,0.0,0.0,-4.7578,0.0,-5.6615,-5.8261,-5.865,0.0,0.0,0.0,0.0,0.0,0.0,0.0,0.0,0.0,0.0,0.0,0.0,0.0,0.0,0.0,0.0,0.0,0.0,0.0,0.0,0.0,0.0,0.0,0.0,0.0,0.0,0.0,0.0,-4.6888,-4.652,-4.5389,-4.3598,-4.3551,-4.2882,-4.1766,-4.3306,-4.352,-4.2544,-4.1887,-4.1269,-4.0642,-3.9981,-3.9697,-3.9697,-3.9697,-3.9697,-3.9697,-3.9697,-3.9697,-3.9697,0.0,0.0,0.0,0.0,0.0,0.0,0.0,0.0,0.0,0.0,0.0,0.0,0.0,0.0,0.0,0.0,0.0,0.0,0.0,0.0,0.0,-2.476,-2.5455,-2.6371,-2.7635,-2.8351,-2.8763,-2.8935,-3.0734,-3.1457,-3.1108,-3.093,-3.1286,-3.2122,-3.2166,-3.1605,-3.0694,-3.0536,-3.0206,-2.9804,-2.9804,-2.9804,-2.9804,-2.9804,0.0,0.0,0.0,0.0,0.0,0.0,0.0,0.0,0.0,0.0,-3.3602,-3.391,-3.4196,0.0,0.0,-3.929,-4.294,-4.9942,-5.3683,0.0,-5.7184,-5.7094,0.0,0.0,0.0,0.0,0.0,0.0,0.0,0.0,0.0,0.0,0.0,0.0,0.0,0.0,0.0,0.0,0.0,0.0,0.0,0.0,0.0,0.0,0.0,0.0,0.0,0.0,0.0,-4.7377,-4.5734,-4.655,-4.5252,-4.1936,-4.2544,-4.1739,-3.98,-4.1887,-4.2252,-4.1269,-4.1269,-4.0642,-3.9697,-3.9697,-3.9697,-3.9697,-3.9697,-3.9697,-3.9697,-3.9697,-3.9697,-3.9697,0.0,0.0,0.0,0.0,0.0,0.0,0.0,0.0,0.0,0.0,-1.8323,-1.8509,0.0,0.0,0.0,0.0,0.0,0.0,0.0,0.0,0.0,-2.5347,-2.6081,-2.7067,-2.8332,-2.9076,-2.9998,-3.1109,-3.2013,-3.3525,-3.5582,-3.4118,-3.3094,-3.2508,-3.2148,-3.1677,-3.1075,-3.0241,-2.9854,-2.9804,-2.9804,-2.9804,-2.9804,-2.9804,0.0,0.0,0.0,0.0,0.0,0.0,0.0,0.0,0.0,0.0,0.0,0.0,0.0,0.0,0.0,0.0,-4.5454,0.0,-5.1648,-5.3773,0.0,0.0,0.0,0.0,0.0,0.0,0.0,0.0,0.0,0.0,0.0,0.0,0.0,0.0,0.0,0.0,0.0,0.0,0.0,0.0,0.0,0.0,0.0,0.0,0.0,0.0,-4.7519,-4.7429,-4.7429,0.0,-4.7062,-4.6121,-4.484,-4.3218,-4.1169,-4.0032,-3.9697,-4.0032,-4.0134,-3.9929,-3.9929,-3.9826,-3.9697,-3.9697,-3.9697,-3.9697,-3.9697,-3.9697,-3.9697,-3.9697,-3.9697,-3.9697,0.0,0.0,0.0,0.0,0.0,0.0,0.0,0.0,0.0,0.0,0.0,-2.0269,0.0,0.0,0.0,0.0,0.0,0.0,0.0,0.0,0.0,-2.6659,-2.6986,-2.793,-2.9588,-3.0734,-3.1725,-3.2615,-3.3762,-3.5026,-3.6508,-3.644,-3.5944,-3.4986,-3.3409,-3.2337,-3.1668,-3.0343,-2.9804,-2.9804,-2.9804,-2.9603,-2.9352,0.0,0.0,0.0,0.0,0.0,0.0,0.0,0.0,0.0,0.0,0.0,0.0,0.0,0.0,0.0,-3.7699,-4.1025,-4.4417,0.0,-4.9853,-5.1798,-5.2845,0.0,0.0,0.0,0.0,0.0,0.0,0.0,0.0,0.0,0.0,0.0,0.0,0.0,0.0,0.0,0.0,0.0,0.0,0.0,0.0,0.0,0.0,0.0,0.0,-4.7459,-4.7309,-4.7309,-4.7309,0.0,-4.6255,-4.6388,-4.5434,-4.3504,-4.164,-4.0415,-3.9697,-3.9697,-3.9697,-3.9697,-3.9697,-3.9697,-3.9697,-3.9697,-3.9697,-3.9697,-3.9697,-3.9697,-3.9697,-3.9697,-3.9697,-3.9697,0.0,0.0,0.0,0.0,0.0,0.0,0.0,0.0,0.0,0.0,0.0,0.0,0.0,0.0,0.0,0.0,0.0,0.0,0.0,0.0,0.0,-2.778,-2.7991,-2.8859,-3.045,-3.1878,-3.2886,-3.3515,-3.5104,-3.6352,-3.7282,-3.8446,-3.8817,-3.8489,-3.5857,-3.4224,-3.3301,-3.1677,-3.1125,-3.1203,-3.052,0.0,0.0,0.0,0.0,0.0,0.0,0.0,0.0,0.0,0.0,0.0,0.0,0.0,0.0,0.0,0.0,0.0,0.0,0.0,-4.2111,-4.5065,-4.7279,-4.9089,0.0,0.0,0.0,0.0,0.0,0.0,0.0,0.0,0.0,0.0,0.0,0.0,0.0,0.0,0.0,0.0,0.0,0.0,0.0,0.0,0.0,0.0,0.0,0.0,-4.7309,-4.716,-4.713,-4.7309,-4.713,-4.6577,-4.5636,-4.5903,-4.5063,-4.2978,-4.1739,-4.0515,-3.9496,-3.9496,-3.9396,-3.927,-3.9572,-3.9697,-3.9697,-3.9697,-3.9697,-3.9697,-3.9697,-3.9697,-3.9697,-3.9697,-3.9697,-3.9697,0.0,0.0,0.0,0.0,0.0,0.0,0.0,0.0,0.0,0.0,0.0,0.0,0.0,0.0,-2.5438,-2.6074,0.0,0.0,0.0,0.0,0.0,-2.8336,-2.9089,0.0,-3.0494,-3.1861,-3.2886,-3.3515,-3.5605,-3.7561,-3.9344,-4.0142,-4.1407,-4.2882,-3.9964,-3.7967,-3.6638,-3.5022,-3.473,-3.5072,0.0,0.0,0.0,0.0,0.0,0.0,0.0,0.0,0.0,0.0,0.0,0.0,0.0,0.0,0.0,0.0,0.0,0.0,0.0,-3.6899,0.0,-4.1175,-4.318,0.0,0.0,0.0,0.0,0.0,0.0,0.0,0.0,0.0,0.0,0.0,0.0,0.0,0.0,0.0,0.0,0.0,0.0,0.0,0.0,0.0,0.0,0.0,0.0,0.0,-4.7309,-4.6711,-4.6651,-4.7279,-4.6711,-4.6339,-4.6224,-4.3913,-4.2433,-4.169,-4.0415,-3.9523,-3.8969,-3.8969,-3.8617,-3.814,-3.922,-3.9697,-3.9697,-3.9697,-3.9697,-3.9697,-3.9697,-3.9697,-3.9697,-3.9697,-3.9697,-3.9697,0.0,0.0,0.0,0.0,0.0,0.0,0.0,0.0,0.0,0.0,0.0,0.0,0.0,-2.5347,-2.616,-2.6354,-2.7371,0.0,0.0,0.0,0.0,-2.918,-2.9456,-3.0095,-3.1181,-3.1685,-3.2691,-3.4197,-3.5454,-3.7058,-3.8998,-3.9658,-4.0505,-4.1498,-3.9312,-3.835,-3.8072,-3.475,0.0,0.0,0.0,0.0,0.0,0.0,0.0,0.0,0.0,0.0,0.0,0.0,0.0,0.0,0.0,0.0,0.0,0.0,0.0,0.0,0.0,0.0,0.0,-3.9444,-4.1594,0.0,0.0,0.0,0.0,0.0,0.0,0.0,0.0,0.0,0.0,0.0,0.0,0.0,0.0,0.0,0.0,0.0,0.0,0.0,0.0,0.0,0.0,0.0,0.0,0.0,-4.6022,-4.5783,-4.5416,-4.4937,-4.4703,-4.4211,-4.3408,-4.2485,-4.154,-4.0504,-4.0047,-3.9285,-3.8316,-3.8316,-3.8191,-3.804,-3.8442,-3.8617,-3.8642,-3.9019,-3.917,-3.9195,-3.9546,-3.9697,-3.9697,-3.9697,-3.9697,-3.9697,0.0,0.0,0.0,0.0,0.0,0.0,0.0,0.0,0.0,0.0,0.0,0.0,0.0,0.0,-2.7484,-2.7484,-2.8885,-2.9578,-2.914,-2.9972,-3.0432,-3.0253,-3.0253,-3.0654,-3.1542,-3.1813,-3.2714,-3.4244,-3.5221,-3.6734,-3.8701,-3.9365,-4.0224,-4.1205,-3.9113,-3.8797,-3.9613,0.0,0.0,-3.5752,0.0,0.0,-3.3671,0.0,0.0,0.0,0.0,0.0,0.0,0.0,0.0,0.0,0.0,0.0,0.0,0.0,0.0,0.0,-3.327,0.0,0.0,0.0,0.0,0.0,0.0,0.0,0.0,0.0,0.0,0.0,0.0,0.0,0.0,0.0,0.0,0.0,0.0,0.0,0.0,0.0,0.0,0.0,0.0,0.0,0.0,0.0,0.0,0.0,-4.5304,-4.4703,-4.3842,-4.2693,-4.2649,-4.2205,-4.1196,-4.0959,-4.0314,-3.9228,-3.9228,-3.8717,-3.7739,-3.7739,-3.7638,-3.7462,-3.7462,-3.7663,-3.804,-3.8417,-3.8567,-3.8642,-3.9195,-3.9421,-3.9446,-3.9622,-3.9697,-3.9697,0.0,0.0,0.0,0.0,0.0,0.0,0.0,0.0,0.0,0.0,0.0,0.0,0.0,0.0,0.0,-2.9711,-3.0253,-3.0582,-3.0582,-3.0582,-3.0881,-3.1511,0.0,0.0,-3.1511,-3.2216,-3.2949,-3.3598,-3.5052,-3.6781,-3.869,-3.9439,-4.0802,-4.2482,-3.9838,-3.9646,-4.1324,0.0,-4.1512,-4.0127,0.0,-3.6896,-3.7494,0.0,0.0,0.0,-3.8153,-3.6969,0.0,0.0,0.0,0.0,0.0,0.0,0.0,0.0,0.0,0.0,0.0,0.0,0.0,0.0,0.0,0.0,0.0,0.0,0.0,0.0,0.0,0.0,0.0,0.0,0.0,0.0,0.0,0.0,0.0,0.0,0.0,0.0,0.0,0.0,0.0,0.0,0.0,0.0,0.0,-4.5244,-4.5244,-4.3491,-4.1967,-4.0758,-4.0669,-4.0386,-3.9817,-3.9122,-3.8562,-3.7965,-3.7965,-3.7688,-3.7161,-3.7161,-3.686,-3.6405,-3.6405,-3.696,-3.7965,-3.7965,-3.799,-3.804,-3.8642,-3.8919,-3.8944,-3.9496,-3.9697,-3.9697,0.0,0.0,0.0,0.0,0.0,0.0,0.0,0.0,0.0,0.0,0.0,0.0,-2.8857,-3.057,-3.1898,-3.2377,-3.2557,-3.2677,-3.2677,-3.2677,-3.2557,-3.2228,-3.175,-3.1511,-3.1511,-3.2272,-3.2971,-3.3598,-3.6149,-3.7642,-3.8129,-3.8838,-3.9682,-4.0546,-3.9713,-3.928,-3.914,-3.7913,0.0,-3.9499,-3.7345,-3.7734,0.0,0.0,0.0,0.0,0.0,-3.7853,0.0,0.0,-3.475,-3.3145,0.0,0.0,0.0,0.0,0.0,0.0,-3.1007,0.0,0.0,0.0,0.0,0.0,0.0,0.0,0.0,0.0,0.0,0.0,0.0,0.0,0.0,0.0,0.0,0.0,0.0,0.0,0.0,0.0,0.0,0.0,0.0,0.0,0.0,0.0,0.0,-4.3828,-4.3828,-4.1793,-4.0062,-3.8863,-3.805,-3.7552,-3.7402,-3.7202,-3.7013,-3.6857,-3.6857,-3.6782,-3.6631,-3.6631,-3.6556,-3.6405,-3.6405,-3.6581,-3.6883,-3.7236,-3.7412,-3.7513,-3.8492,-3.8919,-3.8944,-3.9496,-3.9697,-3.9697,0.0,0.0,0.0,0.0,0.0,0.0,0.0,0.0,0.0,0.0,0.0,0.0,-3.1599,-3.2886,-3.3694,-3.3514,-3.3484,-3.3484,-3.3484,-3.3484,-3.3335,-3.2946,-3.2557,-3.2495,-3.2815,-3.3298,-3.3981,-3.4955,-3.6638,-3.7803,-3.8396,-3.8773,-3.9133,-3.9421,0.0,0.0,0.0,0.0,0.0,0.0,-3.8661,0.0,0.0,-4.0127,-4.0636,0.0,0.0,0.0,-3.9953,-3.8376,-3.6409,0.0,0.0,0.0,0.0,0.0,0.0,0.0,0.0,0.0,0.0,0.0,0.0,0.0,0.0,-3.6645,0.0,0.0,0.0,0.0,0.0,0.0,0.0,0.0,0.0,0.0,0.0,0.0,0.0,0.0,0.0,0.0,0.0,0.0,0.0,0.0,-4.3499,-4.286,-4.1906,-4.0618,-3.9139,-3.7448,-3.6756,-3.6405,-3.6405,-3.6405,-3.6279,-3.6031,-3.6304,-3.6279,-3.6031,-3.6304,-3.6405,-3.6405,-3.6405,-3.6405,-3.643,-3.6757,-3.6883,-3.6935,-3.7814,-3.8316,-3.8567,-3.9145,-3.9496,-3.9697,0.0,0.0,0.0,0.0,0.0,0.0,0.0,0.0,0.0,0.0,-3.4375,-3.4654,-3.529,-3.5674,0.0,0.0,-3.3814,-3.3724,-3.3724,-3.3724,-3.3694,-3.3604,-3.3604,-3.394,-3.4705,-3.4854,-3.5554,-3.681,-3.7051,-3.7811,-3.9005,-3.8999,-3.8897,-3.8745,0.0,0.0,0.0,0.0,0.0,-3.8542,-4.0427,-4.1782,0.0,0.0,-4.4646,0.0,-4.4616,-4.4047,-4.3081,-4.0324,-3.731,0.0,0.0,0.0,0.0,0.0,-3.0771,0.0,0.0,0.0,0.0,0.0,0.0,0.0,-3.3802,-3.4036,-3.4395,0.0,0.0,0.0,0.0,0.0,0.0,0.0,0.0,0.0,0.0,0.0,0.0,0.0,0.0,0.0,0.0,0.0,0.0,-4.323,-4.32,-4.2216,-4.0015,-3.983,-3.8747,-3.6351,-3.6254,-3.6229,-3.6229,-3.6279,-3.5981,-3.5408,-3.6006,-3.6006,-3.5508,-3.6056,-3.6355,-3.6405,-3.6405,-3.6405,-3.6405,-3.6405,-3.6405,-3.6455,-3.696,-3.7487,-3.799,-3.8642,-3.917,-3.9622,0.0,0.0,0.0,0.0,0.0,0.0,0.0,0.0,0.0,0.0,-3.852,-3.9046,-3.9556,-3.8769,0.0,0.0,-3.5699,-3.51,-3.51,-3.51,-3.4861,-3.4354,-3.4324,-3.4424,-3.4676,-3.5805,-3.6496,-3.681,-3.8572,-3.9311,-3.9005,-3.8954,-3.8586,-3.7962,-3.7203,0.0,0.0,0.0,0.0,-3.8482,-3.9409,0.0,-4.3898,-4.3589,-4.4257,-4.5274,-4.5155,-4.5035,-4.4575,0.0,-3.9073,-3.5647,0.0,0.0,0.0,0.0,0.0,0.0,0.0,0.0,0.0,0.0,0.0,0.0,-3.3829,-3.4376,-3.5056,0.0,0.0,0.0,0.0,0.0,0.0,0.0,0.0,0.0,0.0,0.0,0.0,0.0,0.0,0.0,0.0,0.0,-4.2171,-4.256,-4.259,-4.1789,-4.0015,-3.9459,-3.8101,-3.5751,-3.5278,-3.5052,-3.5052,-3.5433,-3.5382,-3.4831,-3.5382,-3.5608,-3.5508,-3.5608,-3.5956,-3.6405,-3.6405,-3.6405,-3.6405,-3.6405,-3.6405,-3.6455,-3.696,-3.7236,-3.7462,-3.8542,-3.8994,-3.9094,0.0,0.0,0.0,0.0,0.0,0.0,0.0,0.0,0.0,-4.1586,-4.2993,-4.3555,-4.2752,0.0,0.0,0.0,0.0,0.0,0.0,-3.5519,-3.534,-3.5011,-3.4981,-3.5212,-3.5639,-3.6334,-3.6915,-3.7286,-3.8791,-3.9306,-3.8972,-3.8937,-3.8497,-3.7764,-3.6964,0.0,0.0,0.0,-3.7315,-3.8093,-4.0427,0.0,-4.4377,-4.5065,-4.5723,-4.6292,-4.6292,-4.5873,-4.4945,-4.268,-4.0464,0.0,0.0,-3.5559,-3.4667,0.0,-3.3493,-3.3016,0.0,0.0,0.0,-3.261,0.0,0.0,0.0,-3.3092,-3.3476,0.0,0.0,0.0,0.0,0.0,0.0,0.0,0.0,0.0,0.0,0.0,0.0,0.0,0.0,0.0,0.0,0.0,-4.0479,-4.0577,-4.093,-4.0239,-3.8331,-3.7903,-3.6946,-3.5173,-3.4831,-3.468,-3.468,-3.4956,-3.4806,-3.4324,-3.4831,-3.4956,-3.4705,-3.5257,-3.5658,-3.5981,-3.6279,-3.6405,-3.6405,-3.6405,-3.6405,-3.643,-3.6707,-3.7111,-3.7663,-3.8241,-3.8793,-3.932,0.0,0.0,0.0,0.0,0.0,0.0,0.0,0.0,0.0,-4.4716,-4.6817,-4.7405,0.0,0.0,0.0,0.0,0.0,0.0,0.0,0.0,-3.5591,-3.531,-3.5429,-3.5785,-3.6383,-3.6538,-3.6994,-3.7793,-3.8525,-3.8908,-3.8908,-3.8745,-3.8442,-3.7962,-3.6873,0.0,0.0,0.0,0.0,-3.8661,0.0,-4.3469,-4.3988,-4.6112,-4.692,-4.695,-4.7219,-4.6441,-4.4975,-4.2851,0.0,-4.0943,-3.8272,-3.7364,0.0,0.0,0.0,0.0,0.0,0.0,0.0,0.0,0.0,-3.1853,0.0,0.0,0.0,-3.2137,0.0,0.0,0.0,0.0,0.0,0.0,0.0,0.0,0.0,0.0,0.0,0.0,0.0,0.0,0.0,0.0,-3.901,-3.8476,-3.9034,-3.8492,-3.6422,-3.6363,-3.5757,-3.455,-3.4449,-3.4399,-3.4399,-3.45,-3.4299,-3.3746,-3.4299,-3.4324,-3.3922,-3.4781,-3.5307,-3.5533,-3.6006,-3.6304,-3.6405,-3.6405,-3.6405,-3.6405,-3.6405,-3.696,-3.7864,-3.7965,-3.8668,-3.9546,-3.666,-3.6626,0.0,0.0,0.0,0.0,0.0,0.0,0.0,-4.6143,-4.8483,0.0,0.0,0.0,0.0,0.0,0.0,0.0,-4.1375,0.0,-3.5921,-3.4685,-3.519,-3.5574,-3.5732,-3.629,-3.6994,-3.7793,-3.8525,-3.8908,-3.8881,-3.8218,-3.8218,-3.869,-3.6569,0.0,0.0,0.0,-3.905,0.0,-4.291,-4.2671,0.0,-4.4556,-4.5514,-4.5693,-4.689,-4.6441,-4.5244,0.0,-4.3299,-4.1324,0.0,-3.9672,0.0,0.0,0.0,0.0,0.0,0.0,0.0,0.0,-3.4386,0.0,0.0,0.0,-3.2081,-3.2439,0.0,0.0,0.0,0.0,0.0,0.0,0.0,0.0,0.0,0.0,0.0,0.0,0.0,0.0,0.0,0.0,0.0,-3.7242,-3.7737,-3.7344,-3.5812,-3.5711,-3.5184,-3.4042,-3.352,-3.3269,-3.3269,-3.3746,-3.3721,-3.3212,-3.3721,-3.3947,-3.3897,-3.4022,-3.4625,-3.5508,-3.5558,-3.5906,-3.6405,-3.6405,-3.6405,-3.6405,-3.6405,-3.6782,-3.7337,-3.7814,-3.8417,-3.9044,-3.7483,-3.7449,0.0,0.0,0.0,0.0,0.0,0.0,0.0,-4.8545,0.0,0.0,0.0,0.0,0.0,0.0,0.0,-4.4366,0.0,0.0,0.0,-3.6993,-3.6021,-3.5711,-3.6095,-3.6035,-3.6352,-3.7084,-3.7876,-3.8469,-3.8881,-3.8133,-3.8189,-3.8827,-3.6964,0.0,-3.8778,0.0,-3.952,0.0,0.0,0.0,0.0,-4.5155,-4.6471,-4.6531,-4.71,-4.6441,-4.5185,0.0,-4.3449,0.0,0.0,0.0,0.0,0.0,0.0,0.0,0.0,0.0,0.0,0.0,0.0,0.0,0.0,0.0,-3.1569,0.0,0.0,0.0,0.0,0.0,0.0,0.0,0.0,0.0,0.0,0.0,0.0,0.0,0.0,0.0,0.0,0.0,0.0,0.0,0.0,-3.5068,-3.324,-3.345,-3.3556,-3.3463,-3.3194,-3.3111,-3.3111,-3.3294,-3.3294,-3.3111,-3.3319,-3.342,-3.3445,-3.4098,-3.4625,-3.5056,-3.5755,-3.6157,-3.6405,-3.6405,-3.6405,-3.6405,-3.6405,-3.6933,-3.7688,-3.7914,-3.8567,-3.9371,-3.8497,0.0,0.0,0.0,0.0,0.0,0.0,0.0,0.0,0.0,0.0,0.0,-5.6528,-5.6122,0.0,0.0,-5.2294,-4.926,0.0,0.0,-4.0671,0.0,0.0,0.0,0.0,-3.6028,-3.615,-3.6878,-3.7476,-3.8161,-3.8881,-3.8358,-3.8497,-3.9183,0.0,-3.8486,-4.0075,0.0,0.0,-4.1736,-4.2765,-4.3129,-4.3269,-4.5813,-4.698,-4.7309,-4.7309,-4.6561,-4.5394,-4.4287,-4.3778,0.0,-4.1107,0.0,0.0,0.0,0.0,0.0,-3.9469,0.0,0.0,0.0,0.0,0.0,0.0,0.0,0.0,0.0,0.0,0.0,0.0,0.0,0.0,0.0,0.0,0.0,0.0,0.0,0.0,0.0,0.0,0.0,0.0,0.0,0.0,0.0,-3.3052,0.0,-3.1388,-3.1861,-3.2416,-3.2817,-3.2993,-3.3111,-3.3111,-3.3111,-3.3111,-3.3111,-3.3111,-3.3169,-3.3345,-3.4123,-3.463,-3.4956,-3.578,-3.6279,-3.6405,-3.6405,-3.6405,-3.6405,-3.6405,-3.7036,-3.8015,-3.8015,-3.8718,-3.9697,-4.0045,-3.9445,0.0,0.0,0.0,0.0,0.0,0.0,0.0,0.0,0.0,0.0,0.0,0.0,0.0,0.0,0.0,-5.4791,-5.3141,0.0,-4.3488,0.0,0.0,-3.7947,0.0,0.0,-3.6816,-3.756,-3.7729,-3.8161,-3.8908,-3.8881,-3.9289,-4.0045,-3.9931,-4.1063,-4.2949,-4.2784,-4.4161,-4.6391,-4.5535,-4.5963,-4.698,0.0,-4.6172,-4.7309,-4.7309,0.0,0.0,-4.5484,-4.4796,0.0,0.0,0.0,0.0,0.0,0.0,0.0,0.0,0.0,0.0,0.0,0.0,0.0,0.0,0.0,-3.1115,0.0,0.0,0.0,0.0,0.0,0.0,0.0,0.0,0.0,0.0,0.0,0.0,0.0,0.0,0.0,0.0,0.0,0.0,0.0,-3.2367,0.0,-3.106,-3.1796,-3.2215,-3.224,-3.2792,-3.3111,-3.3111,-3.3111,-3.3111,-3.3111,-3.3111,-3.3345,-3.3872,-3.3897,-3.45,-3.5483,-3.5508,-3.5881,-3.6405,-3.6405,-3.6405,-3.6405,-3.6405,-3.7036,-3.8015,-3.8015,-3.8718,-3.9697,0.0,0.0,0.0,0.0,0.0,0.0,0.0,-4.7834,0.0,0.0,0.0,0.0,0.0,-6.4478,-6.458,0.0,0.0,-6.0102,-5.6609,-5.2826,0.0,0.0,0.0,-4.0751,0.0,0.0,0.0,0.0,-3.7873,-3.8314,-3.9517,-3.8069,-3.8072,-3.9329,0.0,-4.0596,0.0,0.0,0.0,0.0,0.0,-4.5963,-4.7848,0.0,0.0,-4.7309,-4.7309,-4.6591,0.0,-4.5364,-4.4556,-4.3499,-4.291,-4.2671,-4.2641,-4.247,-4.2821,0.0,0.0,0.0,-4.3409,-3.955,0.0,0.0,0.0,0.0,0.0,0.0,0.0,0.0,0.0,0.0,0.0,0.0,0.0,0.0,0.0,0.0,0.0,0.0,0.0,0.0,0.0,0.0,0.0,-3.0182,-3.0876,-3.0867,0.0,-3.0237,-3.111,-3.219,-3.2416,-3.2692,-3.3111,-3.3111,-3.3111,-3.3093,-3.3445,-3.3721,-3.3922,-3.465,-3.5157,-3.5508,-3.5931,-3.6182,-3.6405,-3.6405,-3.6405,-3.6405,-3.6405,-3.7036,-3.8015,-3.8015,-3.8718,-3.9697,-4.0527,0.0,0.0,0.0,0.0,0.0,0.0,0.0,0.0,0.0,-6.096,0.0,-6.8301,0.0,-6.8132,0.0,-6.7286,-6.4343,-5.9032,-5.6663,0.0,-4.8909,-4.6033,0.0,0.0,0.0,0.0,0.0,0.0,-3.8464,-3.9455,-3.7816,-3.7557,-3.8562,0.0,-4.0571,-4.1118,0.0,-4.4575,0.0,0.0,-4.6052,0.0,0.0,-4.7459,0.0,0.0,-4.6741,-4.5933,-4.5454,-4.4736,-4.3868,-4.297,-4.2851,-4.294,-4.2761,-4.3299,-4.3778,-4.294,-4.3808,0.0,0.0,-3.9732,0.0,0.0,0.0,0.0,0.0,0.0,0.0,0.0,0.0,0.0,0.0,0.0,0.0,0.0,0.0,0.0,0.0,0.0,0.0,0.0,0.0,-3.1095,-2.9563,-3.0077,-3.003,0.0,0.0,-3.0457,-3.1863,-3.2114,-3.2491,-3.3111,-3.3111,-3.3111,-3.3136,-3.3646,-3.3997,-3.4223,-3.5082,-3.5608,-3.5855,-3.6207,-3.6405,-3.6405,-3.6405,-3.6405,-3.6405,-3.6405,-3.7036,-3.8015,-3.8015,-3.8718,-3.9697,0.0,0.0,0.0,0.0,-4.2083,0.0,0.0,0.0,-5.6596,0.0,-6.3193,-6.7151,-7.0229,-7.05,-7.0737,-7.1413,-7.077,0.0,-6.096,-5.9964,0.0,0.0,-4.859,-4.659,-4.3728,0.0,0.0,0.0,0.0,0.0,-3.879,-3.8057,-3.7706,-3.7863,-3.9999,0.0,-4.1055,-4.3684,-4.4836,-4.4932,-4.5856,-4.6279,-4.6429,-4.704,0.0,-4.8147,-4.7489,-4.7249,-4.701,-4.5693,-4.5214,-4.4975,-4.3678,-4.291,-4.256,-4.318,-4.3349,-4.3379,-4.3379,-4.3888,-4.3988,-4.1983,0.0,0.0,0.0,0.0,-3.4931,0.0,0.0,0.0,0.0,0.0,0.0,0.0,0.0,0.0,0.0,0.0,0.0,0.0,0.0,0.0,0.0,-3.0718,-3.0238,-3.0238,-2.9879,0.0,0.0,0.0,0.0,-3.1361,-3.1888,-3.2466,-3.3119,-3.3162,-3.3144,-3.3212,-3.3721,-3.4248,-3.4776,-3.5282,-3.5881,-3.6405,-3.6405,-3.6405,-3.6405,-3.6405,-3.6405,-3.6405,-3.6405,-3.7036,-3.8015,-3.8065,-3.8768,-3.9697,-4.1339,-4.2388,-4.3633,0.0,-4.4282,-4.5399,0.0,0.0,0.0,0.0,-6.7421,-7.1413,-7.554,-7.4965,-7.4153,-7.3781,-7.2597,0.0,0.0,0.0,0.0,-5.7419,-5.4442,-5.1067,-4.7143,-4.5244,0.0,-4.0939,0.0,0.0,-3.8621,-3.6905,-3.666,-3.7716,0.0,0.0,-3.9306,-4.3173,-4.5248,-4.5917,-4.5627,-4.6441,0.0,0.0,-4.698,-4.7489,-4.68,-4.6262,-4.5693,-4.4855,-4.4257,-4.3738,-4.3409,-4.317,-4.321,-4.3868,-4.4407,-4.4796,-4.4796,-4.5633,-4.5933,-4.3449,-4.2693,-4.1765,0.0,0.0,0.0,0.0,0.0,0.0,0.0,0.0,0.0,0.0,0.0,0.0,0.0,0.0,0.0,0.0,0.0,0.0,0.0,0.0,-2.9317,-2.9317,-2.866,0.0,0.0,0.0,0.0,-3.1336,-3.1537,-3.2265,-3.3671,-3.3696,-3.3897,-3.4299,-3.4806,-3.5157,-3.5307,-3.5906,-3.6279,-3.6405,-3.6405,-3.6405,-3.6405,-3.6405,-3.6405,-3.6405,-3.6405,-3.7036,-3.8115,-3.8944,-3.9446,-3.9697,-4.276,0.0,0.0,-4.7564,0.0,0.0,-5.2232,0.0,0.0,-6.4072,-6.8571,0.0,-7.4796,-7.5743,-7.5777,-7.4695,-7.3544,0.0,0.0,0.0,0.0,-6.1365,-5.8308,-5.47,-5.0567,-4.7654,0.0,-4.1422,0.0,0.0,-3.8053,-3.6619,-3.6351,-3.717,0.0,-3.8888,0.0,-4.193,-4.4152,-4.5382,-4.5035,0.0,0.0,-4.6501,-4.6518,-4.68,-4.6112,-4.5633,-4.5185,-4.4526,-4.4077,-4.3678,-4.3379,-4.329,-4.3409,-4.4107,-4.4766,-4.5364,-4.5663,-4.6292,-4.6501,-4.4964,-4.4227,-4.318,-4.0749,-3.9291,-3.7838,0.0,0.0,0.0,0.0,0.0,0.0,0.0,0.0,0.0,0.0,0.0,0.0,0.0,0.0,0.0,0.0,0.0,0.0,0.0,0.0,0.0,0.0,0.0,0.0,0.0,-3.1863,-3.2692,-3.3897,-3.4374,-3.4605,-3.4726,-3.5232,-3.5508,-3.5508,-3.6107,-3.6405,-3.6405,-3.6405,-3.6405,-3.6405,-3.6405,-3.6405,-3.6455,-3.6933,-3.7613,-3.8492,-3.9371,-3.9697,-3.9697,0.0,0.0,0.0,0.0,0.0,0.0,0.0,-5.8693,0.0,-6.4275,0.0,-7.2326,-7.2326,-7.5067,-7.6284,-7.4728,0.0,-7.165,-6.7658,-6.7966,-6.6892,-6.3628,-6.1137,-5.8043,-5.4097,-4.9939,0.0,0.0,0.0,0.0,-3.7404,-3.6866,-3.6596,-3.6656,0.0,0.0,0.0,-4.0606,-4.2521,0.0,-4.4407,-4.4885,-4.5603,-4.6142,-4.6262,-4.6082,-4.5424,-4.5155,-4.5065,-4.4407,-4.4197,-4.4077,-4.3469,-4.329,-4.3409,-4.4107,-4.4706,-4.5304,-4.5992,-4.6202,-4.613,-4.6082,-4.5185,-4.3894,-4.2357,-4.0616,-3.8876,-3.7273,-3.5185,0.0,0.0,0.0,0.0,0.0,0.0,0.0,0.0,0.0,0.0,0.0,0.0,0.0,0.0,0.0,0.0,0.0,0.0,0.0,0.0,0.0,0.0,0.0,-3.2416,0.0,-3.4098,0.0,-3.5332,-3.5052,-3.5408,-3.5608,-3.5633,-3.6132,-3.6405,-3.6405,-3.6405,-3.6405,-3.6405,-3.6405,-3.6455,-3.6631,-3.7613,-3.8366,-3.8944,-3.9496,-3.9697,-3.9697,0.0,0.0,0.0,0.0,0.0,-5.9268,-6.1772,-6.4546,-6.7421,-7.0466,-7.4864,-7.7739,-7.7739,-7.7232,-7.6284,-7.4728,-7.3375,0.0,0.0,0.0,0.0,-6.7287,-6.4674,-6.1567,-5.8007,-5.3032,-4.8769,0.0,0.0,0.0,-3.7404,-3.7285,-3.7255,0.0,0.0,0.0,-4.0098,-4.0995,0.0,-4.4377,-4.4915,-4.5873,-4.692,-4.6501,-4.5963,-4.5394,-4.4736,-4.4496,-4.4377,-4.3678,-4.3469,-4.3439,-4.3319,-4.329,-4.3409,-4.4107,-4.4407,-4.4616,-4.5304,-4.5484,-4.5334,-4.4796,-4.4496,-4.4097,-4.3239,-4.2065,-4.0801,-3.9538,-3.7836,-3.5999,-3.4098,0.0,0.0,0.0,0.0,0.0,0.0,0.0,0.0,0.0,0.0,0.0,0.0,0.0,0.0,0.0,0.0,0.0,0.0,0.0,0.0,0.0,0.0,0.0,0.0,0.0,0.0,-3.6759,-3.6383,-3.6254,-3.6279,-3.6355,-3.6405,-3.6405,-3.6405,-3.6405,-3.6405,-3.6405,-3.6681,-3.7111,-3.7739,-3.8366,-3.8944,-3.9496,-3.9697,-3.9697,0.0,0.0,0.0,0.0,0.0,0.0,0.0,-6.9248,0.0,-7.0737,-7.3578,-7.5337,-7.4559,-7.5574,-7.5676,-7.4153,-7.3037,-7.209,-7.1379,-7.0699,-7.0142,-6.9808,-6.6757,0.0,-6.0533,-5.4643,-4.9957,-4.6531,0.0,0.0,0.0,-3.8093,0.0,-3.7943,0.0,-3.932,0.0,0.0,0.0,-4.4347,-4.4646,-4.5603,-4.6711,-4.6052,-4.5574,-4.5214,-4.4556,-4.4107,-4.3708,-4.3409,-4.329,-4.329,-4.329,-4.329,-4.3349,-4.3678,-4.4047,-4.4377,-4.4706,-4.4796,-4.4796,-4.4825,-4.4317,-4.3768,-4.3798,-4.2661,-4.1462,-4.0873,-3.8913,-3.6506,-3.3983,-3.2114,0.0,0.0,0.0,0.0,0.0,0.0,0.0,0.0,0.0,0.0,0.0,0.0,0.0,0.0,0.0,0.0,0.0,0.0,0.0,0.0,0.0,0.0,0.0,0.0,0.0,-3.6807,-3.6531,-3.6405,-3.6405,-3.6405,-3.6405,-3.6405,-3.6405,-3.6405,-3.6405,-3.6405,-3.6908,-3.7638,-3.7889,-3.8542,-3.932,-3.9597,-3.9697,-3.9697,0.0,-5.575,0.0,0.0,-6.3294,0.0,-6.8571,-7.2124,-7.368,-7.1109,-7.2124,-7.2665,-7.1481,-7.368,-7.4695,-7.3375,-7.2597,-7.1921,-7.1345,-7.1176,-7.1075,-7.1075,-6.7799,-6.4883,-6.2523,-5.6274,-5.1215,0.0,0.0,0.0,0.0,0.0,0.0,0.0,0.0,0.0,0.0,0.0,-4.2372,-4.4526,-4.4676,-4.5454,-4.6441,-4.5603,-4.5304,-4.5185,-4.4377,-4.3738,-4.329,-4.329,-4.329,-4.329,-4.329,-4.329,-4.329,-4.329,-4.3648,-4.4107,-4.4107,-4.4107,-4.4227,-4.4736,-4.4107,-4.3439,-4.3988,-4.3012,-4.1906,-4.1629,-3.9317,-3.6506,-3.3933,-3.2591,0.0,0.0,0.0,0.0,0.0,0.0,0.0,0.0,0.0,0.0,0.0,0.0,0.0,0.0,0.0,0.0,0.0,0.0,0.0,0.0,0.0,0.0,-3.4831,0.0,-3.6908,0.0,-3.6455,-3.6405,-3.6405,-3.6405,-3.6405,-3.6405,-3.6531,-3.6656,-3.6757,-3.6757,-3.7287,-3.8191,-3.8191,-3.8793,-3.9697,-3.9697,-3.9697,-3.9697,0.0,0.0,0.0,0.0,0.0,0.0,0.0,-7.1751,-7.4999,-7.6048,-7.5709,-7.5337,-7.5202,-7.4289,-7.3375,-7.2563,-7.1853,-7.1379,-7.1312,-7.0669,-7.0297,-7.0297,-6.7533,-6.5459,-6.4349,-5.9086,-5.4127,0.0,0.0,0.0,0.0,0.0,0.0,0.0,0.0,0.0,0.0,-4.2372,-4.3928,-4.5244,-4.5873,-4.6561,-4.707,-4.5783,-4.5304,-4.5125,-4.3828,-4.3349,-4.329,-4.329,-4.329,-4.329,-4.329,-4.329,-4.329,-4.329,-4.3349,-4.3379,-4.3379,-4.3379,-4.3409,-4.3469,-4.3379,-4.3319,-4.3379,-4.324,-4.286,-4.1794,-3.9317,-3.6742,-3.49,-3.4073,-3.3169,0.0,0.0,0.0,0.0,0.0,0.0,0.0,0.0,0.0,0.0,0.0,0.0,0.0,0.0,0.0,0.0,0.0,0.0,0.0,0.0,-3.4399,-3.5408,-3.6107,0.0,-3.7111,-3.6656,-3.6405,-3.6405,-3.6405,-3.6405,-3.643,-3.6885,-3.7387,-3.7839,-3.7839,-3.8216,-3.8844,-3.8844,-3.917,-3.9697,-3.9697,-3.9697,-3.9697,0.0,0.0,0.0,0.0,0.0,0.0,0.0,-7.2124,-7.3646,-7.4695,-7.4965,-7.4695,-7.3815,-7.3172,-7.2529,-7.1819,-7.1481,-7.1312,-7.1312,-7.0601,-7.0195,-7.0195,-6.6712,-6.4344,-6.3515,-5.7999,-5.3616,0.0,0.0,0.0,0.0,0.0,0.0,0.0,0.0,-4.0846,-4.1692,-4.2851,-4.4107,-4.5364,-4.6052,-4.6711,-4.716,-4.5813,-4.5304,-4.5125,-4.3768,-4.329,-4.329,-4.329,-4.329,-4.329,-4.329,-4.329,-4.329,-4.329,-4.329,-4.329,-4.329,-4.329,-4.329,-4.329,-4.329,-4.329,-4.329,-4.329,-4.317,-4.271,-4.0633,-3.814,-3.5623,-3.45,-3.3671,0.0,0.0,0.0,0.0,0.0,0.0,0.0,0.0,0.0,0.0,0.0,0.0,0.0,0.0,0.0,0.0,0.0,0.0,-3.1361,0.0,-3.3922,-3.5006,-3.5931,-3.6681,-3.7186,-3.696,-3.7036,-3.7337,-3.7059,-3.6908,-3.6885,-3.7437,-3.7789,-3.8015,-3.8015,-3.8341,-3.8919,-3.8919,-3.922,-3.9697,-3.9697,-3.9697,-3.9697,-6.5459,0.0,-6.5662,0.0,-6.891,-6.962,-7.1751,-7.209,-7.2259,-7.2766,-7.3308,-7.3341,-7.2496,-7.2225,-7.1887,-7.1345,-7.1312,-7.121,-7.1007,-7.0297,-6.9755,-6.9519,-6.5724,0.0,-6.2804,-5.7566,-5.3627,-5.1219,-4.7954,0.0,0.0,0.0,0.0,0.0,-4.1175,-4.1893,-4.301,-4.3629,-4.4676,-4.5933,-4.6411,-4.689,-4.7189,-4.6022,-4.5454,-4.5155,-4.4018,-4.3469,-4.329,-4.329,-4.329,-4.329,-4.329,-4.329,-4.329,-4.329,-4.329,-4.329,-4.329,-4.329,-4.329,-4.329,-4.329,-4.329,-4.329,-4.3021,-4.2589,-4.1906,-4.0788,-3.9074,-3.6294,-3.5152,-3.4525,0.0,0.0,0.0,0.0,0.0,0.0,0.0,0.0,-2.998,-2.9804,0.0,0.0,0.0,0.0,0.0,0.0,0.0,0.0,0.0,0.0,0.0,0.0,0.0,-3.6681,-3.7186,-3.7186,-3.7462,-3.799,-3.7613,-3.7513,-3.7688,-3.809,-3.8341,-3.8492,-3.8492,-3.8743,-3.917,-3.917,-3.9346,-3.9697,-3.9697,-3.9697,-3.9697,-6.7421,-6.7861,-6.8571,-7.0872,-7.1278,-7.1278,-7.1312,-7.1312,-7.1345,-7.1345,-7.1345,-7.1616,-7.2326,-7.1751,-7.1312,-7.1312,-7.1312,-7.1007,-7.0263,-6.9519,-6.8774,0.0,0.0,-6.2945,-6.2793,-5.881,-5.5209,-5.1977,0.0,0.0,-4.329,0.0,0.0,-4.241,-4.3,-4.3618,-4.4317,-4.4975,-4.6052,-4.7279,-4.7279,-4.7309,-4.7249,-4.6561,-4.5903,-4.5214,-4.4556,-4.3858,-4.329,-4.329,-4.329,-4.329,-4.329,-4.329,-4.329,-4.329,-4.329,-4.329,-4.329,-4.329,-4.329,-4.329,-4.329,-4.329,-4.329,-4.2426,-4.0972,-3.8622,-3.9094,-3.9183,-3.6849,-3.638,-3.6028,-3.4876,0.0,0.0,0.0,0.0,0.0,0.0,-3.0281,-3.0382,-2.9854,0.0,0.0,0.0,0.0,0.0,0.0,0.0,0.0,-3.1361,-3.3018,0.0,-3.468,-3.5805,-3.6681,-3.7186,-3.7186,-3.7462,-3.8015,-3.799,-3.8316,-3.8894,-3.8919,-3.917,-3.9672,-3.9672,-3.9672,-3.9697,-3.9697,-3.9697,-3.9697,-3.9697,-3.9697,-3.9697,-7.0094,-7.0229,-7.0466,-7.1176,-7.1312,-7.1312,-7.1312,-7.1312,-7.1312,-7.1312,-7.1312,-7.1413,-7.1616,-7.1447,-7.1312,0.0,-7.1312,-7.121,0.0,-6.9789,-6.8977,-6.8741,-6.5459,-6.2932,-6.1582,-5.8089,-5.4961,-5.2106,0.0,0.0,0.0,-4.3988,-4.3688,-4.3718,-4.4377,-4.5035,-4.5723,-4.6381,-4.692,-4.7309,-4.7309,-4.7309,-4.7189,-4.6052,-4.5484,-4.5155,-4.4007,-4.3469,-4.329,-4.329,-4.3589,-4.3977,-4.3977,-4.3648,-4.329,-4.329,-4.329,-4.329,-4.329,-4.329,-4.329,-4.329,-4.329,-4.313,-4.2316,-4.1253,-4.0015,-3.8424,-3.8424,-3.8225,-3.6662,-3.6056,-3.568,-3.5282,0.0,0.0,0.0,0.0,0.0,0.0,0.0,-2.998,0.0,-2.9804,0.0,0.0,0.0,0.0,0.0,0.0,0.0,0.0,-3.3571,0.0,-3.5232,-3.6759,-3.7563,-3.7739,-3.814,-3.8417,-3.8617,-3.8994,-3.9044,-3.8944,-3.927,-3.9521,-3.9697,-3.9697,-3.9697,-3.9697,-3.9697,-3.9697,-3.9697,-3.9697,-3.9697,-3.9697,-7.1312,-7.1312,-7.1312,-7.1312,-7.1312,-7.1312,-7.1312,-7.1312,-7.1312,-7.1312,-7.1312,-7.1312,-7.1312,-7.1312,0.0,-7.1312,-7.1312,0.0,-7.0906,-6.9789,-6.8977,-6.8673,-6.5846,-6.3269,-6.1078,0.0,0.0,-5.2576,-5.0407,-4.8341,-4.6411,-4.5753,-4.5454,-4.5454,-4.5873,-4.6292,-4.6711,-4.713,-4.7309,-4.7309,-4.7309,-4.7309,-4.7219,-4.6381,-4.5723,-4.5185,-4.4377,-4.3708,-4.329,-4.329,-4.3738,-4.4257,-4.4018,-4.3798,-4.3678,-4.3678,-4.3499,-4.329,-4.329,-4.329,-4.329,-4.329,-4.329,-4.292,-4.1581,-4.0915,-4.0027,-3.8123,-3.7946,-3.7769,-3.6615,-3.6081,-3.578,-3.5533,0.0,0.0,0.0,0.0,0.0,0.0,0.0,0.0,0.0,-3.0357,0.0,0.0,0.0,0.0,0.0,0.0,0.0,-3.2491,-3.4173,0.0,-3.6157,-3.7387,-3.8115,-3.8341,-3.8919,-3.917,-3.9195,-3.9546,-3.9496,-3.9195,-3.9546,-3.9697,-3.9697,-3.9697,-3.9697,-3.9697,-3.9697,-3.9697,-3.9697,-3.9697,-3.9697,-3.9697,-7.1312,-7.1312,0.0,0.0,-7.1312,0.0,-7.1312,-7.1312,-7.1312,-7.1312,-7.1312,-7.1312,-7.1312,-7.1312,-7.1312,-7.1312,0.0,0.0,0.0,-6.9519,-6.8741,-6.7929,-6.5935,0.0,-6.1078,-5.9002,-5.637,-5.3054,-5.0557,-4.9,-4.8327,-4.7638,-4.7309,-4.7309,-4.7309,-4.7309,-4.7309,-4.7309,-4.7309,-4.7309,-4.7309,-4.7309,-4.7309,-4.7249,-4.6471,-4.5364,-4.5304,-4.4496,-4.3439,-4.3439,-4.3858,-4.4347,-4.3648,-4.3898,-4.4377,-4.4287,-4.3768,-4.329,-4.3349,-4.3349,-4.3349,-4.3349,-4.331,-4.2824,-4.1171,-4.1124,-4.0656,-3.7851,-3.768,-3.773,-3.6644,-3.643,-3.6182,-3.5533,-3.46,-3.3495,-3.2315,0.0,0.0,0.0,0.0,0.0,0.0,-3.1361,-3.1813,0.0,0.0,0.0,0.0,0.0,0.0,-3.3169,-3.4826,-3.616,-3.7236,-3.7839,-3.8391,-3.8944,-3.9446,-3.9697,-3.9697,-3.9697,-3.9697,-3.9697,-3.9697,-3.9697,-3.9697,-3.9697,-3.9697,-3.9697,-3.9697,-3.9697,-3.9697,-3.9697,-3.9697,-3.9697,0.0,0.0,-7.1312,-7.1312,-7.1312,-7.1312,-7.1312,-7.1312,-7.1312,-7.1312,-7.1312,-7.1312,-7.1312,-7.1312,-7.1312,-7.1312,-7.1312,-7.1007,-7.0229,-6.9519,-6.8741,-6.7929,-6.548,-6.3171,-6.1046,-5.8075,-5.4927,-5.1678,-5.0062,-4.9239,-4.906,-4.7848,-4.7309,-4.7309,-4.7309,-4.7309,-4.7309,-4.7309,-4.7309,-4.7309,-4.7309,-4.7309,-4.7249,-4.6741,-4.6352,-4.6022,-4.5484,-4.5095,-4.4825,-4.4825,-4.5274,-4.5723,-4.5035,-4.4945,-4.4855,-4.3828,-4.3409,-4.3409,-4.3917,-4.4077,-4.4077,-4.4077,-4.3407,-4.2522,-4.1636,-4.085,-3.9828,-3.8155,-3.7604,-3.7343,-3.7081,-3.6707,-3.6078,-3.5031,-3.4349,-3.3345,-3.1813,0.0,0.0,0.0,-3.1486,-3.1964,-3.2265,-3.224,-3.229,0.0,0.0,0.0,0.0,0.0,-3.4455,-3.4349,-3.6332,-3.7563,-3.7814,-3.8793,-3.9371,-3.9496,-3.9622,-3.9697,-3.9697,-3.9697,-3.9697,-3.9697,-3.9697,-3.9697,-3.9697,-3.9697,-3.9697,-3.9697,-3.9697,-3.9697,-3.9697,-3.9697,-3.9697,-3.9697,-7.1312,-7.1312,-7.1312,-7.1312,-7.1312,-7.1312,-7.1312,-7.1312,-7.1312,-7.1312,-7.1312,-7.1312,-7.1312,-7.1312,-7.1312,-7.1312,-7.1312,-7.1007,-7.0229,-6.9519,-6.8605,-6.7455,-6.5147,-6.2844,-6.055,-5.7918,-5.4974,-5.1678,-5.0661,-4.9853,-4.9299,-4.8536,-4.7878,-4.7309,-4.7309,-4.7309,-4.7309,-4.7309,-4.7309,-4.7309,-4.7309,-4.7309,-4.7279,-4.692,-4.6591,-4.6219,-4.5903,-4.5574,-4.5304,-4.5304,-4.5753,-4.6202,-4.5514,-4.5514,-4.5574,-4.4526,-4.4018,-4.3888,-4.4586,-4.4766,-4.4766,-4.4766,-4.4294,-4.3528,-4.2349,-4.1396,-4.028,-3.8713,-3.7939,-3.7487,-3.7236,-3.6734,-3.5931,-3.4575,-3.3671,-3.2641,-3.1235,-3.1035,0.0,-3.1361,-3.234,-3.3119,-3.342,-3.3847,-3.4022,-3.3847,0.0,0.0,-3.4198,-3.578,-3.6307,-3.5504,-3.7387,-3.8517,-3.8768,-3.9396,-3.9697,-3.9697,-3.9697,-3.9697,-3.9697,-3.9697,-3.9697,-3.9697,-3.9697,-3.9697,-3.9697,-3.9697,-3.9697,-3.9697,-3.9697,-3.9697,-3.9697,-3.9697,-3.9697,-3.9697,-7.1312,-7.1312,-7.1312,-7.1312,-7.1312,-7.1312,-7.1312,-7.1312,-7.1312,-7.1312,-7.1312,-7.1312,-7.1312,-7.121,-7.1053,-7.0838,-7.0737,-7.04,-6.9805,-6.8917,-6.7839,-6.6424,-6.4387,-6.224,-5.996,-5.7653,-5.5044,-5.2067,-5.1379,-5.0511,-4.9449,-4.9269,-4.8506,-4.7459,-4.7369,-4.7309,-4.7309,-4.7309,-4.7309,-4.7309,-4.7309,-4.7309,-4.7309,-4.7309,-4.695,-4.6429,-4.6429,-4.6112,-4.5603,-4.5603,-4.5992,-4.6309,-4.5663,-4.5843,-4.6202,-4.5633,-4.5065,-4.4736,-4.5304,-4.5454,-4.5484,-4.5574,-4.5514,-4.5027,-4.3329,-4.2436,-4.1474,-3.9695,-3.8667,-3.799,-3.7538,-3.6885,-3.5881,-3.4274,-3.3018,-3.1838,-3.0758,0.0,-3.1085,-3.1687,-3.3244,-3.4349,-3.45,-3.5705,-3.6132,-3.5278,-3.6006,0.0,0.0,-3.7337,-3.7713,-3.6807,-3.8265,-3.922,-3.9697,-3.9697,-3.9697,-3.9697,-3.9697,-3.9697,-3.9697,-3.9697,-3.9697,-3.9697,-3.9697,-3.9697,-3.9697,-3.9697,-3.9697,-3.9697,-3.9697,-3.9697,-3.9697,-3.9697,-3.9697,-3.9697,-7.1312,-7.1312,-7.1312,-7.1312,-7.1312,-7.1312,-7.1312,-7.1312,-7.1312,-7.1312,-7.1312,-7.1312,-7.1312,-7.0737,-6.9895,-6.8752,-6.8142,-6.7711,-6.7612,-6.6308,-6.5182,-6.4311,-6.1865,-6.0334,-5.9928,-5.5885,-5.2996,-5.1379,-5.0674,-5.0226,-5.0016,-4.8955,-4.8327,-4.8117,-4.7549,-4.7309,-4.7309,-4.7309,-4.7309,-4.7309,-4.7309,-4.7309,-4.7309,-4.7309,-4.7249,-4.716,-4.716,-4.71,-4.701,-4.701,-4.707,-4.704,-4.6381,-4.6232,-4.6249,-4.6202,-4.6082,-4.598,-4.6142,-4.613,-4.6292,-4.686,-4.6561,-4.5908,-4.5101,-4.4031,-4.2828,-4.1459,-3.9876,-3.8718,-3.8668,-3.7436,-3.5981,-3.4776,-3.3244,-3.1838,0.0,0.0,-3.234,-3.3395,-3.4977,-3.638,-3.7287,-3.7186,-3.7186,-3.7487,-3.7211,-3.7211,-3.7613,-3.8341,-3.8668,-3.8542,-3.9195,-3.9597,-3.9697,-3.9697,-3.9697,-3.9697,-3.9697,-3.9697,-3.9697,-3.9697,-3.9697,-3.9697,-3.9697,-3.9697,-3.9697,-3.9697,-3.9697,-3.9697,-3.9697,-3.9697,-3.9697,-3.9697,-3.9697,-3.9697,-7.1312,-7.1312,-7.1312,-7.1312,-7.1312,-7.1312,-7.1312,-7.1312,-7.1312,-7.1312,-7.1312,-7.1312,-7.1312,-7.1007,-7.0119,-6.8352,-6.6918,-6.5611,-6.454,-6.448,-6.4086,-6.3232,-6.1452,-5.9448,-5.7316,-5.4579,-5.2546,-5.1229,-5.0853,-5.0524,-5.0196,-4.9613,-4.8955,-4.8267,-4.7967,-4.7848,-4.7818,-4.7459,-4.7519,-4.7818,-4.7459,-4.7309,-4.7309,-4.7309,-4.7309,-4.7309,-4.7309,-4.7309,-4.7309,-4.7309,-4.7309,-4.7249,-4.695,-4.686,-4.686,-4.686,-4.686,-4.686,-4.686,-4.686,-4.692,-4.7219,-4.707,-4.6415,-4.4755,-4.3929,-4.293,-4.0995,-3.9906,-3.922,-3.8919,-3.7788,-3.6533,-3.573,-3.3696,0.0,0.0,-3.2566,-3.3194,-3.4625,-3.6232,-3.7563,-3.8391,-3.8241,-3.8191,-3.8467,-3.7939,-3.7864,-3.8442,-3.8718,-3.9019,-3.9295,-3.9572,-3.9697,-3.9697,-3.9697,-3.9697,-3.9697,-3.9697,-3.9697,-3.9697,-3.9697,-3.9697,-3.9697,-3.9697,-3.9697,-3.9697,-3.9697,-3.9697,-3.9697,-3.9697,-3.9697,-3.9697,-3.9697,-3.9697,-3.9697,-7.1312,-7.1312,-7.1312,-7.1312,-7.1312,-7.1312,-7.1312,-7.1007,-7.0928,-7.1267,-7.1007,-7.0961,-7.1267,-7.1142,-7.0083,-6.7695,-6.5934,-6.3943,-6.1659,-6.241,-6.2619,-6.186,-6.0665,-5.8357,-5.4884,-5.3736,-5.2606,-5.1439,-5.1289,-5.096,-5.0405,-5.0255,-4.9703,-4.8716,-4.8416,-4.8297,-4.8237,-4.7578,-4.7608,-4.8027,-4.7519,-4.7309,-4.7309,-4.7309,-4.7309,-4.7309,-4.7309,-4.7309,-4.7309,-4.7309,-4.7309,-4.7309,-4.7309,-4.7309,-4.7309,-4.7309,-4.7309,-4.7309,-4.7309,-4.7309,-4.7222,-4.6931,-4.6887,-4.6255,-4.4022,-4.3266,-4.2496,-4.0567,-3.9929,-3.9572,-3.9145,-3.814,-3.7186,-3.6681,0.0,0.0,0.0,-3.3847,-3.4223,-3.5708,-3.7262,-3.8442,-3.9019,-3.912,-3.912,-3.912,-3.8642,-3.8592,-3.9044,-3.912,-3.9245,-3.9672,-3.9697,-3.9697,-3.9697,-3.9697,-3.9697,-3.9697,-3.9697,-3.9697,-3.9697,-3.9697,-3.9697,-3.9697,-3.9697,-3.9697,-3.9697,-3.9697,-3.9697,-3.9697,-3.9697,-3.9697,-3.9697,-3.9697,-3.9697,-3.9697,-7.1312,-7.1312,-7.1312,-7.1312,-7.1312,-7.1312,-7.1312,-7.0216,-6.9822,-7.1098,-7.017,-6.9855,-7.1176,-7.0703,-6.8961,-6.5706,-6.4656,-6.2814,-5.9566,-5.9429,-5.937,-5.9184,-5.799,-5.6344,-5.428,-5.3552,-5.2845,-5.2127,-5.1498,-5.1199,-5.1139,-5.0465,-5.0136,-4.9986,-4.8835,-4.8297,-4.8237,-4.7578,-4.7339,-4.7369,-4.7339,-4.7309,-4.7309,-4.7309,-4.7309,-4.7309,-4.7309,-4.7309,-4.7309,-4.7309,-4.7309,-4.7309,-4.7309,-4.7309,-4.7309,-4.7309,-4.7309,-4.7309,-4.7309,-4.7309,-4.7019,-4.5824,-4.5553,-4.5161,-4.3834,-4.2593,-4.169,-4.1518,-4.0516,-3.9672,-3.9647,-3.8718,-3.7764,-3.7211,0.0,0.0,-3.465,-3.5031,-3.5734,-3.6935,-3.809,-3.9019,-3.9572,-3.9647,-3.9647,-3.9647,-3.9597,-3.9597,-3.9622,-3.9647,-3.9647,-3.9697,-3.9697,-3.9697,-3.9697,-3.9697,-3.9697,-3.9697,-3.9697,-3.9697,-3.9697,-3.9697,-3.9697,-3.9697,-3.9697,-3.9697,-3.9697,-3.9697,-3.9697,-3.9697,-3.9697,-3.9697,-3.9697,-3.9697,-3.9697,-3.9697,-7.1312,-7.1312,-7.1312,-7.1312,-7.1312,-7.1312,-7.1312,-7.0837,-7.0699,-7.1222,-7.0837,-7.0699,-7.1267,-7.1075,-6.9315,-6.5527,-6.4927,-6.3173,-5.9375,-5.9099,-5.9025,-5.8919,-5.7656,-5.6491,-5.5319,-5.3941,-5.2845,-5.2187,-5.1528,-5.1229,-5.1199,-5.096,-5.0421,-4.9643,-4.9553,-4.9045,-4.8267,-4.8027,-4.7908,-4.7878,-4.7459,-4.7309,-4.7309,-4.7309,-4.7309,-4.7309,-4.7309,-4.7309,-4.7309,-4.7309,-4.7309,-4.7309,-4.7309,-4.7309,-4.7309,-4.7309,-4.7309,-4.7309,-4.7309,-4.7309,-4.6975,-4.5734,-4.5389,-4.4886,-4.2786,-4.1936,-4.1369,-4.0592,-4.0032,-3.9697,-3.9697,-3.9069,-3.8592,-3.8718,0.0,-3.6107,-3.7136,-3.686,-3.6985,-3.809,-3.8919,-3.9471,-3.9672,-3.9697,-3.9697,-3.9697,-3.9697,-3.9697,-3.9697,-3.9697,-3.9697,-3.9697,-3.9697,-3.9697,-3.9697,-3.9697,-3.9697,-3.9697,-3.9697,-3.9697,-3.9697,-3.9697,-3.9697,-3.9697,-3.9697,-3.9697,-3.9697,-3.9697,-3.9697,-3.9697,-3.9697,-3.9697,-3.9697,-3.9697,-3.9697,-3.9697,-7.1312,-7.1312,-7.1312,-7.1312,-7.1312,-7.1312,-7.1312,-7.0928,-7.0791,-7.1267,-7.0916,-7.0791,-7.1267,-7.0882,-6.9163,-6.5509,-6.4784,-6.2996,-5.9351,-5.871,-5.8444,-5.8318,-5.7101,-5.623,-5.577,-5.408,-5.2965,-5.2516,-5.1648,-5.1229,-5.1229,-5.1229,-5.0631,-4.9583,-4.9986,-4.9613,-4.8596,-4.8596,-4.8596,-4.858,-4.7878,-4.7608,-4.7578,-4.7369,-4.7309,-4.7309,-4.7309,-4.7429,-4.7578,-4.7369,-4.7429,-4.7578,-4.7369,-4.7309,-4.7309,-4.7309,-4.7309,-4.7309,-4.7309,-4.7309,-4.6931,-4.5207,-4.4794,-4.4116,-4.1591,-4.0969,-4.0743,-3.9878,-3.9697,-3.9697,-3.9697,-3.9371,-3.9195,-3.9396,-3.819,-3.7612,-3.8768,-3.8265,-3.8065,-3.9019,-3.9471,-3.9697,-3.9697,-3.9697,-3.9697,-3.9697,-3.9697,-3.9772,-3.9948,-3.9948,-3.9948,-3.9948,-3.9798,-3.9697,-3.9697,-3.9697,-3.9697,-3.9697,-3.9697,-3.9697,-3.9697,-3.9697,-3.9697,-3.9697,-3.9697,-3.9697,-3.9697,-3.9697,-3.9697,-3.9697,-3.9697,-3.9697,-3.9697,-3.9697,-3.9697,-3.9697,-7.1312,-7.1312,-7.1312,-7.1312,-7.1312,-7.1312,-7.1312,-7.009,-6.9727,-7.1098,-7.0043,-6.9727,-7.1098,-7.0043,-6.8111,-6.5411,-6.392,-6.1981,-5.9297,-5.7842,-5.7094,-5.7094,-5.5867,-5.5179,-5.5179,-5.3862,-5.3174,-5.3174,-5.1858,-5.1229,-5.1229,-5.1229,-5.0823,-5.0196,-5.0196,-4.9883,-4.9299,-4.9329,-4.9299,-4.9239,-4.8566,-4.8297,-4.8207,-4.7549,-4.7309,-4.7309,-4.7309,-4.7728,-4.8177,-4.7519,-4.7728,-4.8177,-4.7519,-4.7309,-4.7309,-4.7309,-4.7309,-4.7309,-4.7309,-4.7309,-4.6682,-4.4163,-4.3504,-4.2834,-4.0313,-3.9697,-3.9697,-3.9697,-3.9697,-3.9697,-3.9697,-3.9697,-3.9521,-3.8969,-3.8919,-3.8919,-3.8919,-3.8919,-3.9069,-3.9622,-3.9697,-3.9697,-3.9697,-3.9697,-3.9697,-3.9697,-3.9697,-3.9948,-4.0475,-4.0526,-4.0526,-4.0501,-3.9973,-3.9697,-3.9697,-3.9697,-3.9697,-3.9697,-3.9697,-3.9697,-3.9697,-3.9697,-3.9697,-3.9697,-3.9697,-3.9697,-3.9697,-3.9697,-3.9697,-3.9697,-3.9697,-3.9697,-3.9697,-3.9697,-3.9697,-3.9697,-7.1312,-7.1312,-7.1312,-7.1312,-7.1312,-7.1312,-7.1312,-7.0928,-7.0837,-7.1267,-7.0043,-6.9361,-6.9775,-6.8601,-6.669,-6.3963,-6.3349,-6.1981,-5.9297,-5.8291,-5.7603,-5.7124,-5.5867,-5.5179,-5.5179,-5.4341,-5.3653,-5.3174,-5.2336,-5.1678,-5.1229,-5.1229,-5.0823,-5.0226,-5.0674,-5.0301,-4.9329,-4.9763,-4.9673,-4.9239,-4.8566,-4.8297,-4.8207,-4.7549,-4.7309,-4.7309,-4.7309,-4.7429,-4.7578,-4.7369,-4.7429,-4.7549,-4.7369,-4.7309,-4.7309,-4.7309,-4.7309,-4.7399,-4.7878,-4.7668,-4.6931,-4.5252,-4.484,-4.4163,-4.1591,-4.1019,-4.0897,-4.0383,-3.9973,-3.9823,-4.0199,-3.9948,-3.9647,-3.9471,-3.9446,-3.9446,-3.9446,-3.9446,-3.9521,-3.9672,-3.9697,-3.9697,-3.9697,-4.0049,-4.0275,-4.0275,-4.0626,-4.0752,-4.0526,-4.0526,-4.035,-3.9948,-3.9772,-3.9697,-3.9697,-3.9697,-3.9697,-3.9697,-3.9697,-3.9697,-3.9697,-3.9697,-3.9697,-3.9697,-3.9697,-3.9697,-3.9697,-3.9697,-3.9697,-3.9697,-3.9697,-3.9697,-3.9697,-3.9697,-3.9697,-3.9517,-7.1312,-7.1312,-7.1312,-7.1312,-7.1312,-7.1312,-7.1312,-7.1312,-7.1312,-7.1312,-7.0043,-6.9217,-6.9217,-6.7521,-6.5481,-6.3316,-6.2126,-6.0822,-5.9213,-5.8501,-5.7932,-5.7513,-5.6256,-5.5448,-5.5209,-5.4551,-5.4012,-5.3593,-5.2665,-5.2007,-5.1588,-5.1349,-5.0823,-5.0226,-5.0883,-5.0631,-4.9703,-5.0361,-5.0391,-4.9942,-4.9045,-4.8686,-4.8566,-4.7668,-4.7459,-4.7698,-4.7698,-4.8027,-4.8386,-4.7878,-4.7519,-4.7369,-4.7608,-4.7519,-4.7369,-4.7608,-4.7519,-4.7459,-4.8117,-4.7997,-4.7553,-4.7049,-4.5965,-4.4433,-4.2381,-4.1692,-4.1364,-4.091,-4.0576,-4.045,-4.0777,-4.0576,-4.035,-4.035,-4.035,-4.0275,-4.0049,-4.0023,-3.9948,-3.9722,-3.9898,-4.0023,-4.0023,-4.0526,-4.0852,-4.0852,-4.1354,-4.1505,-4.1178,-4.1153,-4.1003,-4.0676,-4.045,-4.035,-4.035,-4.035,-4.0124,-3.9697,-3.9697,-3.9697,-3.9697,-3.9697,-3.9697,-3.9697,-3.9697,-3.9697,-3.9697,-3.9697,-3.9697,-3.9697,-3.9697,-3.9697,-3.9697,-3.9697,-3.9362,-3.8687,-7.1312,-7.1312,-7.1312,-7.1312,-7.1312,-7.1312,-7.1312,-7.1312,-7.1267,-7.1098,-6.9902,-6.8943,-6.8846,-6.6459,-6.4305,-6.3092,-6.0691,-5.9159,-5.9099,-5.853,-5.8171,-5.8112,-5.6974,-5.6017,-5.5299,-5.464,-5.4281,-5.4221,-5.2995,-5.2306,-5.2187,-5.1588,-5.0913,-5.0315,-5.096,-5.0853,-5.0315,-5.096,-5.1229,-5.1109,-4.9853,-4.9359,-4.9179,-4.7938,-4.7818,-4.8297,-4.8356,-4.9134,-4.9927,-4.8775,-4.7967,-4.7578,-4.8117,-4.7878,-4.7519,-4.8117,-4.7848,-4.7549,-4.8267,-4.8416,-4.8536,-4.9074,-4.6821,-4.4163,-4.2944,-4.206,-4.1462,-4.1404,-4.1326,-4.13,-4.1351,-4.1326,-4.1275,-4.1275,-4.1275,-4.1125,-4.0651,-4.0601,-4.04,-3.9898,-4.0275,-4.0601,-4.0601,-4.1025,-4.1376,-4.1426,-4.1957,-4.2263,-4.2213,-4.2213,-4.2187,-4.2137,-4.1605,-4.1275,-4.1275,-4.1275,-4.0802,-3.9772,-3.9772,-3.9747,-3.9697,-3.9697,-3.9697,-3.9697,-3.9697,-3.9697,-3.9697,-3.9697,-3.9697,-3.9697,-3.9697,-3.9697,-3.9697,-3.9697,-3.8739,-3.7477,-7.1312,-7.1312,-7.1312,-7.1312,-7.1312,-7.1312,-7.1312,-7.1312,-7.0882,-6.9775,-6.8503,-6.7215,-6.6101,-6.4052,-6.266,-6.2359,-6.0846,-5.9668,-5.9129,-5.8979,-5.865,-5.8141,-5.7842,-5.7154,-5.5987,-5.5329,-5.473,-5.4221,-5.3922,-5.3234,-5.2187,-5.2067,-5.1648,-5.102,-5.1169,-5.1139,-5.102,-5.1169,-5.1229,-5.1139,-5.0361,-4.9733,-4.9269,-4.9,-4.864,-4.8356,-4.8865,-4.9224,-4.9434,-4.9209,-4.9,-4.882,-4.8416,-4.8177,-4.8087,-4.8237,-4.8177,-4.8327,-4.9494,-4.9434,-4.8968,-4.8559,-4.7044,-4.5536,-4.482,-4.3688,-4.2656,-4.2099,-4.163,-4.1455,-4.1907,-4.163,-4.1275,-4.1275,-4.1275,-4.125,-4.1125,-4.11,-4.1075,-4.1003,-4.1025,-4.11,-4.11,-4.1656,-4.2158,-4.2585,-4.2735,-4.2665,-4.2238,-4.2213,-4.1957,-4.153,-4.1351,-4.1275,-4.1275,-4.1275,-4.0949,-4.035,-4.035,-4.0124,-3.9697,-3.9697,-3.9697,-3.9697,-3.9697,-3.9697,-3.9697,-3.9697,-3.9697,-3.9697,-3.9697,-3.9697,-3.9697,-3.9697,-3.8739,-3.7186,-7.1312,-7.1312,-7.1312,-7.1312,-7.1312,-7.1312,-7.1312,-7.0745,-7.0043,-6.9313,-6.7419,-6.5941,-6.5165,-6.3295,-6.1822,-6.1194,-6.0206,-5.9458,-5.9129,-5.9099,-5.8949,-5.859,-5.8291,-5.7663,-5.6645,-5.6286,-5.5628,-5.467,-5.4371,-5.3832,-5.3144,-5.2486,-5.2007,-5.1678,-5.1349,-5.1229,-5.1229,-5.1229,-5.1229,-5.1169,-5.0465,-4.9853,-4.9299,-4.9299,-4.909,-4.8835,-4.9494,-4.9733,-4.9733,-4.9733,-4.9523,-4.9239,-4.891,-4.879,-4.879,-4.879,-4.879,-4.8985,-4.9927,-5.0002,-4.9715,-4.964,-4.8105,-4.6256,-4.502,-4.3887,-4.3028,-4.265,-4.2333,-4.2208,-4.2484,-4.2308,-4.2133,-4.2133,-4.2133,-4.2032,-4.1756,-4.1731,-4.163,-4.13,-4.1555,-4.1831,-4.2108,-4.2384,-4.2715,-4.2961,-4.2986,-4.2861,-4.2615,-4.2615,-4.2409,-4.2133,-4.2133,-4.2133,-4.2133,-4.2133,-4.1831,-4.1304,-4.1028,-4.0752,-4.0475,-4.0475,-4.0325,-4.0099,-4.0099,-3.9948,-3.9697,-3.9697,-3.9697,-3.9697,-3.9697,-3.9697,-3.9697,-3.9697,-3.8319,-3.6054,-7.1312,-7.1312,-7.1312,-7.1312,-7.1098,-7.1007,-7.1267,-6.9902,-6.8846,-6.8846,-6.6647,-6.5032,-6.4758,-6.3157,-6.1493,-6.0057,-5.9518,-5.9219,-5.9129,-5.9099,-5.9099,-5.9099,-5.859,-5.7962,-5.7304,-5.7274,-5.6585,-5.5179,-5.476,-5.4371,-5.4012,-5.2905,-5.2247,-5.2007,-5.1468,-5.1229,-5.1229,-5.1229,-5.1229,-5.1169,-5.0584,-5.0002,-4.9479,-4.9553,-4.9569,-4.9523,-5.0182,-5.0375,-5.0375,-5.0375,-5.0032,-4.9629,-4.9509,-4.9434,-4.9434,-4.9434,-4.9434,-4.9583,-5.0196,-5.0375,-5.0448,-5.0768,-4.8964,-4.6624,-4.4705,-4.3627,-4.2986,-4.2986,-4.2986,-4.2986,-4.2986,-4.2986,-4.2986,-4.2986,-4.2986,-4.2811,-4.2414,-4.2363,-4.2133,-4.1681,-4.2032,-4.2539,-4.2936,-4.2986,-4.2986,-4.2986,-4.2986,-4.2986,-4.2986,-4.2986,-4.2986,-4.2986,-4.2986,-4.2986,-4.2986,-4.2986,-4.2816,-4.2338,-4.1831,-4.1476,-4.1275,-4.12,-4.0949,-4.0651,-4.045,-4.0174,-3.9823,-3.9747,-3.9697,-3.9697,-3.9697,-3.9697,-3.9645,-3.9129,-3.737,-3.4847,-7.1312,-7.1312,-7.1312,-7.1312,-7.0309,-6.9902,-7.1098,-6.9121,-6.747,-6.747,-6.6101,-6.4678,-6.3478,-6.2595,-6.1313,-5.9398,-5.9668,-5.9697,-5.9129,-5.9099,-5.9099,-5.9099,-5.9009,-5.865,-5.7992,-5.7992,-5.7064,-5.5179,-5.5658,-5.5029,-5.3324,-5.3144,-5.2456,-5.1349,-5.1259,-5.1229,-5.1229,-5.1229,-5.1229,-5.1199,-5.1109,-5.0644,-5.0136,-5.072,-5.0601,-5.0136,-5.0794,-5.1079,-5.1079,-5.1079,-5.102,-5.084,-5.0226,-5.0076,-5.0076,-5.0076,-5.0076,-5.0196,-5.09,-5.1079,-5.0798,-4.9747,-4.8289,-4.6733,-4.5209,-4.391,-4.2986,-4.2986,-4.2986,-4.2986,-4.2986,-4.2986,-4.2986,-4.2986,-4.2986,-4.2961,-4.2886,-4.2861,-4.2836,-4.276,-4.2811,-4.2886,-4.2961,-4.2986,-4.2986,-4.2986,-4.2986,-4.2986,-4.2986,-4.2986,-4.2986,-4.2986,-4.2986,-4.2986,-4.2986,-4.2986,-4.2936,-4.2861,-4.2785,-4.2258,-4.1275,-4.0852,-4.0852,-4.1125,-4.0224,-4.0023,-4.0375,-3.9898,-3.9697,-3.9697,-3.9697,-3.9697,-3.9362,-3.6834,-3.5617,-3.4847,-7.1312,-7.0666,-7.0123,-7.0123,-6.8976,-6.8306,-6.8927,-6.7317,-6.6048,-6.6048,-6.4813,-6.3732,-6.3194,-6.248,-6.1433,-5.9787,-5.9907,-5.9817,-5.9159,-5.9099,-5.9099,-5.9099,-5.9099,-5.862,-5.7573,-5.7932,-5.7154,-5.5179,-5.5837,-5.5329,-5.3743,-5.3354,-5.2665,-5.1738,-5.1379,-5.1229,-5.1229,-5.1229,-5.1229,-5.1229,-5.1229,-5.0794,-5.0255,-5.0913,-5.0764,-5.0285,-5.0943,-5.1229,-5.1229,-5.1229,-5.1229,-5.1063,-5.0405,-5.0435,-5.0674,-5.0315,-5.0465,-5.0794,-5.1139,-5.1229,-5.1058,-5.046,-4.8688,-4.694,-4.6317,-4.4535,-4.2986,-4.2986,-4.2986,-4.2986,-4.2986,-4.2986,-4.2986,-4.2986,-4.2986,-4.2986,-4.2986,-4.2986,-4.2986,-4.2986,-4.2986,-4.2986,-4.2986,-4.2986,-4.2986,-4.2986,-4.2986,-4.2986,-4.2986,-4.2986,-4.2986,-4.2986,-4.2986,-4.2986,-4.2986,-4.2986,-4.2986,-4.2986,-4.2986,-4.2735,-4.2233,-4.2007,-4.1856,-4.1781,-4.1279,-4.0852,-4.0501,-4.0249,-3.9973,-3.9697,-3.9697,-3.9697,-3.9515,-3.7648,-3.6251,-3.5057]},{"header":{"parameterUnit":"m.s-1","parameterCategory":1,"la1":30.6,"la2":28.766,"lo1":-90.7593,"lo2":-88.6598,"dy":0.0162,"dx":0.0183,"nx":116,"ny":114,"refTime":"2023-03-15T00:00:00:Z","depth":0,"parameterNumber":3,"parameterNumberName":"V-component_of_WINDS"},"data":[0.0,0.0,0.0,0.0,0.0,0.0,0.0,0.0,0.0,0.0,0.0,0.0,0.0,0.0,0.0,0.0,0.0,0.0,0.0,0.0,0.0,0.0,0.0,0.0,0.0,0.0,0.0,0.0,0.0,0.0,0.0,0.0,0.0,0.0,0.0,0.0,0.0,0.0,0.0,0.0,0.0,0.0,0.0,0.0,0.0,0.0,0.0,0.0,0.0,0.0,0.0,0.0,0.0,0.0,0.0,0.0,0.0,0.0,0.0,0.0,0.0,0.0,0.0,0.0,0.0,0.0,0.0,0.0,0.0,0.0,0.0,0.0,0.0,0.0,0.0,0.0,0.0,0.0,0.0,0.0,0.0,0.0,0.0,0.0,0.0,0.0,0.0,0.0,0.0,0.0,0.0,0.0,0.0,0.0,0.0,0.0,0.0,0.0,0.0,0.0,0.0,0.0,0.0,0.0,0.0,0.0,0.0,0.0,0.0,0.0,0.0,0.0,0.0,0.0,0.0,0.0,0.0,0.0,0.0,0.0,0.0,0.0,0.0,0.0,0.0,0.0,0.0,0.0,0.0,0.0,0.0,0.0,0.0,0.0,0.0,0.0,0.0,0.0,0.0,0.0,0.0,0.0,0.0,0.0,0.0,0.0,0.0,0.0,0.0,0.0,0.0,0.0,0.0,0.0,0.0,0.0,0.0,0.0,0.0,0.0,0.0,0.0,0.0,0.0,0.0,0.0,0.0,0.0,0.0,0.0,0.0,0.0,0.0,0.0,0.0,0.0,0.0,0.0,0.0,0.0,0.0,0.0,0.0,0.0,0.0,0.0,0.0,0.0,0.0,0.0,0.0,0.0,0.0,0.0,0.0,0.0,0.0,0.0,0.0,0.0,0.0,0.0,0.0,0.0,0.0,0.0,0.0,0.0,0.0,0.0,0.0,0.0,0.0,0.0,0.0,0.0,0.0,0.0,0.0,0.0,0.0,0.0,0.0,0.0,0.0,0.0,0.0,0.0,0.0,0.0,0.0,0.0,0.0,0.0,0.0,0.0,0.0,0.0,0.0,0.0,0.0,0.0,0.0,0.0,0.0,0.0,0.0,0.0,0.0,0.0,0.0,0.0,0.0,0.0,0.0,0.0,0.0,0.0,0.0,0.0,0.0,0.0,0.0,0.0,0.0,0.0,0.0,0.0,0.0,0.0,0.0,0.0,0.0,0.0,0.0,0.0,0.0,0.0,0.0,0.0,0.0,0.0,0.0,0.0,0.0,0.0,0.0,0.0,0.0,0.0,0.0,0.0,0.0,0.0,0.0,0.0,0.0,0.0,0.0,0.0,0.0,0.0,0.0,0.0,0.0,0.0,0.0,0.0,0.0,0.0,0.0,0.0,0.0,0.0,0.0,0.0,0.0,0.0,0.0,0.0,0.0,0.0,0.0,0.0,0.0,0.0,0.0,0.0,0.0,0.0,0.0,0.0,0.0,0.0,0.0,0.0,0.0,0.0,0.0,0.0,0.0,0.0,0.0,0.0,0.0,0.0,0.0,0.0,0.0,0.0,0.0,0.0,0.0,0.0,0.0,0.0,0.0,0.0,0.0,0.0,0.0,0.0,0.0,0.0,0.0,0.0,0.0,0.0,0.0,0.0,0.0,0.0,0.0,0.0,0.0,0.0,0.0,0.0,0.0,0.0,0.0,0.0,0.0,0.0,0.0,0.0,0.0,0.0,0.0,0.0,0.0,0.0,0.0,0.0,0.0,0.0,0.0,0.0,0.0,0.0,0.0,0.0,0.0,0.0,0.0,0.0,0.0,0.0,0.0,0.0,0.0,0.0,0.0,0.0,0.0,0.0,0.0,0.0,0.0,0.0,0.0,0.0,0.0,0.0,0.0,0.0,0.0,0.0,0.0,0.0,0.0,0.0,0.0,0.0,0.0,0.0,0.0,0.0,0.0,0.0,0.0,0.0,0.0,0.0,0.0,0.0,0.0,0.0,0.0,0.0,0.0,0.0,0.0,0.0,0.0,0.0,0.0,0.0,0.0,0.0,0.0,0.0,0.0,0.0,0.0,0.0,0.0,0.0,0.0,0.0,0.0,0.0,0.0,0.0,0.0,0.0,0.0,0.0,0.0,0.0,0.0,0.0,0.0,0.0,0.0,0.0,0.0,0.0,0.0,0.0,0.0,0.0,0.0,0.0,0.0,0.0,0.0,0.0,0.0,0.0,0.0,0.0,0.0,0.0,0.0,0.0,0.0,0.0,0.0,0.0,0.0,0.0,0.0,0.0,0.0,0.0,0.0,0.0,0.0,0.0,0.0,0.0,0.0,0.0,0.0,0.0,0.0,0.0,0.0,0.0,0.0,0.0,0.0,0.0,0.0,0.0,0.0,0.0,0.0,0.0,0.0,0.0,0.0,0.0,0.0,0.0,0.0,0.0,0.0,0.0,0.0,0.0,0.0,0.0,0.0,0.0,0.0,0.0,0.0,0.0,0.0,0.0,0.0,0.0,0.0,0.0,0.0,0.0,0.0,0.0,0.0,0.0,0.0,0.0,0.0,0.0,0.0,0.0,0.0,0.0,0.0,0.0,0.0,0.0,0.0,0.0,0.0,0.0,0.0,0.0,0.0,0.0,0.0,0.0,0.0,0.0,0.0,0.0,0.0,0.0,0.0,0.0,0.0,0.0,0.0,0.0,0.0,0.0,0.0,0.0,0.0,0.0,0.0,0.0,0.0,0.0,0.0,0.0,0.0,0.0,0.0,0.0,0.0,0.0,0.0,0.0,0.0,0.0,0.0,0.0,0.0,0.0,0.0,0.0,0.0,0.0,0.0,0.0,0.0,0.0,0.0,0.0,0.0,0.0,0.0,0.0,0.0,0.0,0.0,0.0,0.0,0.0,0.0,0.0,0.0,0.0,0.0,0.0,0.0,0.0,0.0,0.0,0.0,0.0,0.0,0.0,0.0,0.0,0.0,0.0,0.0,0.0,0.0,0.0,0.0,0.0,0.0,0.0,0.0,0.0,0.0,0.0,0.0,0.0,0.0,0.0,0.0,0.0,0.0,0.0,0.0,0.0,0.0,0.0,0.0,0.0,0.0,0.0,0.0,0.0,0.0,0.0,0.0,0.0,0.0,0.0,0.0,0.0,0.0,0.0,0.0,0.0,0.0,0.0,0.0,0.0,0.0,0.0,0.0,0.0,0.0,0.0,0.0,0.0,0.0,0.0,0.0,0.0,0.0,0.0,0.0,0.0,0.0,0.0,0.0,0.0,0.0,0.0,0.0,0.0,0.0,0.0,0.0,0.0,0.0,0.0,0.0,0.0,0.0,0.0,0.0,0.0,0.0,0.0,0.0,0.0,0.0,0.0,0.0,0.0,0.0,0.0,0.0,0.0,0.0,0.0,0.0,0.0,0.0,0.0,0.0,0.0,0.0,0.0,0.0,0.0,0.0,0.0,0.0,0.0,0.0,0.0,0.0,0.0,0.0,0.0,0.0,0.0,0.0,0.0,0.0,0.0,0.0,0.0,0.0,0.0,0.0,0.0,0.0,0.0,0.0,0.0,0.0,0.0,0.0,0.0,0.0,0.0,0.0,0.0,0.0,0.0,0.0,0.0,0.0,0.0,0.0,0.0,0.0,0.0,0.0,0.0,0.0,0.0,0.0,0.0,0.0,0.0,0.0,0.0,0.0,0.0,0.0,0.0,0.0,0.0,0.0,0.0,0.0,0.0,0.0,0.0,0.0,0.0,0.0,0.0,0.0,0.0,0.0,0.0,0.0,0.0,0.0,0.0,0.0,0.0,0.0,0.0,0.0,0.0,0.0,0.0,0.0,0.0,0.0,0.0,0.0,0.0,0.0,0.0,0.0,0.0,0.0,0.0,0.0,0.0,0.0,0.0,0.0,0.0,0.0,0.0,0.0,0.0,0.0,0.0,0.0,0.0,0.0,0.0,0.0,0.0,0.0,0.0,0.0,0.0,0.0,0.0,0.0,0.0,0.0,0.0,0.0,0.0,0.0,0.0,0.0,0.0,0.0,0.0,0.0,0.0,0.0,0.0,0.0,0.0,0.0,0.0,0.0,0.0,0.0,0.0,0.0,0.0,0.0,0.0,0.0,0.0,0.0,0.0,0.0,0.0,0.0,0.0,0.0,0.0,0.0,0.0,0.0,0.0,0.0,0.0,0.0,0.0,0.0,0.0,0.0,0.0,0.0,0.0,0.0,0.0,0.0,0.0,0.0,0.0,0.0,0.0,0.0,0.0,0.0,0.0,0.0,0.0,0.0,0.0,0.0,0.0,0.0,0.0,0.0,0.0,0.0,0.0,0.0,0.0,0.0,0.0,0.0,0.0,0.0,0.0,0.0,0.0,0.0,0.0,0.0,0.0,0.0,0.0,0.0,0.0,0.0,0.0,0.0,0.0,0.0,0.0,0.0,0.0,0.0,0.0,0.0,0.0,0.0,0.0,0.0,0.0,0.0,0.0,0.0,0.0,0.0,0.0,0.0,0.0,0.0,0.0,0.0,0.0,0.0,0.0,0.0,0.0,0.0,0.0,0.0,0.0,0.0,0.0,0.0,0.0,0.0,0.0,0.0,0.0,0.0,0.0,0.0,0.0,0.0,0.0,0.0,0.0,0.0,0.0,0.0,0.0,0.0,0.0,0.0,0.0,0.0,0.0,0.0,0.0,0.0,0.0,0.0,0.0,0.0,0.0,0.0,0.0,0.0,0.0,0.0,0.0,0.0,0.0,0.0,0.0,0.0,0.0,0.0,0.0,0.0,0.0,0.0,0.0,0.0,0.0,0.0,0.0,0.0,0.0,0.0,0.0,0.0,0.0,0.0,0.0,0.0,0.0,0.0,0.0,0.0,0.0,0.0,0.0,0.0,0.0,0.0,0.0,0.0,0.0,0.0,0.0,0.0,0.0,0.0,0.0,0.0,0.0,0.0,0.0,0.0,0.0,0.0,0.0,0.0,0.0,0.0,0.0,0.0,0.0,0.0,0.0,0.0,0.0,0.0,0.0,0.0,0.0,0.0,0.0,0.0,0.0,0.0,0.0,0.0,0.0,0.0,0.0,0.0,0.0,0.0,0.0,0.0,0.0,0.0,0.0,0.0,0.0,0.0,0.0,0.0,0.0,0.0,0.0,0.0,0.0,0.0,0.0,0.0,0.0,0.0,0.0,0.0,0.0,0.0,0.0,0.0,0.0,0.0,0.0,0.0,0.0,0.0,0.0,0.0,0.0,0.0,0.0,0.0,0.0,0.0,0.0,0.0,0.0,0.0,0.0,0.0,0.0,0.0,0.0,0.0,0.0,0.0,0.0,0.0,0.0,0.0,0.0,0.0,0.0,0.0,0.0,0.0,0.0,0.0,0.0,0.0,0.0,0.0,0.0,0.0,0.0,0.0,0.0,0.0,0.0,0.0,0.0,0.0,0.0,0.0,0.0,0.0,0.0,0.0,0.0,0.0,0.0,0.0,0.0,0.0,0.0,0.0,0.0,0.0,0.0,0.0,0.0,0.0,0.0,0.0,0.0,0.0,0.0,0.0,0.0,0.0,0.0,0.0,0.0,0.0,0.0,0.0,0.0,0.0,0.0,0.0,0.0,0.0,0.0,0.0,0.0,0.0,0.0,0.0,0.0,0.0,0.0,0.0,0.0,0.0,0.0,0.0,0.0,0.0,0.0,0.0,0.0,0.0,0.0,0.0,0.0,0.0,0.0,0.0,0.0,0.0,0.0,0.0,0.0,0.0,0.0,0.0,0.0,0.0,0.0,0.0,0.0,0.0,0.0,0.0,0.0,0.0,0.0,0.0,0.0,0.0,0.0,0.0,0.0,0.0,0.0,0.0,0.0,0.0,0.0,0.0,0.0,0.0,0.0,0.0,0.0,0.0,0.0,0.0,0.0,0.0,0.0,0.0,0.0,0.0,0.0,0.0,0.0,0.0,0.0,0.0,0.0,0.0,0.0,0.0,0.0,0.0,0.0,0.0,0.0,0.0,0.0,0.0,0.0,0.0,0.0,0.0,0.0,0.0,0.0,0.0,0.0,0.0,0.0,0.0,0.0,0.0,0.0,0.0,0.0,0.0,0.0,0.0,0.0,0.0,0.0,0.0,0.0,3.2052,0.0,0.0,0.0,0.0,0.0,0.0,0.0,0.0,0.0,0.0,0.0,0.0,0.0,0.0,0.0,0.0,0.0,0.0,0.0,0.0,0.0,0.0,0.0,0.0,0.0,0.0,0.0,0.0,0.0,0.0,0.0,0.0,0.0,0.0,0.0,0.0,0.0,0.0,0.0,2.1486,2.1783,2.1938,2.3153,2.4041,2.4689,0.0,0.0,0.0,0.0,0.0,0.0,0.0,0.0,0.0,0.0,0.0,0.0,0.0,0.0,0.0,0.0,0.0,0.0,0.0,0.0,0.0,0.0,0.0,0.0,0.0,0.0,0.0,0.0,0.0,0.0,0.0,0.0,0.0,0.0,0.0,0.0,0.0,0.0,0.0,0.0,0.0,0.0,0.0,0.0,0.0,0.0,0.0,0.0,0.0,0.0,0.0,0.0,0.0,0.0,0.0,0.0,0.0,0.0,0.0,0.0,0.0,0.0,0.0,0.0,0.0,0.0,0.0,0.0,0.0,0.0,0.0,3.352,0.0,0.0,0.0,0.0,0.0,0.0,0.0,0.0,0.0,0.0,0.0,0.0,0.0,0.0,0.0,0.0,0.0,0.0,0.0,0.0,0.0,0.0,0.0,0.0,2.0243,2.0238,2.0157,0.0,0.0,0.0,0.0,0.0,0.0,0.0,0.0,1.9836,2.0735,2.1617,2.1861,2.2542,2.358,2.4251,2.5004,2.581,2.6657,0.0,0.0,0.0,0.0,0.0,0.0,0.0,0.0,0.0,0.0,0.0,0.0,0.0,0.0,0.0,0.0,0.0,0.0,0.0,0.0,0.0,0.0,0.0,0.0,0.0,0.0,0.0,0.0,0.0,0.0,0.0,0.0,0.0,0.0,0.0,0.0,0.0,0.0,0.0,0.0,0.0,0.0,0.0,0.0,0.0,0.0,0.0,0.0,0.0,0.0,0.0,0.0,0.0,0.0,0.0,0.0,0.0,0.0,0.0,0.0,0.0,0.0,0.0,0.0,0.0,3.8899,3.8434,3.8738,3.9473,3.8841,3.7186,3.5089,0.0,0.0,0.0,0.0,0.0,0.0,0.0,0.0,0.0,0.0,0.0,0.0,0.0,0.0,0.0,0.0,0.0,0.0,0.0,0.0,0.0,0.0,2.1972,2.1965,2.1983,2.1536,2.1251,0.0,0.0,0.0,0.0,0.0,0.0,2.017,2.003,2.0381,2.1273,2.2026,2.3442,2.5363,2.5583,2.6087,2.6744,2.5871,2.6665,2.8532,0.0,0.0,0.0,0.0,0.0,0.0,0.0,0.0,0.0,0.0,0.0,0.0,0.0,0.0,0.0,0.0,0.0,0.0,0.0,0.0,0.0,0.0,0.0,0.0,0.0,0.0,0.0,0.0,0.0,0.0,0.0,0.0,0.0,0.0,0.0,0.0,0.0,0.0,0.0,0.0,0.0,2.8245,2.9204,0.0,0.0,0.0,0.0,0.0,0.0,0.0,0.0,0.0,0.0,0.0,0.0,0.0,0.0,3.4793,3.7093,3.798,3.7574,3.955,4.1132,4.2287,4.2682,4.3936,4.5861,4.5293,0.0,3.7685,3.7742,0.0,0.0,0.0,0.0,0.0,0.0,0.0,0.0,0.0,0.0,0.0,0.0,0.0,0.0,0.0,0.0,0.0,0.0,0.0,0.0,0.0,2.3327,2.3702,2.3718,2.4631,2.469,2.3427,0.0,0.0,0.0,0.0,2.1552,2.0524,2.0584,2.1288,2.2676,2.4512,2.5759,2.6443,2.6752,2.7419,2.8216,2.6847,2.7151,2.8696,2.7479,0.0,0.0,0.0,0.0,0.0,0.0,0.0,0.0,0.0,0.0,0.0,0.0,0.0,0.0,0.0,0.0,0.0,0.0,0.0,0.0,0.0,0.0,0.0,0.0,0.0,0.0,0.0,0.0,0.0,0.0,0.0,0.0,0.0,0.0,0.0,0.0,0.0,0.0,0.0,2.8027,2.9137,2.8986,3.0748,3.1486,0.0,0.0,0.0,0.0,0.0,0.0,0.0,0.0,0.0,3.6304,3.7764,3.8768,3.9245,4.148,4.261,4.2685,4.3933,4.5128,4.6236,4.6491,4.7265,4.8521,4.8262,4.6476,4.3539,4.1142,3.9238,3.7647,0.0,0.0,0.0,0.0,0.0,3.7983,0.0,0.0,0.0,0.0,0.0,0.0,0.0,0.0,0.0,0.0,0.0,0.0,2.4249,2.5252,2.6054,2.6631,2.7821,2.7896,2.6355,2.6917,0.0,0.0,2.3109,2.259,2.1134,2.1816,2.3105,2.4941,2.709,2.8164,2.8184,2.8613,2.9277,2.9982,2.8726,2.8603,2.9218,2.7967,2.8306,2.955,0.0,0.0,0.0,0.0,0.0,0.0,0.0,0.0,0.0,0.0,0.0,0.0,0.0,0.0,0.0,0.0,0.0,0.0,0.0,0.0,0.0,0.0,0.0,0.0,0.0,0.0,0.0,0.0,0.0,0.0,0.0,0.0,0.0,0.0,0.0,0.0,0.0,2.9314,3.0287,2.9181,3.1944,3.3111,0.0,0.0,0.0,0.0,0.0,0.0,3.6483,3.7387,3.8793,4.0701,4.2509,4.362,4.3897,4.5773,4.6954,4.738,4.7933,4.8686,4.9615,4.9615,4.9916,5.0444,5.0293,4.9698,4.8532,4.4651,4.1416,3.8868,3.8195,3.8089,0.0,3.7318,3.8227,3.9817,0.0,0.0,0.0,0.0,0.0,0.0,0.0,0.0,0.0,0.0,0.0,2.4933,2.757,2.8336,2.9515,3.1662,3.0532,2.988,3.0306,2.8423,2.6554,2.4902,2.487,2.4111,2.2445,2.4023,2.5967,2.8066,2.9004,3.0098,3.1289,3.1738,3.1994,3.2035,3.1505,3.1154,3.0842,2.8692,2.8774,3.0261,2.9588,0.0,0.0,0.0,0.0,0.0,0.0,0.0,0.0,0.0,0.0,0.0,0.0,0.0,0.0,0.0,0.0,0.0,0.0,0.0,0.0,0.0,0.0,0.0,0.0,0.0,0.0,0.0,0.0,0.0,0.0,0.0,0.0,0.0,0.0,0.0,0.0,0.0,0.0,3.0622,3.3903,0.0,0.0,0.0,0.0,3.6024,3.7059,3.8843,4.1685,4.1886,4.3112,4.5849,4.6552,4.738,4.8435,4.959,5.0193,5.0218,5.0795,5.1373,5.1925,5.1925,5.2226,5.2729,5.2201,5.1691,5.0867,4.7313,4.4891,4.3248,4.1958,4.1144,4.0703,4.0657,4.111,4.1766,0.0,0.0,0.0,0.0,0.0,0.0,0.0,0.0,0.0,2.2995,2.4883,2.7168,2.9905,3.1687,3.3269,3.4751,3.5002,3.455,3.3345,3.1838,3.017,2.8257,2.6689,2.5466,2.4597,2.5996,2.7571,2.9121,3.1094,3.2148,3.2363,3.3066,3.3105,3.2559,3.2402,3.2118,3.1712,2.9885,2.9128,2.9169,2.9031,2.841,0.0,0.0,0.0,0.0,0.0,0.0,0.0,0.0,0.0,0.0,0.0,0.0,0.0,0.0,0.0,0.0,0.0,0.0,0.0,0.0,0.0,0.0,0.0,0.0,0.0,0.0,0.0,0.0,0.0,0.0,0.0,0.0,0.0,0.0,0.0,0.0,0.0,3.5884,3.8718,0.0,0.0,3.799,3.8919,4.005,4.1103,4.2785,4.5221,4.6024,4.7205,4.8912,4.9841,5.0519,5.0921,5.1674,5.2026,5.2026,5.2251,5.2452,5.2628,5.2628,5.2729,5.2929,5.2729,5.2327,5.1699,5.0456,4.8355,4.5722,4.3785,4.3414,4.3858,4.271,4.3127,4.4202,0.0,0.0,0.0,0.0,0.0,0.0,0.0,0.0,2.2447,2.3521,2.5963,2.8674,3.1637,3.4098,3.6081,3.7436,3.7638,3.7111,3.5655,3.3646,3.1723,2.9856,2.7414,2.6103,2.6133,2.7715,2.9219,3.0664,3.2656,3.3574,3.3437,3.4023,3.3984,3.3437,3.3281,3.2988,3.2522,3.1334,3.0172,2.9119,2.8826,2.8821,2.8753,0.0,0.0,0.0,0.0,0.0,0.0,0.0,0.0,0.0,0.0,0.0,0.0,0.0,0.0,0.0,0.0,0.0,0.0,0.0,0.0,0.0,0.0,0.0,0.0,0.0,0.0,0.0,0.0,0.0,0.0,0.0,0.0,0.0,0.0,0.0,3.8672,3.962,4.2635,4.384,4.1831,4.2308,4.3212,4.435,4.5246,4.6652,4.8711,4.949,5.0318,5.1247,5.2,5.2377,5.2377,5.2754,5.2929,5.2929,5.2929,5.2929,5.2929,5.2929,5.2929,5.2929,5.2929,5.2729,5.2352,5.1975,5.0519,4.8335,4.6476,4.6027,4.6263,4.489,4.5145,4.6031,0.0,0.0,0.0,0.0,0.0,0.0,0.0,2.1939,2.2326,2.4474,2.6766,2.9453,3.281,3.5629,3.7939,3.9597,3.8216,3.7211,3.7186,3.3571,3.0858,2.9647,2.7173,2.6241,2.7109,2.918,3.1094,3.2832,3.3691,3.4316,3.4726,3.4726,3.4726,3.4707,3.4297,3.3867,3.3418,3.3008,3.1938,3.0372,2.9289,3.0125,3.1515,0.0,0.0,0.0,0.0,0.0,0.0,0.0,0.0,0.0,0.0,0.0,0.0,0.0,0.0,0.0,0.0,0.0,0.0,0.0,0.0,0.0,0.0,0.0,0.0,0.0,0.0,0.0,0.0,0.0,0.0,0.0,0.0,0.0,3.5583,3.9496,4.2108,4.1601,4.5397,4.6979,4.4317,4.6024,4.7732,4.8786,4.9414,5.0419,5.2051,5.2176,5.2402,5.2904,5.2955,5.2955,5.2929,5.2929,5.2929,5.2929,5.2929,5.2929,5.2929,5.2929,5.2929,5.2929,5.2929,5.2929,5.2829,5.1749,5.1297,5.1147,5.0017,4.8887,4.7883,4.733,4.7068,4.6968,0.0,0.0,0.0,0.0,0.0,0.0,0.0,2.2724,2.3154,2.4092,2.7544,3.1035,3.3947,3.7462,3.9948,4.0802,3.9371,3.8065,3.7236,3.3922,3.1137,2.9259,2.8914,2.9099,2.9822,3.0703,3.1992,3.373,3.4609,3.5098,3.5215,3.5508,3.5488,3.5195,3.5078,3.4609,3.3887,3.3769,3.3136,3.2058,3.0962,3.0925,3.1359,0.0,0.0,0.0,0.0,0.0,0.0,0.0,0.0,0.0,0.0,0.0,0.0,0.0,0.0,0.0,0.0,0.0,0.0,0.0,0.0,0.0,0.0,0.0,0.0,0.0,0.0,0.0,0.0,0.0,0.0,0.0,0.0,3.8969,3.9069,4.2635,4.5698,4.7154,4.9464,5.0645,4.9891,5.0368,5.087,5.1172,5.2051,5.2603,5.2703,5.3457,5.3582,5.2955,5.3281,5.3306,5.2929,5.2929,5.2929,5.2929,5.2929,5.2929,5.2929,5.2929,5.2929,5.2929,5.2929,5.2703,5.2302,5.2,5.1398,5.0544,4.9439,4.8812,4.841,4.7481,4.6878,4.6527,0.0,0.0,0.0,0.0,0.0,0.0,0.0,2.2798,2.3258,2.4269,2.8026,3.1486,3.3796,3.7487,3.9772,3.9622,3.8718,3.7487,3.5906,3.3752,3.1862,3.0377,3.1589,3.224,3.2163,3.3316,3.4153,3.4629,3.5312,3.5664,3.5664,3.5898,3.5898,3.5644,3.5469,3.5098,3.4609,3.4414,3.4043,3.354,3.2715,3.2618,3.2716,3.0802,3.1819,3.3991,3.1436,3.2358,3.4452,3.2092,0.0,0.0,0.0,0.0,0.0,0.0,0.0,0.0,0.0,0.0,0.0,0.0,0.0,0.0,0.0,0.0,0.0,0.0,0.0,0.0,0.0,0.0,0.0,0.0,4.0224,4.3011,4.4166,4.6451,4.8686,5.0444,5.2126,5.2955,5.2503,5.2653,5.2779,5.2779,5.3356,5.3683,5.3607,5.3984,5.3909,5.3281,5.3331,5.3231,5.2929,5.2929,5.2929,5.2929,5.2929,5.2929,5.2929,5.2929,5.2929,0.0,5.2929,5.2754,5.2427,5.195,5.1373,0.0,0.0,0.0,0.0,0.0,4.6979,4.6301,0.0,0.0,0.0,0.0,0.0,0.0,0.0,2.2403,2.293,2.4446,2.8023,3.0959,3.2365,3.6031,3.799,3.6985,3.6835,3.5981,3.4022,3.3305,3.2833,3.2598,3.4722,3.5424,3.4508,3.6348,3.6817,3.5783,3.5907,3.6016,3.6016,3.6016,3.6016,3.5996,3.5625,3.543,3.5371,3.4961,3.4726,3.4609,3.4277,3.4564,3.4742,3.1156,3.2932,3.6921,3.3449,3.398,3.6034,3.465,0.0,0.0,0.0,0.0,0.0,0.0,0.0,0.0,0.0,0.0,0.0,0.0,0.0,0.0,0.0,0.0,0.0,0.0,0.0,0.0,0.0,0.0,0.0,0.0,4.379,4.6903,4.959,5.0444,5.1172,5.2176,5.3582,5.411,5.3206,5.3457,5.3733,5.3808,5.3858,5.4059,5.4436,0.0,0.0,0.0,0.0,5.298,5.2929,5.2929,5.2929,5.2929,5.2929,5.2929,5.2929,5.2929,5.2929,5.2929,5.2929,5.2904,5.2754,5.1699,5.1197,5.1046,5.0469,4.9891,4.9264,4.8209,4.7179,0.0,0.0,0.0,0.0,0.0,0.0,0.0,0.0,2.2162,2.2533,2.2825,2.6595,2.9202,2.9076,3.2918,3.5429,3.5203,3.4801,3.4349,3.3922,3.3352,3.3686,3.5051,3.6708,3.7732,3.7998,3.7825,3.7879,3.7964,3.6614,3.6016,3.6016,3.6016,3.6016,3.6016,3.5937,3.5703,3.5391,3.5293,3.4844,3.4219,3.4473,3.4719,3.487,3.5035,3.6296,3.7857,3.7039,3.8537,4.0427,3.7059,3.6631,3.6985,3.455,0.0,0.0,0.0,0.0,0.0,0.0,0.0,0.0,0.0,0.0,0.0,0.0,0.0,0.0,0.0,0.0,0.0,0.0,0.0,0.0,4.3338,4.6627,4.9615,5.195,5.2729,5.3155,5.3356,5.3683,5.3959,5.4235,5.3909,5.3884,5.4361,5.4813,5.4712,5.3909,5.4637,0.0,5.313,5.3381,5.3356,5.2929,5.2929,5.2929,5.2929,0.0,0.0,5.2929,5.2929,5.2929,5.2929,5.2929,5.2678,5.2226,5.1548,5.0745,4.9866,4.9314,4.8736,4.8159,4.7531,4.6878,4.6301,0.0,0.0,0.0,0.0,0.0,0.0,0.0,2.1902,2.2511,2.2776,2.5667,2.7758,2.7706,3.0658,3.2398,3.1847,3.1838,3.2441,3.3796,3.4424,3.565,3.7653,3.956,4.0562,4.0574,3.96,3.8959,3.8597,3.6856,3.6016,3.6016,3.6016,3.5898,3.5723,3.5937,3.5781,3.5391,3.5391,3.5254,3.5039,3.5039,3.4967,3.479,3.519,3.6316,3.7582,3.7691,3.9266,4.1034,3.9089,3.8617,3.8517,3.6558,3.5002,3.3552,0.0,0.0,0.0,0.0,0.0,0.0,0.0,0.0,0.0,0.0,0.0,0.0,0.0,0.0,3.7211,0.0,0.0,4.4217,4.6702,4.9439,5.1649,5.2779,5.3632,5.4135,5.4135,5.4386,5.4561,5.4561,5.4561,5.4662,5.4963,5.4988,5.4963,5.4963,5.4687,5.431,5.3758,5.3457,5.3181,5.2929,5.2929,5.2929,5.2929,5.2929,5.2929,5.2929,5.2929,5.2929,5.2929,5.2929,5.2779,5.2452,5.1624,5.0619,4.954,4.8987,4.841,4.7908,4.7933,4.7255,4.6351,0.0,0.0,0.0,0.0,0.0,0.0,0.0,0.0,2.2263,2.267,2.4582,2.5981,2.6164,2.8147,2.9214,2.8612,2.9327,3.1009,3.3872,3.5604,3.7563,3.9923,4.2032,4.2945,4.2436,4.1276,4.0234,3.9282,3.7345,3.6428,3.6663,3.611,3.5866,3.5719,3.574,3.5625,3.5391,3.5391,3.5586,3.5859,3.5527,3.5117,3.4648,3.4141,3.5271,3.7045,3.7323,3.855,4.0007,4.0168,3.964,3.8793,3.804,3.701,3.5558,3.347,3.3477,0.0,0.0,0.0,0.0,0.0,0.0,0.0,0.0,0.0,3.4983,3.6924,3.8609,4.0479,4.2705,4.5221,4.7606,4.959,5.1624,5.2955,5.3055,5.3758,5.4336,5.4536,5.4863,5.4963,5.4737,5.5039,5.5315,5.5541,5.5039,5.5064,5.5842,5.4511,5.3858,5.4235,5.3381,5.2929,5.2929,5.2929,5.2929,5.2929,5.2929,5.2929,5.2929,5.2929,5.2929,5.2929,5.2804,5.2703,5.2528,5.1523,5.0519,4.9565,4.9113,4.851,4.7958,4.8435,4.7707,4.6527,0.0,0.0,0.0,0.0,0.0,0.0,0.0,0.0,0.0,2.1052,2.2485,2.3134,2.2257,2.413,2.6013,2.7344,2.89,3.116,3.4424,3.6182,3.8316,4.0974,4.2785,4.3708,4.3579,4.2471,4.1858,4.1724,3.8914,3.8102,3.9048,3.6603,3.599,3.6869,3.546,3.5059,3.5391,3.5391,3.543,3.5469,3.541,3.5117,3.4609,3.3809,3.4851,3.683,3.7392,3.7918,3.8468,3.9053,3.9124,3.9019,3.9873,3.9044,3.7387,3.5633,0.0,3.1744,2.8486,2.669,2.6319,2.8452,2.9736,3.1165,0.0,0.0,3.7165,4.003,4.1828,4.3649,4.6124,4.8033,4.964,5.0896,5.2126,5.308,5.3557,5.3331,5.3482,5.4461,5.416,5.426,5.5214,5.4913,5.5064,5.6043,5.5616,5.5139,5.4762,5.4084,5.3507,5.313,5.298,5.2929,5.2929,5.2929,5.2929,5.2929,5.2929,5.2929,5.2929,5.2929,5.2929,5.2904,5.2402,5.1925,5.1423,5.077,5.0142,4.959,4.9515,4.8837,4.7908,4.7983,4.7606,4.6993,0.0,0.0,0.0,0.0,0.0,0.0,0.0,0.0,0.0,0.0,2.1888,2.2571,2.2088,2.3433,2.4924,2.6197,2.7846,3.0231,3.3545,3.5906,3.814,4.03,4.1957,4.2986,4.3313,4.1861,4.1425,4.2101,3.9551,3.8744,3.9432,3.675,3.5806,3.6269,3.4692,3.4062,3.4238,3.4238,3.4531,3.4941,3.4453,3.4121,3.3867,3.3008,3.2792,3.3087,3.424,3.479,0.0,0.0,3.6928,3.7612,3.8691,3.8341,3.7262,3.5884,3.4605,0.0,2.9222,2.7778,2.7594,0.0,3.0571,3.3128,3.7165,3.8955,4.0763,4.4317,4.6336,4.7918,4.9311,5.0645,5.18,0.0,5.308,5.3457,5.3658,5.3507,5.3206,5.2703,5.3005,5.3683,5.4787,5.4988,5.5089,5.5239,5.5039,5.4813,5.4587,5.3733,5.3281,5.3381,5.308,5.2929,5.2929,5.2929,5.2929,5.2929,5.2929,5.2929,5.2929,5.2929,5.2929,5.2904,5.2352,5.18,5.1247,5.067,5.0092,4.959,4.959,4.9113,4.841,4.841,4.7657,4.6702,0.0,0.0,0.0,0.0,0.0,0.0,0.0,0.0,0.0,0.0,0.0,2.2267,2.244,2.3044,2.3904,2.5078,2.6543,2.8775,3.1964,3.4751,3.7161,3.9145,4.0729,4.1806,4.2509,4.1264,4.1061,4.1856,3.9926,3.9309,3.9956,3.6846,3.5615,3.5951,3.3959,3.3144,3.3242,3.3242,3.3672,3.4277,3.3535,3.3105,3.2793,3.1816,3.0644,2.9698,3.1064,3.1391,0.0,0.0,3.3975,3.521,3.6456,3.6794,3.6508,3.5382,3.39,3.2091,2.9484,0.0,0.0,2.9024,3.2107,3.5892,3.9394,4.1891,4.4371,4.7656,4.9372,5.0595,5.1582,5.2402,5.3105,5.3607,5.3582,5.3532,5.3683,5.3306,5.2603,5.1423,5.1574,5.2277,5.3532,5.4436,5.4813,5.4658,5.4411,5.4336,5.4336,5.3432,5.3105,5.3482,5.313,5.2929,5.2929,5.2929,5.2929,5.2929,5.2929,5.2929,5.2929,5.2929,5.2854,5.2678,5.2126,5.1548,5.0996,5.0419,4.9967,4.959,4.959,4.9264,4.8761,4.8586,4.7682,4.6602,0.0,0.0,0.0,0.0,0.0,0.0,0.0,0.0,0.0,0.0,0.0,0.0,0.0,0.0,2.2325,2.4,2.5065,2.6866,2.9704,3.2466,3.5203,3.7939,3.9145,4.0275,4.13,4.1272,4.1297,4.1322,4.0146,4.0122,4.116,3.6955,3.5639,3.656,3.3575,3.2422,3.2812,3.2812,3.3066,3.3418,3.2988,3.2324,3.1426,3.0137,2.8902,2.7904,2.8726,0.0,0.0,0.0,3.0339,3.183,3.3502,3.4715,0.0,3.4274,3.0889,0.0,0.0,0.0,2.7552,2.9646,3.471,3.9305,3.9581,4.3624,4.7705,4.8982,4.965,5.0574,5.251,5.2904,5.3105,5.3607,5.3281,5.313,5.3632,5.2352,5.1348,5.1297,4.9866,4.954,0.0,5.2829,5.3984,5.4607,5.4059,5.3733,5.3733,5.3231,5.2929,5.2955,5.2929,5.2929,5.2929,5.2929,5.2929,5.2929,5.2929,5.2929,5.2929,5.2929,5.2628,5.2101,5.1548,5.0971,5.0393,4.9841,4.9615,4.959,4.959,4.9264,4.8711,4.8134,4.7581,4.7043,0.0,0.0,0.0,0.0,0.0,0.0,0.0,0.0,0.0,0.0,0.0,0.0,0.0,0.0,0.0,0.0,2.4287,2.5851,2.7515,3.0181,3.2441,3.4098,3.5956,3.7287,3.8015,3.8743,3.932,3.9697,3.9327,3.9501,4.0172,3.6996,3.5948,3.6572,3.3245,3.2716,3.4246,3.2938,3.2898,3.3471,3.2121,3.1047,3.0019,2.8164,2.6816,2.5947,0.0,0.0,0.0,0.0,0.0,0.0,3.0437,0.0,0.0,3.1281,0.0,0.0,0.0,0.0,3.3421,3.5816,3.9126,4.2483,4.5047,4.7209,4.9091,5.0327,5.0178,4.9818,5.0087,5.0167,5.0594,5.19,5.2251,5.2678,5.3582,5.2929,5.1825,5.0343,5.0645,0.0,0.0,0.0,0.0,5.3406,5.3607,5.3557,5.3206,5.303,5.2929,5.2929,5.2929,5.2929,5.2929,5.2929,5.2929,5.2929,5.2929,5.2929,5.2904,5.2553,5.2277,5.2051,5.1122,5.0594,5.0368,4.9816,4.959,4.9565,4.9188,4.8711,4.8134,4.7581,4.7054,4.6602,0.0,0.0,0.0,0.0,0.0,0.0,0.0,0.0,0.0,0.0,0.0,0.0,0.0,0.0,0.0,0.0,0.0,0.0,2.5837,2.7952,2.9847,3.1286,3.2918,3.4223,3.5223,3.5881,3.6433,3.6857,3.6985,3.7287,3.7564,3.5547,3.4831,3.5064,3.2325,3.1971,3.3307,3.205,3.1753,3.2104,3.0912,2.9517,2.789,2.6363,2.5013,0.0,2.3301,0.0,0.0,0.0,0.0,0.0,0.0,0.0,0.0,0.0,0.0,0.0,0.0,3.5439,3.7485,4.0166,4.2825,4.5425,4.8059,4.939,5.0098,5.0372,4.949,4.8535,4.8008,4.7405,4.7807,5.0268,5.0469,5.1046,5.313,5.2452,5.1348,5.0318,5.0444,5.0368,0.0,0.0,0.0,5.2528,5.313,5.3281,5.2955,5.2929,5.2929,5.2929,5.2929,5.2929,5.2929,5.2929,5.2929,5.2929,5.2929,5.2929,5.2904,5.2352,5.2,5.1749,5.082,5.0293,5.0092,4.9741,4.959,4.954,4.8987,4.8535,4.8134,4.7405,4.6903,4.6637,0.0,0.0,0.0,0.0,0.0,0.0,0.0,0.0,0.0,0.0,0.0,0.0,0.0,0.0,0.0,0.0,0.0,0.0,2.4662,2.5887,2.7454,2.9454,3.0145,3.1226,3.2792,3.296,3.2943,3.2943,3.347,3.3721,3.3702,3.2798,3.2345,3.2299,3.0841,3.0241,3.0312,3.0241,2.9881,2.9462,2.9396,2.7705,2.5178,2.4658,2.3366,2.1816,2.1816,0.0,0.0,0.0,0.0,0.0,0.0,0.0,0.0,0.0,0.0,3.3336,3.6848,3.854,3.9931,4.2662,4.5739,4.8136,4.8499,4.9934,5.0645,4.8887,4.7631,4.6652,0.0,0.0,4.497,4.8761,4.8209,4.8611,5.2402,5.1096,5.0142,0.0,0.0,0.0,0.0,0.0,0.0,5.1975,0.0,5.2904,5.2929,5.2929,5.2929,5.2929,5.2929,5.2929,5.2929,5.2929,5.2929,5.2929,5.2929,5.2904,5.2879,5.2302,5.1749,5.1197,5.0619,5.0067,4.9565,4.9565,4.954,4.9464,4.8912,4.8686,4.8624,4.7543,4.714,4.7283,0.0,0.0,0.0,0.0,0.0,0.0,0.0,0.0,0.0,0.0,0.0,0.0,0.0,0.0,0.0,0.0,0.0,0.0,2.317,2.4665,2.5715,2.6116,2.7954,2.9098,2.9352,3.0608,3.1235,3.1235,3.1386,3.1461,3.1436,3.0794,3.0482,3.0441,2.9004,2.9174,3.044,2.9,2.8553,2.8734,2.7684,2.6032,2.4075,2.2993,2.1884,2.0938,0.0,0.0,0.0,0.0,0.0,0.0,0.0,0.0,3.3169,0.0,0.0,3.8438,4.139,4.386,4.6055,4.8028,4.9446,5.0248,4.9488,4.9367,4.8586,4.5673,4.3865,4.2409,0.0,0.0,0.0,4.61,4.8259,0.0,5.2603,5.2427,0.0,5.1348,0.0,5.1373,5.0695,5.1523,0.0,0.0,5.2226,5.2503,5.2904,5.2929,5.2929,5.2929,5.2929,5.2929,5.2929,5.2929,5.2929,5.2929,5.2929,5.2703,5.2302,5.1749,5.1172,5.0619,5.0042,4.949,4.8987,4.8987,4.8736,4.8284,4.7757,4.7556,4.7579,4.8025,4.8153,4.851,0.0,0.0,0.0,0.0,0.0,0.0,0.0,0.0,0.0,0.0,0.0,0.0,0.0,0.0,0.0,0.0,0.0,0.0,0.0,2.3895,2.4639,2.5025,2.6276,2.7205,2.762,2.8517,2.9168,2.9464,2.9068,2.9142,2.9639,2.9012,2.8699,2.8662,2.7873,2.7998,2.8737,2.7653,2.7072,0.0,0.0,2.4621,2.2878,2.2174,2.1254,0.0,0.0,0.0,0.0,0.0,0.0,3.0141,3.2111,3.3929,3.5755,3.7914,0.0,4.2108,4.4844,4.728,4.9289,5.0494,5.067,5.0067,4.8209,4.7154,4.5497,4.1681,3.9973,0.0,0.0,0.0,0.0,0.0,0.0,0.0,5.2151,5.2352,5.2151,0.0,5.2327,0.0,5.1599,5.2151,5.2528,0.0,5.2477,5.2603,5.2904,5.2929,5.2929,5.2929,5.2929,5.2929,5.2929,5.2929,5.2929,5.2929,5.2929,5.2628,5.2076,5.1523,5.0971,5.0393,0.0,4.9289,4.8761,4.8761,4.8435,4.7857,4.733,4.7068,4.7237,4.8127,4.8474,4.8935,0.0,0.0,0.0,0.0,0.0,0.0,0.0,0.0,0.0,0.0,0.0,0.0,0.0,0.0,0.0,0.0,0.0,0.0,0.0,0.0,0.0,2.4942,2.5218,2.5797,2.6756,2.7003,2.7418,0.0,0.0,2.7438,2.8451,2.7644,2.7274,2.7163,2.7163,2.6858,2.6349,2.6249,2.5691,2.4868,2.4671,2.3515,2.1913,0.0,0.0,0.0,0.0,0.0,0.0,0.0,2.796,3.0997,3.4544,3.6741,3.8492,4.1204,4.3112,4.492,4.7631,4.9414,5.0645,5.1046,5.0268,4.8611,4.5698,4.4116,4.2007,3.7638,0.0,3.5755,3.5157,3.578,3.8014,4.2886,0.0,4.723,5.1599,5.18,5.185,5.2804,5.2578,5.2477,5.2879,5.2553,5.2477,5.2904,5.2929,5.2929,5.2929,5.2929,5.2929,5.2929,5.2929,5.2929,5.2929,5.2929,5.2929,5.2929,5.2854,5.2528,5.1975,5.1423,5.0845,5.0268,0.0,0.0,4.8661,4.8586,4.8209,4.7657,4.7205,4.6968,4.7136,4.8335,4.8793,4.9251,0.0,0.0,0.0,0.0,0.0,0.0,0.0,0.0,0.0,0.0,2.2313,2.2251,0.0,0.0,0.0,0.0,0.0,0.0,0.0,0.0,0.0,0.0,2.5268,2.5907,2.552,0.0,0.0,0.0,0.0,0.0,2.8239,2.7595,2.7012,2.6576,2.6576,2.6219,2.5532,2.4945,2.4928,2.5177,2.3915,2.2855,2.2055,0.0,0.0,0.0,0.0,0.0,0.0,0.0,2.915,3.3553,3.5779,3.9034,4.2434,4.4769,4.6276,4.7707,5.0067,5.0896,5.1046,5.067,4.9364,4.723,4.362,4.153,0.0,0.0,0.0,3.347,3.2893,3.4751,3.7888,4.2384,0.0,0.0,0.0,0.0,5.2703,0.0,0.0,0.0,0.0,0.0,0.0,0.0,0.0,0.0,5.2929,5.2929,5.2929,5.2929,5.2929,5.2929,5.2929,5.2929,5.2929,5.2929,5.2477,5.195,5.1398,5.082,5.0268,4.9715,0.0,0.0,4.8033,4.7606,4.7079,4.6577,4.6476,4.6451,4.6787,4.9365,5.0324,5.0768,0.0,0.0,0.0,0.0,0.0,0.0,0.0,0.0,2.2916,2.3012,2.3435,2.3397,2.2409,2.2518,0.0,0.0,0.0,0.0,0.0,0.0,0.0,0.0,0.0,0.0,0.0,0.0,0.0,0.0,0.0,0.0,0.0,0.0,0.0,0.0,0.0,0.0,0.0,0.0,0.0,0.0,0.0,0.0,0.0,0.0,0.0,0.0,0.0,0.0,0.0,0.0,2.7293,3.2048,3.6294,3.9557,4.2528,4.5735,4.7506,4.8786,5.0745,5.1699,5.185,5.0695,4.8736,4.5924,4.1509,0.0,0.0,0.0,3.1788,3.1712,3.1436,0.0,0.0,0.0,0.0,0.0,0.0,0.0,0.0,0.0,0.0,0.0,0.0,0.0,0.0,0.0,0.0,0.0,5.2929,5.2929,5.2929,5.2929,5.2929,5.2929,5.2929,5.2929,5.2929,5.2929,5.2377,5.1825,5.1272,5.0695,5.0117,4.959,0.0,0.0,4.7883,4.7631,4.7054,4.6301,4.6301,4.6301,4.6636,4.9594,5.0713,5.1153,0.0,0.0,0.0,0.0,0.0,0.0,0.0,2.3058,2.3463,2.3671,2.4437,2.4376,2.2807,2.2929,2.3283,0.0,0.0,0.0,0.0,0.0,0.0,0.0,0.0,0.0,0.0,0.0,0.0,0.0,0.0,0.0,0.0,0.0,0.0,0.0,0.0,0.0,0.0,0.0,0.0,0.0,0.0,0.0,0.0,0.0,0.0,0.0,0.0,0.0,0.0,0.0,2.4621,2.8657,3.4429,3.8288,4.1422,4.5256,4.7531,4.9138,5.082,5.1925,5.2176,5.0494,4.7908,4.4493,3.9622,3.6784,0.0,0.0,3.0131,3.0482,3.0583,0.0,3.5027,0.0,3.9973,0.0,0.0,0.0,0.0,0.0,0.0,0.0,0.0,0.0,0.0,0.0,0.0,0.0,0.0,5.2929,5.2929,5.2929,5.2929,5.2929,5.2929,5.2929,5.2879,5.2754,5.2201,5.1624,5.1071,5.0494,5.0017,4.959,0.0,0.0,0.0,4.7707,4.7129,4.6476,4.6351,4.6301,4.6636,4.9281,5.0435,5.1098,0.0,0.0,0.0,0.0,0.0,0.0,0.0,2.3058,2.3463,2.3671,2.4191,2.4334,2.3812,2.4406,2.46,0.0,0.0,0.0,0.0,0.0,0.0,0.0,0.0,0.0,0.0,0.0,0.0,0.0,0.0,0.0,0.0,0.0,0.0,0.0,0.0,0.0,0.0,0.0,0.0,0.0,0.0,0.0,0.0,0.0,0.0,0.0,0.0,0.0,0.0,0.0,0.0,2.4286,2.7917,3.4251,4.0854,4.3373,0.0,0.0,5.082,5.1348,5.1021,4.9339,4.6451,4.2861,3.8366,0.0,0.0,3.0382,2.9829,3.003,3.0532,3.121,3.3093,0.0,0.0,4.1781,0.0,0.0,0.0,0.0,0.0,0.0,0.0,0.0,0.0,0.0,0.0,0.0,0.0,5.2929,5.2929,5.2929,5.2929,5.2929,5.2929,5.2929,5.2678,5.2176,5.1624,5.1046,5.0469,4.9916,4.964,4.954,0.0,0.0,0.0,4.7079,4.6702,4.7004,4.6502,4.6301,4.6481,4.8094,4.9565,5.0933,0.0,0.0,0.0,0.0,0.0,0.0,2.2584,2.3058,2.3615,2.4297,2.5054,2.5345,2.4904,2.5138,2.4966,0.0,0.0,0.0,0.0,0.0,0.0,0.0,0.0,0.0,0.0,0.0,0.0,0.0,0.0,0.0,0.0,0.0,0.0,0.0,0.0,0.0,0.0,0.0,0.0,0.0,0.0,0.0,0.0,0.0,0.0,0.0,0.0,0.0,0.0,0.0,0.0,0.0,2.443,2.8857,0.0,0.0,4.3208,4.6351,4.9038,5.0519,5.0795,4.8761,4.5748,4.2233,3.8115,0.0,3.229,3.0231,2.9804,2.9854,3.008,3.0557,3.1938,3.5027,3.5629,0.0,0.0,0.0,0.0,0.0,0.0,0.0,0.0,0.0,0.0,0.0,0.0,0.0,0.0,5.2929,5.2929,5.2929,5.2929,5.2929,5.2929,5.2603,5.2327,5.2101,5.1197,5.0645,5.0393,4.9841,4.959,4.9565,0.0,0.0,0.0,4.7205,4.6753,4.6627,4.6401,4.6301,4.6481,4.7977,4.9451,5.0933,0.0,0.0,0.0,0.0,0.0,2.2372,2.2584,2.3058,2.3649,2.4396,2.5203,2.5542,2.5063,2.4944,2.4522,2.363,0.0,0.0,0.0,0.0,0.0,0.0,0.0,0.0,0.0,0.0,0.0,0.0,0.0,0.0,0.0,0.0,0.0,0.0,0.0,0.0,0.0,0.0,0.0,0.0,0.0,0.0,0.0,0.0,0.0,0.0,0.0,0.0,0.0,0.0,0.0,0.0,0.0,0.0,0.0,0.0,3.9882,4.374,4.6728,4.8887,4.9791,4.7707,4.4694,4.1279,0.0,0.0,3.1562,3.0105,2.9804,2.9804,2.9804,3.0105,3.1035,3.3068,3.3345,3.5077,4.0149,0.0,0.0,0.0,0.0,0.0,0.0,0.0,0.0,0.0,0.0,0.0,0.0,5.2929,5.2929,5.2929,5.2929,5.2854,5.2678,5.2302,5.1925,5.1599,5.0795,5.0343,5.0167,4.9766,4.9515,0.0,0.0,0.0,0.0,4.7179,4.6753,4.6552,4.6376,4.6301,4.6421,4.7475,4.8793,5.0268,0.0,0.0,0.0,0.0,0.0,0.0,0.0,2.3058,2.3463,2.3671,2.4192,2.4354,2.3957,2.3608,2.323,2.2738,0.0,0.0,0.0,0.0,0.0,0.0,0.0,0.0,0.0,0.0,0.0,2.7585,0.0,0.0,0.0,0.0,0.0,0.0,0.0,0.0,0.0,0.0,0.0,0.0,0.0,0.0,0.0,0.0,0.0,0.0,0.0,0.0,0.0,0.0,0.0,0.0,0.0,0.0,0.0,0.0,3.6678,4.1802,4.4066,4.6276,4.7556,4.5924,4.3011,3.9672,0.0,0.0,3.1085,3.0005,2.9804,2.9804,2.9804,2.9804,3.0331,3.1964,3.3169,3.5253,3.917,0.0,0.0,0.0,0.0,0.0,0.0,0.0,0.0,0.0,0.0,0.0,0.0,0.0,5.2929,5.2929,5.2929,5.2678,5.2126,5.2101,5.1548,5.0444,5.0419,5.0117,4.9615,4.959,0.0,0.0,0.0,0.0,0.0,4.6753,4.6652,4.7079,4.6527,4.6301,4.6301,4.6301,4.7265,4.8762,0.0,0.0,0.0,0.0,0.0,0.0,0.0,2.2531,2.2844,2.3432,2.3639,2.3794,2.3874,2.3819,2.346,2.2764,0.0,0.0,0.0,0.0,0.0,0.0,0.0,0.0,0.0,0.0,2.6482,2.8278,2.9564,3.0552,0.0,0.0,0.0,0.0,0.0,0.0,0.0,0.0,0.0,0.0,0.0,0.0,0.0,0.0,0.0,0.0,0.0,0.0,0.0,0.0,0.0,0.0,0.0,0.0,0.0,2.7921,0.0,0.0,3.9396,4.1178,4.1982,4.0701,3.8743,3.6511,3.4349,0.0,3.0658,2.9955,2.9804,2.9804,2.9804,2.9804,3.0583,3.2968,3.3671,0.0,0.0,0.0,0.0,0.0,0.0,0.0,0.0,0.0,0.0,0.0,0.0,0.0,0.0,0.0,5.2929,5.2929,5.2929,5.2653,5.2126,5.1724,5.1172,5.0419,5.0042,4.9766,4.959,4.9213,0.0,0.0,0.0,0.0,0.0,4.6602,4.6426,4.6552,4.6376,4.6934,4.7802,4.7802,4.9422,5.1618,0.0,0.0,0.0,0.0,0.0,0.0,0.0,2.2313,2.2448,2.2936,2.297,2.3056,2.3282,2.3309,2.3103,2.2602,0.0,0.0,0.0,0.0,0.0,0.0,0.0,0.0,0.0,2.5793,2.6722,2.8966,3.0013,3.112,3.2258,3.2407,0.0,0.0,0.0,0.0,0.0,0.0,0.0,0.0,0.0,0.0,2.587,0.0,0.0,0.0,0.0,0.0,0.0,0.0,0.0,0.0,0.0,0.0,0.0,0.0,0.0,0.0,0.0,3.7739,3.8542,3.7613,3.6157,0.0,0.0,0.0,3.0206,2.9854,2.9804,2.9804,2.9804,2.9804,3.0432,3.234,0.0,0.0,0.0,0.0,0.0,0.0,0.0,0.0,0.0,0.0,0.0,0.0,0.0,0.0,0.0,0.0,5.2528,5.2302,5.2503,5.2251,5.1473,5.1122,5.067,5.0092,4.9766,4.949,4.9264,0.0,0.0,0.0,0.0,0.0,0.0,4.6451,4.6301,4.6301,4.6301,4.7077,4.8131,4.8131,4.9553,5.1534,0.0,0.0,0.0,0.0,0.0,0.0,0.0,0.0,2.2313,2.2313,2.2313,2.2313,2.2313,2.2313,2.2313,2.2313,0.0,0.0,0.0,0.0,0.0,0.0,0.0,0.0,0.0,2.5802,2.6931,2.9681,3.0283,3.1569,3.3484,3.2916,3.2587,3.2467,3.1839,0.0,0.0,0.0,0.0,0.0,0.0,0.0,0.0,0.0,0.0,0.0,0.0,0.0,0.0,0.0,0.0,0.0,0.0,0.0,0.0,0.0,0.0,0.0,0.0,0.0,0.0,0.0,0.0,0.0,0.0,0.0,0.0,2.9804,2.9804,2.9804,2.9905,2.9854,3.003,3.0783,0.0,0.0,0.0,0.0,0.0,0.0,0.0,0.0,0.0,0.0,0.0,0.0,0.0,0.0,0.0,0.0,0.0,5.1247,5.1724,5.1473,5.0419,5.0419,5.0142,4.959,4.9565,4.9264,4.8761,0.0,0.0,0.0,0.0,0.0,0.0,4.6301,4.6276,4.625,4.6371,4.6887,4.7612,4.7725,4.8325,4.9401,0.0,0.0,0.0,0.0,0.0,0.0,0.0,0.0,0.0,0.0,2.2313,2.2313,2.2313,2.2313,2.2313,0.0,0.0,0.0,0.0,0.0,0.0,0.0,0.0,0.0,0.0,2.5841,2.7141,3.0283,3.0943,3.2019,3.3514,3.3844,3.3484,3.2497,3.2318,3.1899,3.1271,0.0,0.0,0.0,0.0,0.0,0.0,0.0,0.0,0.0,2.6892,2.5613,0.0,0.0,0.0,0.0,0.0,0.0,0.0,0.0,2.5182,0.0,2.8845,0.0,3.1386,3.0809,3.0708,3.0683,0.0,0.0,0.0,0.0,0.0,0.0,0.0,0.0,0.0,0.0,0.0,0.0,0.0,0.0,0.0,0.0,0.0,0.0,0.0,0.0,0.0,0.0,0.0,0.0,0.0,0.0,0.0,5.0645,5.0745,5.0695,5.0419,5.0419,5.0142,4.959,4.9163,4.8887,4.8736,0.0,0.0,0.0,0.0,0.0,0.0,4.6301,4.6075,4.5792,4.6805,4.7758,4.868,4.9777,5.1024,5.2258,0.0,0.0,0.0,0.0,0.0,0.0,0.0,0.0,0.0,0.0,0.0,0.0,0.0,0.0,0.0,0.0,0.0,0.0,0.0,0.0,0.0,0.0,0.0,0.0,2.6368,2.5863,2.738,3.0943,3.1331,3.2497,3.4412,3.4474,3.412,3.3362,3.2509,3.1901,3.1508,3.1202,3.0774,0.0,0.0,0.0,0.0,0.0,0.0,0.0,2.7004,2.5782,0.0,2.3591,2.3021,2.2494,0.0,0.0,0.0,0.0,2.4625,2.5345,2.7221,2.8376,2.9071,2.9263,2.9553,2.9804,2.9804,0.0,0.0,0.0,0.0,0.0,0.0,0.0,0.0,0.0,0.0,0.0,0.0,0.0,0.0,0.0,0.0,0.0,0.0,0.0,0.0,0.0,0.0,0.0,0.0,0.0,0.0,0.0,4.9665,4.9665,4.9665,4.9665,4.9389,4.8812,4.851,4.8259,4.8008,0.0,0.0,0.0,0.0,0.0,4.5581,4.6203,4.629,4.618,4.7575,4.8652,4.9498,5.0246,5.1286,5.2336,0.0,0.0,0.0,0.0,0.0,0.0,0.0,0.0,0.0,0.0,0.0,0.0,0.0,0.0,0.0,0.0,0.0,0.0,0.0,0.0,0.0,0.0,0.0,2.4286,2.6388,2.5875,2.7522,3.1511,3.16,3.2975,3.5489,3.5011,3.4697,3.4434,3.2571,3.1761,3.1707,3.1069,3.0821,3.0854,0.0,0.0,0.0,0.0,0.0,0.0,0.0,0.0,0.0,2.3688,2.3654,2.3639,2.1768,0.0,0.0,0.0,0.0,0.0,2.6962,2.7679,2.8354,2.9394,2.9729,2.9804,2.9804,0.0,0.0,0.0,0.0,0.0,0.0,3.0934,0.0,0.0,0.0,0.0,0.0,0.0,0.0,0.0,0.0,0.0,0.0,0.0,0.0,0.0,0.0,0.0,0.0,0.0,0.0,0.0,4.8686,4.8611,4.851,4.8611,4.8385,4.7908,4.7832,4.7556,4.7068,4.6954,0.0,0.0,0.0,0.0,4.4734,4.6117,4.6655,4.6742,4.8379,4.9361,4.9889,5.0117,5.0612,5.1289,0.0,0.0,0.0,0.0,0.0,0.0,0.0,0.0,0.0,0.0,0.0,0.0,0.0,0.0,0.0,0.0,0.0,0.0,0.0,0.0,0.0,0.0,2.2763,2.4276,2.6537,2.5878,2.7495,3.1511,3.2049,3.3455,3.5519,3.5968,3.5575,3.4434,3.3067,3.2447,3.2451,3.2278,3.2198,3.2169,0.0,0.0,0.0,0.0,0.0,0.0,0.0,0.0,0.0,2.447,2.3522,2.2554,2.1544,0.0,0.0,0.0,0.0,0.0,2.6612,2.7674,2.8272,2.8878,2.9428,2.9804,2.9804,0.0,0.0,0.0,0.0,0.0,0.0,3.2365,0.0,0.0,0.0,0.0,0.0,0.0,0.0,0.0,0.0,0.0,0.0,0.0,0.0,0.0,0.0,0.0,0.0,0.0,0.0,0.0,0.0,4.7832,4.738,4.7832,4.7983,4.7908,4.7456,4.7143,4.7043,4.6175,4.5648,0.0,0.0,0.0,4.4734,4.6117,4.6444,4.6296,4.885,4.9603,4.9453,5.0607,5.1101,5.1229,0.0,0.0,0.0,0.0,0.0,0.0,0.0,0.0,0.0,0.0,0.0,0.0,0.0,0.0,0.0,0.0,0.0,0.0,0.0,0.0,0.0,2.2682,2.3841,2.5281,2.7081,2.7517,2.9679,3.3633,3.3993,3.513,3.7079,3.6687,3.6005,3.5065,3.4101,3.366,3.3675,3.3213,3.3033,3.3065,0.0,0.0,0.0,0.0,0.0,0.0,0.0,0.0,0.0,0.0,2.382,2.3098,2.1942,0.0,0.0,0.0,0.0,0.0,2.6142,2.706,2.7698,2.9766,3.0683,3.0959,3.0357,3.0457,0.0,0.0,0.0,0.0,0.0,0.0,0.0,0.0,0.0,0.0,0.0,0.0,0.0,0.0,0.0,0.0,0.0,0.0,0.0,0.0,0.0,0.0,0.0,0.0,0.0,0.0,0.0,0.0,4.625,4.6476,4.6753,4.7029,4.6502,4.625,4.6225,4.5397,4.4869,0.0,0.0,4.4016,4.3828,4.5207,4.6115,4.6752,4.8764,4.9863,5.0335,5.0964,5.1229,5.1229,0.0,0.0,0.0,0.0,0.0,0.0,0.0,0.0,0.0,0.0,0.0,0.0,0.0,0.0,0.0,0.0,0.0,0.0,0.0,0.0,2.2203,2.334,2.491,2.6524,2.8218,2.9429,3.1901,3.5729,3.5878,3.6716,3.8128,3.6847,3.5928,3.5288,3.4491,3.4182,3.4306,3.3746,3.3604,3.3784,0.0,0.0,0.0,0.0,0.0,0.0,0.0,0.0,0.0,0.0,0.0,0.0,0.0,0.0,0.0,2.2656,2.2656,2.3248,2.5924,2.6771,2.7561,3.0482,3.1436,3.1637,3.1587,3.1687,3.2039,0.0,0.0,0.0,0.0,0.0,0.0,0.0,0.0,0.0,0.0,0.0,0.0,0.0,0.0,0.0,0.0,0.0,0.0,0.0,0.0,0.0,0.0,0.0,0.0,0.0,0.0,0.0,4.5497,4.5347,4.5497,4.5924,4.5497,4.5296,4.5271,4.4694,4.4192,4.379,4.3664,4.3363,4.3073,4.4427,4.5661,4.6785,4.8539,5.0017,5.1229,5.1229,5.1229,5.1229,0.0,0.0,0.0,0.0,0.0,0.0,0.0,0.0,0.0,0.0,0.0,0.0,0.0,0.0,0.0,0.0,0.0,0.0,0.0,0.0,2.2024,2.2733,2.5173,2.7688,3.0253,3.0954,3.2981,3.6417,3.6985,3.7345,3.7434,3.6197,3.5206,3.4552,3.327,3.3053,3.3593,3.3516,3.3875,3.4503,3.516,0.0,0.0,0.0,0.0,0.0,0.0,0.0,0.0,0.0,0.0,0.0,0.0,0.0,2.3042,2.3042,2.3042,2.3687,2.6471,2.762,2.8448,3.0211,3.0306,3.0758,3.3746,3.3671,3.3589,3.5676,0.0,0.0,0.0,0.0,0.0,0.0,0.0,0.0,0.0,0.0,0.0,0.0,0.0,0.0,0.0,0.0,0.0,0.0,0.0,0.0,0.0,0.0,0.0,0.0,0.0,0.0,4.5497,4.4945,4.4694,4.4744,4.4694,4.4694,4.4669,4.4116,4.384,4.3765,4.3263,4.3011,4.3073,4.4427,4.5048,4.5395,4.8139,5.0017,5.1229,5.1229,5.1229,5.1229,0.0,0.0,0.0,0.0,0.0,0.0,0.0,0.0,0.0,0.0,0.0,0.0,0.0,0.0,0.0,0.0,0.0,0.0,0.0,0.0,2.2173,2.3191,2.5405,2.7649,2.9894,3.2169,3.4961,3.8302,3.896,3.8422,3.684,3.592,3.5118,3.4494,3.4038,3.4171,3.4716,3.4297,3.4485,3.51,3.4921,3.4907,0.0,0.0,0.0,0.0,0.0,0.0,0.0,0.0,2.7011,2.6227,2.5426,2.522,2.5231,2.5231,2.5231,2.5589,2.7305,2.8472,2.9669,3.168,3.1989,3.2441,3.468,3.5981,3.7111,3.8642,3.9496,0.0,0.0,0.0,0.0,0.0,0.0,0.0,0.0,0.0,0.0,0.0,0.0,0.0,0.0,0.0,0.0,0.0,0.0,0.0,0.0,0.0,0.0,0.0,0.0,0.0,0.0,4.4217,4.394,4.3614,4.394,4.4116,4.4091,4.3539,4.3288,4.3263,4.3062,4.2986,4.3042,4.3547,4.4264,4.5289,4.8088,5.0017,5.1229,5.1229,5.1229,5.1229,0.0,0.0,0.0,0.0,0.0,0.0,0.0,0.0,0.0,0.0,0.0,0.0,0.0,0.0,0.0,0.0,0.0,0.0,2.1928,2.2144,2.2626,2.355,2.5152,2.6936,2.8933,3.1812,3.4999,3.8482,3.914,3.8332,3.6181,3.5519,3.4942,3.4512,3.4325,3.4705,3.5462,3.4758,3.4911,3.5459,3.4981,3.507,0.0,0.0,0.0,0.0,0.0,0.0,0.0,0.0,2.8183,2.7443,2.6771,2.6517,2.6524,2.6524,2.6524,2.6707,2.7804,2.8671,2.9773,3.1988,3.3068,3.4248,3.6737,3.8417,3.9948,4.1932,4.2534,4.274,0.0,0.0,0.0,0.0,0.0,0.0,0.0,0.0,0.0,0.0,0.0,0.0,0.0,0.0,0.0,0.0,0.0,0.0,0.0,0.0,0.0,0.0,0.0,0.0,0.0,4.3639,4.3338,4.2986,4.3363,4.3539,4.3539,4.3162,4.2986,4.2961,4.2785,4.2766,4.2766,4.3005,4.4095,4.5877,4.7794,4.9501,5.0853,5.0853,5.105,5.1229,0.0,0.0,0.0,0.0,0.0,0.0,0.0,0.0,0.0,0.0,0.0,0.0,0.0,0.0,0.0,0.0,0.0,0.0,2.3371,2.3406,2.3437,2.3571,2.4282,2.5594,2.75,2.9545,3.2513,3.6477,3.7075,3.6746,3.5459,3.4771,3.4503,3.4442,3.3814,3.4262,3.5459,3.4771,3.4891,3.5519,3.5489,3.5489,3.5519,0.0,0.0,0.0,0.0,0.0,0.0,0.0,2.9821,2.8124,2.8124,2.74,2.6524,2.6524,2.6524,2.6748,2.7804,2.8148,2.8651,3.0891,3.3093,3.5859,4.0297,4.0874,4.1656,4.5547,4.4995,4.384,4.384,0.0,0.0,0.0,0.0,0.0,0.0,0.0,0.0,0.0,0.0,0.0,0.0,0.0,0.0,0.0,0.0,0.0,0.0,0.0,0.0,0.0,0.0,0.0,0.0,4.3237,4.2961,4.2961,4.2961,4.2961,4.2961,4.2961,4.2961,4.2936,4.2439,4.2187,4.2272,4.297,4.4802,4.7166,4.7166,4.8401,5.0196,5.0196,5.0584,5.1199,0.0,0.0,0.0,0.0,0.0,0.0,0.0,0.0,0.0,0.0,0.0,0.0,0.0,0.0,0.0,0.0,0.0,0.0,2.3211,2.333,2.3061,2.2316,2.338,2.4028,2.4156,2.701,3.0661,3.5102,3.5729,3.54,3.4083,3.3873,3.371,3.3543,3.4483,3.4715,3.4451,3.4486,3.4891,3.5459,3.4981,3.507,3.5519,0.0,0.0,0.0,0.0,0.0,0.0,0.0,0.0,0.0,2.9496,2.9091,2.8831,2.8831,2.8831,2.887,2.9209,2.9871,3.0968,3.3158,0.0,0.0,0.0,4.2936,0.0,0.0,4.6728,4.5673,0.0,0.0,0.0,0.0,0.0,0.0,0.0,0.0,0.0,0.0,0.0,0.0,0.0,0.0,0.0,0.0,0.0,0.0,0.0,0.0,0.0,0.0,0.0,0.0,0.0,0.0,4.1831,4.1831,4.1831,4.2032,4.2464,4.2464,4.2183,4.1806,4.1656,4.2093,4.297,4.4077,4.5594,4.7166,4.7166,4.8185,4.9553,4.9553,4.9673,4.9853,0.0,0.0,0.0,0.0,0.0,0.0,0.0,0.0,0.0,0.0,2.2936,2.2868,0.0,0.0,0.0,0.0,0.0,0.0,0.0,2.3845,2.3284,2.214,2.2609,2.2965,2.3058,2.6234,2.9171,3.1723,3.3182,3.3634,3.3125,3.3933,3.4335,3.4526,3.6004,3.6175,3.5346,3.5291,3.537,3.5459,3.504,3.513,3.5519,0.0,0.0,0.0,0.0,0.0,0.0,0.0,0.0,0.0,3.0507,3.0101,2.9804,2.9804,2.9628,2.9553,3.0005,3.0733,3.2039,3.47,3.7211,4.0074,4.4192,0.0,0.0,0.0,0.0,0.0,0.0,0.0,0.0,0.0,0.0,0.0,0.0,0.0,0.0,0.0,0.0,0.0,0.0,0.0,0.0,0.0,0.0,0.0,0.0,0.0,0.0,0.0,0.0,0.0,0.0,0.0,0.0,4.2025,4.2025,4.2394,4.3023,4.2192,4.1656,4.1329,4.161,4.2602,4.4141,4.4872,4.5997,4.7261,4.7261,4.7922,4.891,4.891,4.909,4.9299,0.0,0.0,0.0,0.0,0.0,0.0,0.0,0.0,0.0,0.0,2.3932,2.3763,0.0,0.0,0.0,0.0,0.0,0.0,0.0,0.0,2.3888,2.2758,2.1983,2.2196,2.3443,2.6442,2.7709,2.7305,2.9982,3.1691,3.2437,3.4377,3.566,3.6347,3.7699,3.7878,3.7029,3.6593,3.6058,3.5519,3.5519,3.5519,3.5519,3.5519,0.0,0.0,0.0,0.0,0.0,0.0,0.0,0.0,3.1241,3.062,2.9895,2.9818,2.9428,2.9214,3.0382,3.111,3.2365,3.5801,3.8868,0.0,4.6401,4.8937,5.0695,5.1674,0.0,0.0,0.0,0.0,0.0,0.0,0.0,0.0,0.0,0.0,0.0,0.0,0.0,0.0,0.0,0.0,0.0,0.0,0.0,0.0,0.0,0.0,0.0,0.0,0.0,0.0,0.0,0.0,0.0,0.0,4.3174,4.3567,4.4138,4.2398,4.1524,4.1554,4.2315,4.3712,4.5389,4.5553,4.6255,4.7309,4.7309,4.7668,4.8207,4.8207,4.8566,4.912,0.0,0.0,0.0,0.0,0.0,0.0,0.0,0.0,0.0,0.0,0.0,0.0,0.0,0.0,0.0,0.0,0.0,0.0,0.0,0.0,2.3954,2.2748,2.1532,2.1457,2.2641,2.3848,2.4886,2.5689,2.8426,3.0456,3.175,3.3098,3.4002,3.4608,3.6709,3.6551,3.4787,3.5433,3.5639,3.5519,3.5519,3.5519,3.5519,3.5519,3.5519,0.0,0.0,0.0,0.0,0.0,0.0,0.0,3.1683,3.1082,3.0771,3.0011,2.9704,2.9854,3.0934,3.1964,0.0,3.7436,4.2057,4.6301,4.856,4.9766,5.0368,0.0,0.0,0.0,0.0,0.0,0.0,0.0,0.0,0.0,0.0,0.0,0.0,0.0,0.0,0.0,0.0,0.0,0.0,0.0,0.0,0.0,0.0,0.0,0.0,0.0,0.0,0.0,4.0701,4.1235,4.1686,0.0,4.2971,4.352,4.3677,4.365,4.3431,4.3069,4.4227,4.5,4.5479,4.6506,4.7062,4.7309,4.7309,4.7399,4.7519,4.7519,4.7608,4.7728,0.0,0.0,0.0,0.0,0.0,0.0,0.0,0.0,0.0,0.0,0.0,0.0,0.0,0.0,0.0,0.0,0.0,0.0,0.0,0.0,0.0,2.2607,2.1611,2.1292,2.1709,2.2894,2.3839,2.4537,2.6716,2.8754,3.0727,3.2407,3.3648,3.4565,3.6877,3.6896,3.5213,3.574,3.5789,3.5519,3.5519,3.5519,3.5519,3.5519,3.5519,0.0,0.0,0.0,0.0,0.0,0.0,0.0,0.0,0.0,3.1093,3.062,2.9936,2.9679,0.0,0.0,0.0,3.9923,0.0,4.7506,4.8887,4.9213,0.0,0.0,0.0,0.0,0.0,0.0,0.0,0.0,0.0,0.0,0.0,0.0,0.0,0.0,0.0,0.0,0.0,0.0,0.0,0.0,0.0,0.0,0.0,0.0,0.0,0.0,0.0,0.0,4.1029,4.0797,4.1591,4.3409,4.3456,4.4116,4.5281,4.4358,4.4093,4.4442,4.5115,4.5734,4.6344,4.7019,4.7309,4.7309,4.7309,4.7309,4.7309,4.7309,4.7309,4.7309,0.0,0.0,0.0,0.0,0.0,0.0,0.0,0.0,0.0,0.0,0.0,0.0,0.0,0.0,0.0,0.0,0.0,0.0,0.0,0.0,0.0,2.2589,2.1982,2.1498,2.1158,2.2652,2.3448,2.3484,2.511,2.7165,2.9585,3.182,3.3477,3.4673,3.684,3.7168,3.6097,3.6231,3.5998,3.5519,3.5519,3.5519,3.5519,3.5519,0.0,0.0,0.0,0.0,0.0,0.0,0.0,0.0,0.0,0.0,3.1609,3.1278,3.0321,0.0,0.0,3.2968,3.6031,4.1907,4.5045,0.0,4.7983,4.7908,0.0,0.0,0.0,0.0,0.0,0.0,0.0,0.0,0.0,0.0,0.0,0.0,0.0,0.0,0.0,0.0,0.0,0.0,0.0,0.0,0.0,0.0,0.0,0.0,0.0,0.0,0.0,4.0643,4.1269,4.0465,4.1739,4.507,4.4442,4.5252,4.7222,4.5115,4.472,4.5734,4.5734,4.6344,4.7309,4.7309,4.7309,4.7309,4.7309,4.7309,4.7309,4.7309,4.7309,4.7309,0.0,0.0,0.0,0.0,0.0,0.0,0.0,0.0,0.0,0.0,2.5987,2.619,0.0,0.0,0.0,0.0,0.0,0.0,0.0,0.0,0.0,2.3277,2.2572,2.2066,2.1789,2.2361,2.2503,2.2241,2.4178,2.6311,2.8558,3.0585,3.2028,3.3008,3.4702,3.5027,3.4361,3.5251,3.5579,3.5519,3.5519,3.5519,3.5519,3.5519,0.0,0.0,0.0,0.0,0.0,0.0,0.0,0.0,0.0,0.0,0.0,0.0,0.0,0.0,0.0,0.0,3.814,0.0,4.3338,4.5121,0.0,0.0,0.0,0.0,0.0,0.0,0.0,0.0,0.0,0.0,0.0,0.0,0.0,0.0,0.0,0.0,0.0,0.0,0.0,0.0,0.0,0.0,0.0,0.0,0.0,0.0,3.9873,3.9798,3.9798,0.0,3.9929,4.0895,4.2181,4.3787,4.5824,4.6975,4.7309,4.6975,4.6887,4.7062,4.7062,4.7149,4.7309,4.7309,4.7309,4.7309,4.7309,4.7309,4.7309,4.7309,4.7309,4.7309,0.0,0.0,0.0,0.0,0.0,0.0,0.0,0.0,0.0,0.0,0.0,2.6002,0.0,0.0,0.0,0.0,0.0,0.0,0.0,0.0,0.0,2.3277,2.2896,2.2366,2.1546,2.2227,2.2318,2.1639,2.3971,2.6215,2.8331,3.0712,3.2293,3.3273,3.4747,3.5059,3.456,3.5215,3.5519,3.5519,3.5519,3.528,3.4981,0.0,0.0,0.0,0.0,0.0,0.0,0.0,0.0,0.0,0.0,0.0,0.0,0.0,0.0,0.0,3.2127,3.4424,3.7188,0.0,4.1831,4.3463,4.4342,0.0,0.0,0.0,0.0,0.0,0.0,0.0,0.0,0.0,0.0,0.0,0.0,0.0,0.0,0.0,0.0,0.0,0.0,0.0,0.0,0.0,0.0,0.0,0.0,3.9823,3.9697,3.9697,3.9697,0.0,4.0743,4.0592,4.1541,4.3504,4.5343,4.6594,4.7309,4.7309,4.7309,4.7309,4.7309,4.7309,4.7309,4.7309,4.7309,4.7309,4.7309,4.7309,4.7309,4.7309,4.7309,4.7309,0.0,0.0,0.0,0.0,0.0,0.0,0.0,0.0,0.0,0.0,0.0,0.0,0.0,0.0,0.0,0.0,0.0,0.0,0.0,0.0,0.0,2.3831,2.3644,2.2955,2.182,2.2373,2.2287,2.1403,2.3678,2.599,2.8414,3.0856,3.2861,3.4428,3.5237,3.5209,3.4635,3.5027,3.5258,3.5346,3.4802,0.0,0.0,0.0,0.0,0.0,0.0,0.0,0.0,0.0,0.0,0.0,0.0,0.0,0.0,0.0,0.0,0.0,0.0,0.0,3.5257,3.7814,3.9672,4.1282,0.0,0.0,0.0,0.0,0.0,0.0,0.0,0.0,0.0,0.0,0.0,0.0,0.0,0.0,0.0,0.0,0.0,0.0,0.0,0.0,0.0,0.0,0.0,0.0,3.9697,3.9572,3.9546,3.9697,3.9546,3.9956,4.0911,4.0611,4.1656,4.4022,4.5252,4.63,4.707,4.707,4.695,4.68,4.716,4.7309,4.7309,4.7309,4.7309,4.7309,4.7309,4.7309,4.7309,4.7309,4.7309,4.7309,0.0,0.0,0.0,0.0,0.0,0.0,0.0,0.0,0.0,0.0,0.0,0.0,0.0,0.0,2.5605,2.6131,0.0,0.0,0.0,0.0,0.0,2.5739,2.5065,0.0,2.3399,2.2936,2.2287,2.1403,2.2847,2.5276,2.852,3.0525,3.3158,3.6222,3.5591,3.4714,3.3794,3.4192,3.4654,3.492,0.0,0.0,0.0,0.0,0.0,0.0,0.0,0.0,0.0,0.0,0.0,0.0,0.0,0.0,0.0,0.0,0.0,0.0,0.0,3.2217,0.0,3.455,3.6232,0.0,0.0,0.0,0.0,0.0,0.0,0.0,0.0,0.0,0.0,0.0,0.0,0.0,0.0,0.0,0.0,0.0,0.0,0.0,0.0,0.0,0.0,0.0,0.0,0.0,3.9697,3.9195,3.9145,3.9672,3.9195,3.8969,3.9045,4.14,4.3463,4.5298,4.6594,4.6894,4.6339,4.6339,4.6022,4.5454,4.6741,4.7309,4.7309,4.7309,4.7309,4.7309,4.7309,4.7309,4.7309,4.7309,4.7309,4.7309,0.0,0.0,0.0,0.0,0.0,0.0,0.0,0.0,0.0,0.0,0.0,0.0,0.0,2.6133,2.5989,2.6182,2.6202,0.0,0.0,0.0,0.0,2.5199,2.4936,2.4534,2.398,2.3768,2.305,2.1786,2.3578,2.5113,2.6428,2.9479,3.1717,3.3231,3.4324,3.4758,3.4658,3.3631,0.0,0.0,0.0,0.0,0.0,0.0,0.0,0.0,0.0,0.0,0.0,0.0,0.0,0.0,0.0,0.0,0.0,0.0,0.0,0.0,0.0,0.0,0.0,3.3391,3.4901,0.0,0.0,0.0,0.0,0.0,0.0,0.0,0.0,0.0,0.0,0.0,0.0,0.0,0.0,0.0,0.0,0.0,0.0,0.0,0.0,0.0,0.0,0.0,0.0,0.0,3.8617,3.8417,3.8789,3.9757,3.955,3.9808,4.0568,4.1478,4.2642,4.4106,4.4574,4.5092,4.5663,4.5663,4.5514,4.5334,4.5813,4.6022,4.6052,4.6501,4.6681,4.6711,4.713,4.7309,4.7309,4.7309,4.7309,4.7309,0.0,0.0,0.0,0.0,0.0,0.0,0.0,0.0,0.0,0.0,0.0,0.0,0.0,0.0,2.5741,2.5741,2.6123,2.6168,2.5838,2.5655,2.5536,2.5385,2.5385,2.5269,2.4978,2.4632,2.3823,2.2504,2.3645,2.4545,2.5253,2.782,2.9764,3.1192,3.2386,3.3725,3.5046,0.0,0.0,3.3485,0.0,0.0,3.1536,0.0,0.0,0.0,0.0,0.0,0.0,0.0,0.0,0.0,0.0,0.0,0.0,0.0,0.0,0.0,3.2909,0.0,0.0,0.0,0.0,0.0,0.0,0.0,0.0,0.0,0.0,0.0,0.0,0.0,0.0,0.0,0.0,0.0,0.0,0.0,0.0,0.0,0.0,0.0,0.0,0.0,0.0,0.0,0.0,0.0,3.8015,3.818,3.8873,4.0074,4.0121,4.0757,4.2105,4.1954,4.2575,4.4048,4.4048,4.4343,4.4975,4.4975,4.4855,4.4646,4.4646,4.4885,4.5334,4.5783,4.5963,4.6052,4.6711,4.698,4.701,4.7219,4.7309,4.7309,0.0,0.0,0.0,0.0,0.0,0.0,0.0,0.0,0.0,0.0,0.0,0.0,0.0,0.0,0.0,2.4876,2.5385,2.5661,2.5661,2.5661,2.5912,2.6499,0.0,0.0,2.6499,2.5511,2.4492,2.3526,2.2981,2.3545,2.5126,2.5551,2.7456,3.0513,3.002,3.1607,3.4675,0.0,3.4756,3.3671,0.0,3.0959,3.1461,0.0,0.0,0.0,3.2014,3.2137,0.0,0.0,0.0,0.0,0.0,0.0,0.0,0.0,0.0,0.0,0.0,0.0,0.0,0.0,0.0,0.0,0.0,0.0,0.0,0.0,0.0,0.0,0.0,0.0,0.0,0.0,0.0,0.0,0.0,0.0,0.0,0.0,0.0,0.0,0.0,0.0,0.0,0.0,0.0,3.7965,3.7965,3.8562,3.9478,4.0669,4.0758,4.1639,4.3358,4.2882,4.3491,4.5244,4.5244,4.4915,4.4287,4.4287,4.3928,4.329,4.329,4.4047,4.5244,4.5244,4.5274,4.5334,4.6052,4.6279,4.6411,4.707,4.7309,4.7309,0.0,0.0,0.0,0.0,0.0,0.0,0.0,0.0,0.0,0.0,0.0,0.0,2.6269,2.6458,2.6766,2.7168,2.7318,2.7419,2.7419,2.7419,2.7318,2.7102,2.67,2.6499,2.6499,2.5441,2.4397,2.3526,2.3588,2.3351,2.2853,2.4386,2.639,2.8855,2.9926,3.1314,3.2842,3.1813,0.0,3.3144,3.1336,3.1662,0.0,0.0,0.0,0.0,0.0,3.2905,0.0,0.0,3.3631,3.4024,0.0,0.0,0.0,0.0,0.0,0.0,3.4211,0.0,0.0,0.0,0.0,0.0,0.0,0.0,0.0,0.0,0.0,0.0,0.0,0.0,0.0,0.0,0.0,0.0,0.0,0.0,0.0,0.0,0.0,0.0,0.0,0.0,0.0,0.0,0.0,3.6857,3.6857,3.8633,4.015,4.1312,4.2167,4.282,4.3312,4.3175,4.3337,4.3828,4.3828,4.3738,4.3559,4.3559,4.3469,4.329,4.329,4.3499,4.3858,4.4377,4.4586,4.4706,4.5873,4.6279,4.6411,4.707,4.7309,4.7309,0.0,0.0,0.0,0.0,0.0,0.0,0.0,0.0,0.0,0.0,0.0,0.0,2.6515,2.7656,2.8273,2.8122,2.8097,2.8097,2.8097,2.8097,2.7971,2.7645,2.7318,2.6966,2.6514,2.584,2.4802,2.3411,2.3623,2.3165,2.2168,2.3297,2.487,2.6778,0.0,0.0,0.0,0.0,0.0,0.0,3.2441,0.0,0.0,3.3671,3.4098,0.0,0.0,0.0,3.5192,3.4554,3.4326,0.0,0.0,0.0,0.0,0.0,0.0,0.0,0.0,0.0,0.0,0.0,0.0,0.0,0.0,3.1855,0.0,0.0,0.0,0.0,0.0,0.0,0.0,0.0,0.0,0.0,0.0,0.0,0.0,0.0,0.0,0.0,0.0,0.0,0.0,0.0,3.6581,3.6849,3.7815,3.9139,4.0618,4.2234,4.2941,4.329,4.329,4.329,4.314,4.294,4.317,4.314,4.294,4.317,4.329,4.329,4.329,4.329,4.3319,4.3708,4.3858,4.4018,4.5065,4.5663,4.5963,4.6651,4.707,4.7309,0.0,0.0,0.0,0.0,0.0,0.0,0.0,0.0,0.0,0.0,2.357,2.4604,2.6774,2.8631,0.0,0.0,2.8373,2.8298,2.8298,2.8298,2.8273,2.8197,2.8197,2.7669,2.651,2.6444,2.536,2.3282,2.3265,2.3001,2.2519,2.2686,2.3545,2.5041,0.0,0.0,0.0,0.0,0.0,3.234,3.3922,3.4981,0.0,0.0,3.7462,0.0,3.7437,3.696,3.6471,3.5598,3.4792,0.0,0.0,0.0,0.0,0.0,3.4476,0.0,0.0,0.0,0.0,0.0,0.0,0.0,3.1452,3.1257,3.1037,0.0,0.0,0.0,0.0,0.0,0.0,0.0,0.0,0.0,0.0,0.0,0.0,0.0,0.0,0.0,0.0,0.0,0.0,3.6355,3.6329,3.735,3.9754,3.983,4.0831,4.313,4.311,4.308,4.308,4.314,4.288,4.2291,4.291,4.291,4.241,4.297,4.323,4.329,4.329,4.329,4.329,4.329,4.329,4.3349,4.4047,4.4676,4.5274,4.6052,4.6681,4.7219,0.0,0.0,0.0,0.0,0.0,0.0,0.0,0.0,0.0,0.0,2.5738,2.7595,2.9875,2.9748,0.0,0.0,2.9955,2.9453,2.9453,2.9453,2.9252,2.8762,2.8737,2.8063,2.6548,2.6014,2.4966,2.3282,2.3177,2.2926,2.2519,2.3754,2.4998,2.6213,2.7279,0.0,0.0,0.0,0.0,3.229,3.3068,0.0,3.6835,3.6656,3.7136,3.799,3.7889,3.7789,3.7486,0.0,3.4418,3.3024,0.0,0.0,0.0,0.0,0.0,0.0,0.0,0.0,0.0,0.0,0.0,0.0,3.1823,3.1638,3.1703,0.0,0.0,0.0,0.0,0.0,0.0,0.0,0.0,0.0,0.0,0.0,0.0,0.0,0.0,0.0,0.0,0.0,3.5307,3.5633,3.5658,3.689,3.9754,3.9373,4.0151,4.2512,4.2043,4.1773,4.1773,4.2321,4.2261,4.1602,4.2261,4.253,4.241,4.253,4.2851,4.329,4.329,4.329,4.329,4.329,4.329,4.3349,4.4047,4.4377,4.4646,4.5831,4.6369,4.6591,0.0,0.0,0.0,0.0,0.0,0.0,0.0,0.0,0.0,2.4987,2.739,2.9102,2.9451,0.0,0.0,0.0,0.0,0.0,0.0,2.9804,2.9654,2.9377,2.9352,2.8705,2.7347,2.7009,2.621,2.4914,2.424,2.3851,2.3649,2.4449,2.542,2.6565,2.7602,0.0,0.0,0.0,3.1311,3.1964,3.3922,0.0,3.7236,3.7814,3.8366,3.8843,3.8843,3.8492,3.7713,3.5734,3.4483,0.0,0.0,3.237,3.3041,0.0,3.2627,3.2944,0.0,0.0,0.0,3.4214,0.0,0.0,0.0,3.259,3.1629,0.0,0.0,0.0,0.0,0.0,0.0,0.0,0.0,0.0,0.0,0.0,0.0,0.0,0.0,0.0,0.0,0.0,3.4344,3.5429,3.5737,3.7034,3.9606,3.9422,4.0055,4.1825,4.1602,4.1422,4.1422,4.1752,4.1572,4.0905,4.1602,4.1752,4.1452,4.2111,4.259,4.288,4.314,4.329,4.329,4.329,4.329,4.3319,4.3648,4.4227,4.4885,4.5574,4.6232,4.686,0.0,0.0,0.0,0.0,0.0,0.0,0.0,0.0,0.0,2.5752,2.834,2.9694,0.0,0.0,0.0,0.0,0.0,0.0,0.0,0.0,2.9535,2.9628,2.9729,2.9238,2.7981,2.8036,2.7562,2.6524,2.5378,2.4787,2.4787,2.5041,2.5504,2.6213,2.7723,0.0,0.0,0.0,0.0,3.2441,0.0,3.6556,3.691,3.8693,3.9371,3.9396,3.9622,3.8969,3.7739,3.5956,0.0,3.4279,3.2114,3.2337,0.0,0.0,0.0,0.0,0.0,0.0,0.0,0.0,0.0,3.4761,0.0,0.0,0.0,3.043,0.0,0.0,0.0,0.0,0.0,0.0,0.0,0.0,0.0,0.0,0.0,0.0,0.0,0.0,0.0,0.0,3.3539,3.5026,3.569,3.701,3.9315,3.9423,3.9974,4.1175,4.1055,4.0995,4.0995,4.1115,4.0876,4.0217,4.0876,4.0905,4.0427,4.1542,4.2171,4.244,4.291,4.317,4.329,4.329,4.329,4.329,4.329,4.4047,4.5125,4.5244,4.6082,4.713,2.1112,2.1093,0.0,0.0,0.0,0.0,0.0,0.0,0.0,2.6641,2.8133,0.0,0.0,0.0,0.0,0.0,0.0,0.0,3.0966,0.0,2.8509,2.8975,2.9528,2.9065,2.7418,2.7846,2.7562,2.6524,2.5378,2.4787,2.483,2.5839,2.5839,2.5126,2.8251,0.0,0.0,0.0,3.2767,0.0,3.6006,3.5805,0.0,3.7387,3.8191,3.8341,3.9346,3.8969,3.7965,0.0,3.6332,3.4675,0.0,3.3363,0.0,0.0,0.0,0.0,0.0,0.0,0.0,0.0,3.5921,0.0,0.0,0.0,3.4177,3.2581,0.0,0.0,0.0,0.0,0.0,0.0,0.0,0.0,0.0,0.0,0.0,0.0,0.0,0.0,0.0,0.0,0.0,3.3828,3.4504,3.6062,3.8656,3.8802,3.9334,4.0479,3.9948,3.9649,3.9649,4.0217,4.0187,3.9493,4.0187,4.0457,4.0397,4.0546,4.1265,4.241,4.247,4.2791,4.329,4.329,4.329,4.329,4.329,4.3738,4.4496,4.5065,4.5783,4.6531,2.1641,2.1621,0.0,0.0,0.0,0.0,0.0,0.0,0.0,2.8027,0.0,0.0,0.0,0.0,0.0,0.0,0.0,2.9575,0.0,0.0,0.0,2.9294,2.9628,2.9635,2.9229,2.9116,2.853,2.7441,2.6337,2.5462,2.483,2.5964,2.588,2.4914,2.7602,0.0,2.8368,0.0,3.1577,0.0,0.0,0.0,0.0,3.7889,3.8994,3.9044,3.9521,3.8969,3.7914,0.0,3.6458,0.0,0.0,0.0,0.0,0.0,0.0,0.0,0.0,0.0,0.0,0.0,0.0,0.0,0.0,0.0,3.4226,0.0,0.0,0.0,0.0,0.0,0.0,0.0,0.0,0.0,0.0,0.0,0.0,0.0,0.0,0.0,0.0,0.0,0.0,0.0,0.0,3.553,3.782,3.8311,3.8943,3.9792,3.9559,3.9373,3.9373,3.9679,3.9679,3.9373,3.9709,3.9828,3.9858,4.0636,4.1265,4.1871,4.2611,4.309,4.329,4.329,4.329,4.329,4.329,4.3917,4.4915,4.5185,4.5963,4.692,2.2227,0.0,0.0,0.0,0.0,0.0,0.0,0.0,0.0,0.0,0.0,0.0,3.2637,3.2402,0.0,0.0,3.1889,3.0781,0.0,0.0,2.9617,0.0,0.0,0.0,0.0,3.0231,2.947,2.8298,2.7103,2.5922,2.483,2.563,2.542,2.4425,0.0,2.7706,2.7414,0.0,0.0,3.217,3.5018,3.611,3.6307,3.8442,3.9421,3.9697,3.9697,3.9069,3.809,3.7161,3.6734,0.0,3.457,0.0,0.0,0.0,0.0,0.0,3.3119,0.0,0.0,0.0,0.0,0.0,0.0,0.0,0.0,0.0,0.0,0.0,0.0,0.0,0.0,0.0,0.0,0.0,0.0,0.0,0.0,0.0,0.0,0.0,0.0,0.0,0.0,0.0,3.2908,0.0,3.6428,3.7719,3.8631,3.911,3.932,3.9373,3.9373,3.9373,3.9373,3.9373,3.9373,3.9529,3.9738,4.0666,4.1362,4.1752,4.2641,4.314,4.329,4.329,4.329,4.329,4.329,4.4137,4.5304,4.5304,4.6142,4.7309,2.3062,2.2773,0.0,0.0,0.0,0.0,0.0,0.0,0.0,0.0,0.0,0.0,0.0,0.0,0.0,0.0,0.0,3.2435,3.3045,0.0,2.8921,0.0,0.0,2.9915,0.0,0.0,3.0013,2.8886,2.7286,2.5922,2.4787,2.483,2.4253,2.3295,2.6367,2.7697,2.7891,3.1228,3.3886,3.592,3.737,3.8567,3.9421,0.0,3.8743,3.9697,3.9697,0.0,0.0,3.8165,3.7588,0.0,0.0,0.0,0.0,0.0,0.0,0.0,0.0,0.0,0.0,0.0,0.0,0.0,0.0,0.0,3.6918,0.0,0.0,0.0,0.0,0.0,0.0,0.0,0.0,0.0,0.0,0.0,0.0,0.0,0.0,0.0,0.0,0.0,0.0,0.0,3.1599,0.0,3.4269,3.6902,3.8392,3.8422,3.908,3.9373,3.9373,3.9373,3.9373,3.9373,3.9373,3.9738,4.0367,4.0397,4.1115,4.2381,4.241,4.2761,4.329,4.329,4.329,4.329,4.329,4.4137,4.5304,4.5304,4.6142,4.7309,0.0,0.0,0.0,0.0,0.0,0.0,0.0,2.7617,0.0,0.0,0.0,0.0,0.0,3.7226,3.7285,0.0,0.0,3.4962,3.3428,3.2292,0.0,0.0,0.0,3.191,0.0,0.0,0.0,0.0,2.8539,2.7141,2.5357,2.6471,2.5983,2.4337,0.0,2.7966,0.0,0.0,0.0,0.0,0.0,3.8567,4.0149,0.0,0.0,3.9697,3.9697,3.9094,0.0,3.8065,3.7387,3.6581,3.6006,3.5805,3.578,3.5558,3.5931,0.0,0.0,0.0,3.6505,3.3929,0.0,0.0,0.0,0.0,0.0,0.0,0.0,0.0,0.0,0.0,0.0,0.0,0.0,0.0,0.0,0.0,0.0,0.0,0.0,0.0,0.0,0.0,0.0,2.9083,3.0608,3.2314,0.0,3.5717,3.7075,3.8362,3.8631,3.896,3.9373,3.9373,3.9373,3.9439,3.9858,4.0187,4.0427,4.1294,4.1991,4.241,4.2821,4.312,4.329,4.329,4.329,4.329,4.329,4.4137,4.5304,4.5304,4.6142,4.7309,2.3398,0.0,0.0,0.0,0.0,0.0,0.0,0.0,0.0,0.0,3.5195,0.0,3.9434,0.0,3.9336,0.0,3.8848,3.7148,3.4082,3.4553,0.0,3.4008,3.4063,0.0,0.0,0.0,0.0,0.0,0.0,2.8203,2.6238,2.7099,2.6789,2.5463,0.0,2.8277,2.8925,0.0,3.321,0.0,0.0,3.8642,0.0,0.0,3.9823,0.0,0.0,3.922,3.8542,3.814,3.7538,3.681,3.6056,3.5956,3.6031,3.5881,3.6332,3.6734,3.6031,3.6759,0.0,0.0,3.4615,0.0,0.0,0.0,0.0,0.0,0.0,0.0,0.0,0.0,0.0,0.0,0.0,0.0,0.0,0.0,0.0,0.0,0.0,0.0,0.0,0.0,2.7754,2.8487,2.975,3.1439,0.0,0.0,3.6297,3.7973,3.8272,3.8721,3.9373,3.9373,3.9373,3.9403,4.0098,4.0516,4.0786,4.1901,4.253,4.2731,4.315,4.329,4.329,4.329,4.329,4.329,4.329,4.4137,4.5304,4.5304,4.6142,4.7309,0.0,0.0,0.0,0.0,2.4297,0.0,0.0,0.0,3.2676,0.0,3.6484,3.8769,4.0547,4.0703,4.084,4.123,4.0859,0.0,3.5195,3.7016,0.0,0.0,3.645,3.7059,3.6611,0.0,0.0,0.0,0.0,0.0,2.7414,2.6896,2.6648,2.6697,2.8073,0.0,2.9015,3.2769,3.4482,3.4869,3.7717,3.8919,3.9045,3.9471,0.0,4.04,3.9848,3.9647,3.9446,3.8341,3.7939,3.7739,3.6732,3.6006,3.5633,3.6232,3.6455,3.648,3.648,3.6908,3.691,3.5228,0.0,0.0,0.0,0.0,3.8457,0.0,0.0,0.0,0.0,0.0,0.0,0.0,0.0,0.0,0.0,0.0,0.0,0.0,0.0,0.0,0.0,2.7297,2.7769,2.7769,2.9171,0.0,0.0,0.0,0.0,3.7375,3.8003,3.8691,3.9469,3.9433,3.9499,3.9493,4.0187,4.0816,4.1444,4.2141,4.2761,4.329,4.329,4.329,4.329,4.329,4.329,4.329,4.329,4.4137,4.5304,4.5364,4.6202,4.7309,2.3867,2.4473,2.5128,0.0,2.5566,2.6211,0.0,0.0,0.0,0.0,3.8926,4.123,4.3613,4.3281,4.2812,4.2598,4.1914,0.0,0.0,0.0,0.0,3.9833,4.0561,4.0529,3.947,3.7965,0.0,3.3672,0.0,0.0,2.9169,2.9028,2.8707,2.8357,0.0,0.0,3.1406,3.3504,3.567,3.7767,3.8116,3.8969,0.0,0.0,3.9421,3.9848,3.927,3.8818,3.8341,3.7638,3.7136,3.6782,3.6505,3.6304,3.6257,3.681,3.7262,3.7588,3.7588,3.8291,3.8542,3.6458,3.6142,3.6146,0.0,0.0,0.0,0.0,0.0,0.0,0.0,0.0,0.0,0.0,0.0,0.0,0.0,0.0,0.0,0.0,0.0,0.0,0.0,0.0,2.8684,2.8684,2.9613,0.0,0.0,0.0,0.0,3.7345,3.7584,3.8452,4.0127,4.0157,4.0397,4.0876,4.1572,4.1991,4.2171,4.2791,4.314,4.329,4.329,4.329,4.329,4.329,4.329,4.329,4.329,4.4137,4.5424,4.6411,4.701,4.7309,2.4687,0.0,0.0,2.7461,0.0,0.0,3.0156,0.0,0.0,3.6992,3.959,0.0,4.3183,4.373,4.375,4.3125,4.2461,0.0,0.0,0.0,0.0,4.0906,4.2558,4.2544,4.0404,3.9283,0.0,3.468,0.0,0.0,3.0472,3.0254,2.9965,2.9699,0.0,3.1491,0.0,3.3879,3.5914,3.8165,3.7789,0.0,0.0,3.9019,3.912,3.927,3.8693,3.8291,3.7914,3.7362,3.6985,3.6732,3.648,3.6405,3.6505,3.701,3.7563,3.8065,3.8316,3.8843,3.9019,3.7813,3.7111,3.6716,3.653,3.7531,3.8504,0.0,0.0,0.0,0.0,0.0,0.0,0.0,0.0,0.0,0.0,0.0,0.0,0.0,0.0,0.0,0.0,0.0,0.0,0.0,0.0,0.0,0.0,0.0,0.0,0.0,3.7973,3.896,4.0397,4.0965,4.1332,4.1384,4.2081,4.241,4.241,4.303,4.329,4.329,4.329,4.329,4.329,4.329,4.329,4.3349,4.3917,4.4825,4.5873,4.692,4.7309,4.7309,0.0,0.0,0.0,0.0,0.0,0.0,0.0,3.3887,0.0,3.7109,0.0,4.1758,4.1758,4.334,4.4043,4.3144,0.0,4.1367,3.9062,4.1751,4.2512,4.0438,4.3307,4.3442,4.0304,3.9813,0.0,0.0,0.0,0.0,3.1386,3.0934,3.0708,3.0758,0.0,0.0,0.0,3.4073,3.568,0.0,3.7262,3.7663,3.8266,3.8718,3.8818,3.8668,3.8115,3.7889,3.7814,3.7262,3.7086,3.6985,3.6556,3.6405,3.6505,3.701,3.7513,3.8015,3.8592,3.8768,3.8793,3.8668,3.7914,3.7324,3.7722,3.8291,3.8961,3.9536,3.9594,0.0,0.0,0.0,0.0,0.0,0.0,0.0,0.0,0.0,0.0,0.0,0.0,0.0,0.0,0.0,0.0,0.0,0.0,0.0,0.0,0.0,0.0,0.0,3.8631,0.0,4.0636,0.0,4.2201,4.1773,4.2291,4.253,4.256,4.306,4.329,4.329,4.329,4.329,4.329,4.329,4.3349,4.3559,4.4825,4.5723,4.6411,4.707,4.7309,4.7309,0.0,0.0,0.0,0.0,0.0,3.4219,3.5664,3.7266,3.8926,4.0684,4.3223,4.4883,4.4883,4.459,4.4043,4.3144,4.2363,0.0,0.0,0.0,0.0,4.2764,4.4035,4.3511,4.09,3.9511,3.7506,0.0,0.0,0.0,3.1386,3.1286,3.126,0.0,0.0,0.0,3.3646,3.4399,0.0,3.7236,3.7688,3.8492,3.9371,3.9019,3.8567,3.809,3.7538,3.7337,3.7236,3.6732,3.6556,3.6531,3.643,3.6405,3.6505,3.701,3.7262,3.7437,3.8015,3.8165,3.804,3.7588,3.7337,3.7084,3.6767,3.7462,3.855,3.9624,4.0133,4.0334,4.0278,0.0,0.0,0.0,0.0,0.0,0.0,0.0,0.0,0.0,0.0,0.0,0.0,0.0,0.0,0.0,0.0,0.0,0.0,0.0,0.0,0.0,0.0,0.0,0.0,0.0,0.0,4.3808,4.3359,4.311,4.314,4.323,4.329,4.329,4.329,4.329,4.329,4.329,4.3618,4.4227,4.4975,4.5723,4.6411,4.707,4.7309,4.7309,0.0,0.0,0.0,0.0,0.0,0.0,0.0,3.998,0.0,4.084,4.248,4.3496,4.3047,4.3633,4.3691,4.2812,4.2168,4.1621,4.1211,4.2062,4.2459,4.2256,4.294,0.0,3.9971,3.9428,3.7816,3.5223,0.0,0.0,0.0,3.1964,0.0,3.1838,0.0,3.2993,0.0,0.0,0.0,3.7211,3.7462,3.8266,3.9195,3.8642,3.8241,3.7939,3.7387,3.701,3.6757,3.6505,3.6405,3.6405,3.6405,3.6405,3.6455,3.6732,3.696,3.7236,3.7513,3.7588,3.7588,3.7613,3.7186,3.6807,3.6832,3.7495,3.8243,3.8872,3.9858,4.0456,3.9966,3.8272,0.0,0.0,0.0,0.0,0.0,0.0,0.0,0.0,0.0,0.0,0.0,0.0,0.0,0.0,0.0,0.0,0.0,0.0,0.0,0.0,0.0,0.0,0.0,0.0,0.0,4.3768,4.3439,4.329,4.329,4.329,4.329,4.329,4.329,4.329,4.329,4.329,4.3888,4.4855,4.5155,4.5933,4.686,4.7189,4.7309,4.7309,0.0,3.2187,0.0,0.0,3.6543,0.0,3.959,4.1641,4.2539,4.1055,4.1641,4.1953,4.1269,4.2539,4.3125,4.2363,4.1914,4.1523,4.1191,4.1094,4.1035,4.1035,4.1649,4.0938,3.8596,3.9221,3.8157,0.0,0.0,0.0,0.0,0.0,0.0,0.0,0.0,0.0,0.0,0.0,3.5554,3.7362,3.7487,3.814,3.8969,3.8266,3.8015,3.7914,3.7236,3.6782,3.6405,3.6405,3.6405,3.6405,3.6405,3.6405,3.6405,3.6405,3.6707,3.701,3.701,3.701,3.7111,3.7538,3.701,3.6531,3.691,3.739,3.7815,3.8062,3.9403,4.0456,3.9906,3.8841,0.0,0.0,0.0,0.0,0.0,0.0,0.0,0.0,0.0,0.0,0.0,0.0,0.0,0.0,0.0,0.0,0.0,0.0,0.0,0.0,0.0,0.0,4.1602,0.0,4.3888,0.0,4.3349,4.329,4.329,4.329,4.329,4.329,4.3439,4.3589,4.3708,4.3708,4.4436,4.5514,4.5514,4.6232,4.7309,4.7309,4.7309,4.7309,0.0,0.0,0.0,0.0,0.0,0.0,0.0,4.1426,4.3301,4.3906,4.3711,4.3496,4.3418,4.2891,4.2363,4.1894,4.1484,4.1211,4.1172,4.0801,4.0586,4.0586,4.1486,4.0606,3.7527,3.883,3.7725,0.0,0.0,0.0,0.0,0.0,0.0,0.0,0.0,0.0,0.0,3.5554,3.686,3.7965,3.8492,3.9069,3.9496,3.8417,3.8015,3.7864,3.6857,3.6455,3.6405,3.6405,3.6405,3.6405,3.6405,3.6405,3.6405,3.6405,3.6455,3.648,3.648,3.648,3.6505,3.6556,3.648,3.643,3.648,3.6524,3.6849,3.788,3.9403,4.0717,4.1135,4.0606,3.9529,0.0,0.0,0.0,0.0,0.0,0.0,0.0,0.0,0.0,0.0,0.0,0.0,0.0,0.0,0.0,0.0,0.0,0.0,0.0,0.0,4.0995,4.2291,4.303,0.0,4.4227,4.3589,4.329,4.329,4.329,4.329,4.3319,4.3958,4.4556,4.5095,4.5095,4.5544,4.619,4.619,4.6681,4.7309,4.7309,4.7309,4.7309,0.0,0.0,0.0,0.0,0.0,0.0,0.0,4.1641,4.2519,4.3125,4.3281,4.3125,4.2617,4.2246,4.1875,4.1465,4.1269,4.1172,4.1172,4.0762,4.0527,4.0527,4.0881,4.0402,3.8922,3.9955,3.9313,0.0,0.0,0.0,0.0,0.0,0.0,0.0,0.0,3.4274,3.4906,3.5956,3.701,3.8065,3.8642,3.9195,3.9572,3.8442,3.8015,3.7864,3.6807,3.6405,3.6405,3.6405,3.6405,3.6405,3.6405,3.6405,3.6405,3.6405,3.6405,3.6405,3.6405,3.6405,3.6405,3.6405,3.6405,3.6405,3.6405,3.6405,3.6546,3.6964,3.8728,4.0544,4.1802,4.1115,4.0127,0.0,0.0,0.0,0.0,0.0,0.0,0.0,0.0,0.0,0.0,0.0,0.0,0.0,0.0,0.0,0.0,0.0,0.0,3.7375,0.0,4.0427,4.1811,4.2821,4.3618,4.4317,4.4047,4.4137,4.4496,4.4067,4.3888,4.3958,4.4616,4.5035,4.5304,4.5304,4.5693,4.6279,4.6279,4.6741,4.7309,4.7309,4.7309,4.7309,3.7793,0.0,3.791,0.0,3.9785,4.0195,4.1426,4.1621,4.1719,4.2012,4.2324,4.2344,4.1855,4.1699,4.1504,4.1191,4.1172,4.1113,4.0996,4.0586,4.0273,4.0137,4.1069,0.0,3.9914,4.1251,4.1057,3.9125,3.823,0.0,0.0,0.0,0.0,0.0,3.455,3.5152,3.6009,3.6609,3.7487,3.8542,3.8944,3.9346,3.9597,3.8617,3.814,3.7889,3.6935,3.6556,3.6405,3.6405,3.6405,3.6405,3.6405,3.6405,3.6405,3.6405,3.6405,3.6405,3.6405,3.6405,3.6405,3.6405,3.6405,3.6405,3.6405,3.6662,3.7103,3.7815,3.8961,4.0463,4.2308,4.1893,4.1145,0.0,0.0,0.0,0.0,0.0,0.0,0.0,0.0,3.5729,3.5519,0.0,0.0,0.0,0.0,0.0,0.0,0.0,0.0,0.0,0.0,0.0,0.0,0.0,4.3618,4.4317,4.4317,4.4646,4.5274,4.4825,4.4706,4.4915,4.5394,4.5693,4.5873,4.5873,4.6172,4.6578,4.6578,4.689,4.7309,4.7309,4.7309,4.7309,3.8926,3.918,3.959,4.0918,4.1152,4.1152,4.1172,4.1172,4.1191,4.1191,4.1191,4.1348,4.1758,4.1426,4.1172,4.1172,4.1172,4.0996,4.0566,4.0137,3.9707,0.0,0.0,4.2757,4.0004,4.2532,4.2459,3.9614,0.0,0.0,3.6405,0.0,0.0,3.5508,3.6081,3.6681,3.7186,3.7739,3.8642,3.9672,3.9672,3.9697,3.9647,3.9069,3.8517,3.7939,3.7387,3.6883,3.6405,3.6405,3.6405,3.6405,3.6405,3.6405,3.6405,3.6405,3.6405,3.6405,3.6405,3.6405,3.6405,3.6405,3.6405,3.6405,3.6405,3.7289,3.8711,4.1056,4.0661,4.0575,4.286,4.326,4.2841,4.1564,0.0,0.0,0.0,0.0,0.0,0.0,3.6088,3.6207,3.5579,0.0,0.0,0.0,0.0,0.0,0.0,0.0,0.0,3.7375,3.9349,0.0,4.1422,4.2671,4.3618,4.4317,4.4317,4.4646,4.5304,4.5274,4.5663,4.6249,4.6279,4.6681,4.7279,4.7279,4.7279,4.7309,4.7309,4.7309,4.7309,4.7309,4.7309,4.7309,4.0469,4.0547,4.0684,4.1094,4.1172,4.1172,4.1172,4.1172,4.1172,4.1172,4.1172,4.123,4.1348,4.125,4.1172,0.0,4.1172,4.1113,0.0,4.0293,3.9824,3.9687,4.0903,4.1654,4.1635,4.2593,4.2844,4.2478,0.0,0.0,0.0,3.691,3.6659,3.6684,3.7236,3.7789,3.8366,3.8919,3.9371,3.9697,3.9697,3.9697,3.9597,3.8642,3.8165,3.7889,3.7008,3.6556,3.6405,3.6405,3.6656,3.6983,3.6983,3.6707,3.6405,3.6405,3.6405,3.6405,3.6405,3.6405,3.6405,3.6405,3.6405,3.6593,3.7356,3.8469,3.9754,4.1295,4.1295,4.1532,4.3021,4.297,4.2521,4.2141,0.0,0.0,0.0,0.0,0.0,0.0,0.0,3.5729,0.0,3.5519,0.0,0.0,0.0,0.0,0.0,0.0,0.0,0.0,4.0008,0.0,4.2081,4.3808,4.4766,4.4975,4.5454,4.5783,4.6022,4.6471,4.6531,4.6309,4.68,4.71,4.7309,4.7309,4.7309,4.7309,4.7309,4.7309,4.7309,4.7309,4.7309,4.7309,4.1172,4.1172,4.1172,4.1172,4.1172,4.1172,4.1172,4.1172,4.1172,4.1172,4.1172,4.1172,4.1172,4.1172,0.0,4.1172,4.1172,0.0,4.0937,4.0293,3.9824,3.9648,4.0351,4.1284,4.2371,0.0,0.0,4.4116,4.2203,4.0473,3.8944,3.8391,3.814,3.814,3.8492,3.8843,3.9195,3.9546,3.9697,3.9697,3.9697,3.9697,3.9622,3.8919,3.8366,3.7914,3.7236,3.6757,3.6405,3.6405,3.6782,3.7136,3.6935,3.6832,3.6732,3.6732,3.6581,3.6405,3.6405,3.6405,3.6405,3.6405,3.6405,3.69,3.869,3.9168,3.9853,4.2154,4.2051,4.1947,4.3061,4.3,4.2641,4.244,0.0,0.0,0.0,0.0,0.0,0.0,0.0,0.0,0.0,3.6178,0.0,0.0,0.0,0.0,0.0,0.0,0.0,3.8721,4.0726,0.0,4.309,4.4556,4.5424,4.5693,4.6381,4.6681,4.6711,4.713,4.707,4.6711,4.713,4.7309,4.7309,4.7309,4.7309,4.7309,4.7309,4.7309,4.7309,4.7309,4.7309,4.7309,4.1172,4.1172,0.0,0.0,4.1172,0.0,4.1172,4.1172,4.1172,4.1172,4.1172,4.1172,4.1172,4.1172,4.1172,4.1172,0.0,0.0,0.0,4.0137,3.9687,3.9219,4.0504,0.0,4.2371,4.3659,4.4339,4.4518,4.2329,4.1025,4.0551,3.9973,3.9697,3.9697,3.9697,3.9697,3.9697,3.9697,3.9697,3.9697,3.9697,3.9697,3.9697,3.9647,3.8994,3.8065,3.8015,3.7337,3.6531,3.6531,3.6883,3.7211,3.6707,3.6835,3.7236,3.7161,3.6807,3.6405,3.6455,3.6455,3.6455,3.6455,3.6502,3.7309,4.0195,3.9627,3.9605,4.3543,4.2966,4.2087,4.319,4.3319,4.312,4.244,4.1235,3.9918,3.8512,0.0,0.0,0.0,0.0,0.0,0.0,3.7375,3.7913,0.0,0.0,0.0,0.0,0.0,0.0,3.9529,4.1504,4.3189,4.4377,4.5095,4.5753,4.6411,4.701,4.7309,4.7309,4.7309,4.7309,4.7309,4.7309,4.7309,4.7309,4.7309,4.7309,4.7309,4.7309,4.7309,4.7309,4.7309,4.7309,4.7309,0.0,0.0,4.1172,4.1172,4.1172,4.1172,4.1172,4.1172,4.1172,4.1172,4.1172,4.1172,4.1172,4.1172,4.1172,4.1172,4.1172,4.0996,4.0547,4.0137,3.9687,3.9219,4.0126,4.122,4.2349,4.2875,4.3204,4.3363,4.2007,4.1225,4.1075,4.0149,3.9697,3.9697,3.9697,3.9697,3.9697,3.9697,3.9697,3.9697,3.9697,3.9697,3.9647,3.922,3.8894,3.8617,3.8165,3.7839,3.7613,3.7613,3.799,3.8366,3.7789,3.7713,3.7638,3.6857,3.6505,3.6505,3.6933,3.6985,3.6985,3.6985,3.765,3.8879,4.1005,4.1842,4.271,4.4674,4.4322,4.3723,4.3997,4.3648,4.2901,4.1841,4.0935,3.9738,3.7913,0.0,0.0,0.0,3.7524,3.8093,3.8452,3.8422,3.8482,0.0,0.0,0.0,0.0,0.0,4.1153,4.0935,4.3299,4.4766,4.5065,4.6232,4.692,4.707,4.7219,4.7309,4.7309,4.7309,4.7309,4.7309,4.7309,4.7309,4.7309,4.7309,4.7309,4.7309,4.7309,4.7309,4.7309,4.7309,4.7309,4.7309,4.1172,4.1172,4.1172,4.1172,4.1172,4.1172,4.1172,4.1172,4.1172,4.1172,4.1172,4.1172,4.1172,4.1172,4.1172,4.1172,4.1172,4.0996,4.0547,4.0137,3.9609,3.8945,3.9922,4.1006,4.2103,4.2759,4.3144,4.3363,4.2509,4.1831,4.1275,4.0727,4.0174,3.9697,3.9697,3.9697,3.9697,3.9697,3.9697,3.9697,3.9697,3.9697,3.9672,3.9371,3.9094,3.8869,3.8517,3.8241,3.8015,3.8015,3.8391,3.8768,3.8191,3.8191,3.8241,3.7362,3.6935,3.6908,3.7412,3.7563,3.7563,3.7563,3.7998,3.9107,4.1616,4.2401,4.3195,4.5327,4.5214,4.4676,4.4377,4.3778,4.2821,4.1205,4.0127,3.8901,3.7225,3.6985,0.0,3.7375,3.8542,3.9469,3.9828,4.0337,4.0546,4.0337,0.0,0.0,4.0756,4.2641,4.3269,4.2312,4.4556,4.5903,4.6202,4.695,4.7309,4.7309,4.7309,4.7309,4.7309,4.7309,4.7309,4.7309,4.7309,4.7309,4.7309,4.7309,4.7309,4.7309,4.7309,4.7309,4.7309,4.7309,4.7309,4.7309,4.1172,4.1172,4.1172,4.1172,4.1172,4.1172,4.1172,4.1172,4.1172,4.1172,4.1172,4.1172,4.1172,4.1113,4.1229,4.1519,4.146,4.1262,4.0811,4.0393,3.9761,3.8932,4.0038,4.1001,4.179,4.3051,4.3686,4.3689,4.3112,4.2384,4.1401,4.125,4.0701,3.9823,3.9747,3.9697,3.9697,3.9697,3.9697,3.9697,3.9697,3.9697,3.9697,3.9697,3.9396,3.9045,3.9045,3.8693,3.8266,3.8266,3.8592,3.8944,3.8316,3.8467,3.8768,3.8291,3.7814,3.7538,3.8015,3.814,3.8165,3.8241,3.8191,3.8883,4.1842,4.2251,4.2761,4.5563,4.5776,4.5274,4.4736,4.3958,4.2761,4.0846,3.9349,3.7943,3.6656,0.0,3.7045,3.7764,3.9619,4.0935,4.1115,4.2551,4.306,4.2043,4.291,0.0,0.0,4.4496,4.4945,4.3768,4.5502,4.6741,4.7309,4.7309,4.7309,4.7309,4.7309,4.7309,4.7309,4.7309,4.7309,4.7309,4.7309,4.7309,4.7309,4.7309,4.7309,4.7309,4.7309,4.7309,4.7309,4.7309,4.7309,4.7309,4.1172,4.1172,4.1172,4.1172,4.1172,4.1172,4.1172,4.1172,4.1172,4.1172,4.1172,4.1172,4.1172,4.084,4.1274,4.2857,4.258,4.2311,4.2249,4.1534,4.0829,4.0381,4.1142,4.1661,4.1767,4.3564,4.3978,4.3112,4.2615,4.2238,4.2062,4.1078,4.0551,4.0375,3.9898,3.9697,3.9697,3.9697,3.9697,3.9697,3.9697,3.9697,3.9697,3.9697,3.9647,3.9572,3.9572,3.9521,3.9446,3.9446,3.9496,3.9471,3.8919,3.8793,3.8894,3.8768,3.8668,3.8668,3.8718,3.8793,3.8843,3.932,3.9069,3.9296,4.1327,4.2521,4.3678,4.5245,4.5872,4.6142,4.598,4.4515,4.288,4.1444,3.9619,3.7943,0.0,0.0,3.8542,3.9798,4.1683,4.326,4.4436,4.4317,4.4317,4.4676,4.4347,4.4347,4.4825,4.5693,4.6082,4.5831,4.6711,4.7189,4.7309,4.7309,4.7309,4.7309,4.7309,4.7309,4.7309,4.7309,4.7309,4.7309,4.7309,4.7309,4.7309,4.7309,4.7309,4.7309,4.7309,4.7309,4.7309,4.7309,4.7309,4.7309,4.1172,4.1172,4.1172,4.1172,4.1172,4.1172,4.1172,4.1172,4.1172,4.1172,4.1172,4.1172,4.1172,4.0996,4.1509,4.3127,4.3769,4.4464,4.5191,4.3903,4.2317,4.0477,4.1548,4.2111,4.193,4.3706,4.4091,4.2986,4.2766,4.2489,4.2213,4.163,4.1078,4.0501,4.0249,4.0149,4.0124,3.9823,3.9873,4.0124,3.9823,3.9697,3.9697,3.9697,3.9697,3.9697,3.9697,3.9697,3.9697,3.9697,3.9697,3.9647,3.9396,3.932,3.932,3.932,3.932,3.932,3.932,3.932,3.9371,3.9622,3.9496,3.9905,4.2101,4.3074,4.4069,4.6032,4.662,4.6741,4.6381,4.4934,4.3539,4.2581,4.0157,0.0,0.0,3.8811,3.9559,4.1265,4.318,4.4766,4.5753,4.5574,4.5514,4.5843,4.5214,4.5125,4.5813,4.6142,4.6501,4.683,4.716,4.7309,4.7309,4.7309,4.7309,4.7309,4.7309,4.7309,4.7309,4.7309,4.7309,4.7309,4.7309,4.7309,4.7309,4.7309,4.7309,4.7309,4.7309,4.7309,4.7309,4.7309,4.7309,4.7309,4.1172,4.1172,4.1172,4.1172,4.1172,4.1172,4.1172,4.1618,4.1676,4.125,4.1618,4.1695,4.125,4.1074,4.1799,4.3648,4.4683,4.6032,4.7849,4.6604,4.446,4.1431,4.2281,4.2887,4.288,4.4002,4.4141,4.3162,4.3037,4.276,4.2389,4.2263,4.1706,4.0877,4.0626,4.0526,4.0475,3.9923,3.9948,4.03,3.9873,3.9697,3.9697,3.9697,3.9697,3.9697,3.9697,3.9697,3.9697,3.9697,3.9697,3.9697,3.9697,3.9697,3.9697,3.9697,3.9697,3.9697,3.9697,3.9697,3.98,4.0083,4.0134,4.0743,4.2978,4.374,4.4489,4.6462,4.7062,4.716,4.6651,4.5454,4.4317,4.3618,0.0,0.0,0.0,4.0337,4.0786,4.265,4.4407,4.5813,4.6501,4.6518,4.6518,4.6518,4.6052,4.5992,4.6531,4.6518,4.677,4.7279,4.7309,4.7309,4.7309,4.7309,4.7309,4.7309,4.7309,4.7309,4.7309,4.7309,4.7309,4.7309,4.7309,4.7309,4.7309,4.7309,4.7309,4.7309,4.7309,4.7309,4.7309,4.7309,4.7309,4.7309,4.1172,4.1172,4.1172,4.1172,4.1172,4.1172,4.1172,4.2713,4.3207,4.1463,4.279,4.3228,4.1405,4.082,4.1846,4.4948,4.4958,4.6057,4.9212,4.9317,4.797,4.5107,4.4097,4.412,4.5244,4.4836,4.4342,4.374,4.3212,4.2961,4.2911,4.2439,4.2162,4.2037,4.0978,4.0526,4.0475,3.9923,3.9722,3.9747,3.9722,3.9697,3.9697,3.9697,3.9697,3.9697,3.9697,3.9697,3.9697,3.9697,3.9697,3.9697,3.9697,3.9697,3.9697,3.9697,3.9697,3.9697,3.9697,3.9697,3.9981,4.1169,4.1468,4.1838,4.317,4.4396,4.5298,4.5508,4.6506,4.7279,4.7249,4.6142,4.5005,4.4347,0.0,0.0,4.1294,4.1841,4.268,4.4018,4.5394,4.6501,4.716,4.7249,4.7249,4.7249,4.7189,4.7189,4.7219,4.7249,4.7249,4.7309,4.7309,4.7309,4.7309,4.7309,4.7309,4.7309,4.7309,4.7309,4.7309,4.7309,4.7309,4.7309,4.7309,4.7309,4.7309,4.7309,4.7309,4.7309,4.7309,4.7309,4.7309,4.7309,4.7309,4.7309,4.1172,4.1172,4.1172,4.1172,4.1172,4.1172,4.1172,4.183,4.2062,4.1327,4.183,4.2062,4.125,4.1035,4.2165,4.5141,4.5252,4.6427,4.9382,4.959,4.8333,4.5517,4.4341,4.374,4.3905,4.4367,4.4342,4.379,4.3237,4.2986,4.2961,4.276,4.2308,4.1656,4.158,4.1153,4.0501,4.03,4.0199,4.0174,3.9823,3.9697,3.9697,3.9697,3.9697,3.9697,3.9697,3.9697,3.9697,3.9697,3.9697,3.9697,3.9697,3.9697,3.9697,3.9697,3.9697,3.9697,3.9697,3.9697,4.0032,4.1269,4.1591,4.2133,4.421,4.507,4.5644,4.6388,4.6975,4.7309,4.7309,4.6561,4.5992,4.6142,0.0,4.303,4.4257,4.3928,4.4077,4.5394,4.6381,4.704,4.7279,4.7309,4.7309,4.7309,4.7309,4.7309,4.7309,4.7309,4.7309,4.7309,4.7309,4.7309,4.7309,4.7309,4.7309,4.7309,4.7309,4.7309,4.7309,4.7309,4.7309,4.7309,4.7309,4.7309,4.7309,4.7309,4.7309,4.7309,4.7309,4.7309,4.7309,4.7309,4.7309,4.7309,4.1172,4.1172,4.1172,4.1172,4.1172,4.1172,4.1172,4.1676,4.1907,4.125,4.1773,4.1907,4.125,4.1753,4.3009,4.5234,4.5997,4.7256,4.9471,4.9264,4.8178,4.6284,4.5116,4.4328,4.3965,4.4383,4.4443,4.4066,4.3338,4.2986,4.2986,4.2986,4.2484,4.1605,4.2037,4.163,4.0777,4.0777,4.0777,4.0674,4.0174,3.9948,3.9923,3.9747,3.9697,3.9697,3.9697,3.9798,3.9923,3.9747,3.9798,3.9923,3.9747,3.9697,3.9697,3.9697,3.9697,3.9697,3.9697,3.9697,4.0083,4.1789,4.223,4.2882,4.5389,4.6003,4.6255,4.7106,4.7309,4.7309,4.7309,4.692,4.6711,4.695,4.5412,4.4725,4.61,4.5502,4.5364,4.6501,4.704,4.7309,4.7309,4.7309,4.7309,4.7309,4.7309,4.7399,4.7608,4.7608,4.7608,4.7608,4.7429,4.7309,4.7309,4.7309,4.7309,4.7309,4.7309,4.7309,4.7309,4.7309,4.7309,4.7309,4.7309,4.7309,4.7309,4.7309,4.7309,4.7309,4.7309,4.7309,4.7309,4.7309,4.7309,4.7309,4.1172,4.1172,4.1172,4.1172,4.1172,4.1172,4.1172,4.2846,4.3359,4.1463,4.2922,4.3359,4.1463,4.2922,4.4443,4.5377,4.7191,4.8643,4.9536,4.8535,4.7908,4.7908,4.6878,4.6301,4.6301,4.5196,4.4618,4.4618,4.3514,4.2986,4.2986,4.2986,4.274,4.2213,4.2213,4.1856,4.1275,4.13,4.1275,4.1225,4.0752,4.0526,4.045,3.9898,3.9697,3.9697,3.9697,4.0049,4.0425,3.9873,4.0049,4.0425,3.9873,3.9697,3.9697,3.9697,3.9697,3.9697,3.9697,3.9697,4.0313,4.2834,4.3504,4.4163,4.6682,4.7309,4.7309,4.7309,4.7309,4.7309,4.7309,4.7309,4.71,4.6441,4.6279,4.6279,4.6279,4.6279,4.6561,4.7219,4.7309,4.7309,4.7309,4.7309,4.7309,4.7309,4.7309,4.7608,4.8237,4.8297,4.8297,4.8267,4.7638,4.7309,4.7309,4.7309,4.7309,4.7309,4.7309,4.7309,4.7309,4.7309,4.7309,4.7309,4.7309,4.7309,4.7309,4.7309,4.7309,4.7309,4.7309,4.7309,4.7309,4.7309,4.7309,4.7309,4.1172,4.1172,4.1172,4.1172,4.1172,4.1172,4.1172,4.1676,4.183,4.125,4.2922,4.3869,4.3283,4.4977,4.648,4.733,4.7954,4.8643,4.9536,4.8912,4.8335,4.7933,4.6878,4.6301,4.6301,4.5598,4.502,4.4618,4.3915,4.3363,4.2986,4.2986,4.274,4.2238,4.2615,4.2208,4.13,4.1756,4.1681,4.1225,4.0752,4.0526,4.045,3.9898,3.9697,3.9697,3.9697,3.9798,3.9923,3.9747,3.9798,3.9898,3.9747,3.9697,3.9697,3.9697,3.9697,3.9772,4.0174,3.9998,4.0083,4.1739,4.2181,4.2834,4.5389,4.5958,4.6328,4.7702,4.7638,4.7459,4.7908,4.7608,4.7249,4.704,4.701,4.701,4.701,4.701,4.71,4.7279,4.7309,4.7309,4.7309,4.7728,4.7997,4.7997,4.8416,4.8566,4.8297,4.8297,4.8087,4.7608,4.7399,4.7309,4.7309,4.7309,4.7309,4.7309,4.7309,4.7309,4.7309,4.7309,4.7309,4.7309,4.7309,4.7309,4.7309,4.7309,4.7309,4.7309,4.7309,4.7309,4.7309,4.7309,4.7309,4.7409,4.1172,4.1172,4.1172,4.1172,4.1172,4.1172,4.1172,4.1172,4.1172,4.1172,4.2922,4.4096,4.4096,4.6514,4.8233,4.8256,4.8647,4.9033,4.9576,4.9088,4.8611,4.8259,4.7205,4.6527,4.6326,4.5773,4.5321,4.497,4.4192,4.3639,4.3288,4.3087,4.274,4.2238,4.2791,4.2484,4.1706,4.2258,4.2283,4.1907,4.1153,4.0852,4.0752,3.9998,3.9823,4.0023,4.0023,4.03,4.0601,4.0174,3.9873,3.9747,3.9948,3.9873,3.9747,3.9948,3.9873,3.9823,4.0375,4.0275,4.0256,4.1261,4.2119,4.3285,4.5349,4.6405,4.727,4.8432,4.8356,4.8207,4.8596,4.8356,4.8087,4.8087,4.8087,4.7997,4.7728,4.7698,4.7608,4.7339,4.7549,4.7698,4.7698,4.8297,4.8686,4.8686,4.9284,4.9464,4.9075,4.9045,4.8865,4.8476,4.8207,4.8087,4.8087,4.8087,4.7818,4.7309,4.7309,4.7309,4.7309,4.7309,4.7309,4.7309,4.7309,4.7309,4.7309,4.7309,4.7309,4.7309,4.7309,4.7309,4.7309,4.7309,4.7538,4.7988,4.1172,4.1172,4.1172,4.1172,4.1172,4.1172,4.1172,4.1172,4.125,4.1463,4.3151,4.4452,4.4602,4.7954,4.979,4.8741,4.9256,4.964,4.959,4.9113,4.8812,4.8761,4.7807,4.7004,4.6401,4.5849,4.5547,4.5497,4.4468,4.389,4.379,4.3288,4.2816,4.2313,4.276,4.2766,4.2313,4.276,4.2986,4.2886,4.1831,4.1326,4.1175,4.0224,4.0124,4.0526,4.0576,4.1229,4.1986,4.0927,4.0249,3.9923,4.0375,4.0174,3.9873,4.0375,4.0149,3.9898,4.0501,4.0626,4.0727,4.1361,4.3092,4.494,4.6052,4.775,4.9194,4.9344,4.9359,4.9329,4.9389,4.9359,4.9299,4.9299,4.9299,4.912,4.8446,4.8386,4.8147,4.7549,4.7997,4.8386,4.8386,4.9,4.9419,4.9479,5.0002,5.0255,5.0196,5.0196,5.0166,5.0106,4.9583,4.9299,4.9299,4.9299,4.8626,4.7399,4.7399,4.7369,4.7309,4.7309,4.7309,4.7309,4.7309,4.7309,4.7309,4.7309,4.7309,4.7309,4.7309,4.7309,4.7309,4.7309,4.7946,4.8841,4.1172,4.1172,4.1172,4.1172,4.1172,4.1172,4.1172,4.1172,4.1753,4.3283,4.5127,4.6955,4.8578,5.0495,5.1538,5.129,5.0605,5.0067,4.9615,4.949,4.9213,4.8786,4.8535,4.7958,4.6979,4.6426,4.5924,4.5497,4.5246,4.4669,4.379,4.3689,4.3338,4.2811,4.2936,4.2911,4.2811,4.2936,4.2986,4.2911,4.2258,4.1731,4.125,4.1025,4.0724,4.0576,4.1003,4.1304,4.148,4.12,4.1025,4.0874,4.0626,4.0425,4.035,4.0475,4.0425,4.0551,4.153,4.148,4.1547,4.315,4.4741,4.5835,4.5609,4.6747,4.8214,4.9729,4.9613,4.9404,4.9942,4.9613,4.9299,4.9299,4.9299,4.9269,4.912,4.909,4.906,4.8865,4.9,4.909,4.909,4.9643,5.0242,5.075,5.093,5.0734,5.0226,5.0196,5.0002,4.9494,4.9389,4.9299,4.9299,4.9299,4.891,4.8087,4.8087,4.7818,4.7309,4.7309,4.7309,4.7309,4.7309,4.7309,4.7309,4.7309,4.7309,4.7309,4.7309,4.7309,4.7309,4.7309,4.7946,4.9013,4.1172,4.1172,4.1172,4.1172,4.1172,4.1172,4.1172,4.1985,4.2922,4.3945,4.6662,4.8794,4.989,5.1255,5.1875,5.1348,5.0519,4.9891,4.9615,4.959,4.9464,4.9163,4.8912,4.8385,4.7531,4.723,4.6677,4.5874,4.5623,4.5171,4.4593,4.4041,4.3639,4.3363,4.3087,4.2986,4.2986,4.2986,4.2986,4.2936,4.2439,4.1831,4.1275,4.1275,4.11,4.0978,4.153,4.1731,4.1731,4.1731,4.1555,4.1225,4.0949,4.0849,4.0849,4.0849,4.0849,4.1103,4.1986,4.1957,4.1994,4.3342,4.5153,4.6661,4.6722,4.8,4.9498,5.0491,5.0451,5.0301,5.0631,5.0421,5.0212,5.0212,5.0212,5.0092,4.9763,4.9733,4.9613,4.9329,4.9523,4.9853,5.0182,5.0511,5.0794,5.1199,5.1229,5.1079,5.0674,5.0674,5.0541,5.0212,5.0212,5.0212,5.0212,5.0212,4.9853,4.9224,4.8895,4.8566,4.8237,4.8237,4.8057,4.7788,4.7788,4.7608,4.7309,4.7309,4.7309,4.7309,4.7309,4.7309,4.7309,4.7309,4.8282,4.9852,4.1172,4.1172,4.1172,4.1172,4.1463,4.1618,4.125,4.3151,4.4602,4.4602,4.7759,5.0127,5.0481,5.1487,5.1599,5.0393,4.9941,4.969,4.9615,4.959,4.959,4.959,4.9163,4.8636,4.8083,4.8058,4.7481,4.6301,4.5949,4.5623,4.5321,4.4392,4.384,4.3639,4.3187,4.2986,4.2986,4.2986,4.2986,4.2936,4.2539,4.1957,4.1426,4.158,4.1501,4.1555,4.2108,4.2363,4.2363,4.2363,4.1982,4.1551,4.1451,4.148,4.148,4.148,4.148,4.1605,4.2213,4.2363,4.2519,4.3169,4.5262,4.7341,4.8256,4.9857,5.1229,5.1229,5.1229,5.1229,5.1229,5.1229,5.1229,5.1229,5.1229,5.102,5.0435,5.0375,5.0212,4.9673,5.0092,5.0584,5.1169,5.1229,5.1229,5.1229,5.1229,5.1229,5.1229,5.1229,5.1229,5.1229,5.1229,5.1229,5.1229,5.1229,5.0913,5.0345,4.9853,4.9539,4.9299,4.9209,4.891,4.8446,4.8207,4.7878,4.7459,4.7369,4.7309,4.7309,4.7309,4.7309,4.7352,4.7679,4.8922,5.0703,4.1172,4.1172,4.1172,4.1172,4.256,4.3151,4.1463,4.4247,4.6588,4.6588,4.8578,5.0646,5.2327,5.2291,5.1448,4.9841,5.0067,5.0092,4.9615,4.959,4.959,4.959,4.9515,4.9213,4.8661,4.8661,4.7883,4.6301,4.6702,4.6175,4.4744,4.4593,4.4016,4.3087,4.3011,4.2986,4.2986,4.2986,4.2986,4.2961,4.2886,4.259,4.2162,4.2559,4.2459,4.2162,4.2715,4.2861,4.2861,4.2861,4.2811,4.266,4.2238,4.2112,4.2112,4.2112,4.2112,4.2213,4.271,4.2861,4.3194,4.4401,4.5925,4.7453,4.88,5.018,5.1229,5.1229,5.1229,5.1229,5.1229,5.1229,5.1229,5.1229,5.1229,5.1199,5.1109,5.1079,5.105,5.096,5.102,5.1109,5.1199,5.1229,5.1229,5.1229,5.1229,5.1229,5.1229,5.1229,5.1229,5.1229,5.1229,5.1229,5.1229,5.1229,5.1169,5.1079,5.099,5.0361,4.9299,4.8686,4.8686,4.912,4.7938,4.7698,4.8117,4.7549,4.7309,4.7309,4.7309,4.7309,4.7538,4.9327,5.0165,5.0703,4.1172,4.2042,4.2866,4.2866,4.4473,4.5425,4.4548,4.6809,4.865,4.865,5.041,5.1956,5.2792,5.2427,5.1548,5.0167,5.0268,5.0193,4.964,4.959,4.959,4.959,4.959,4.9188,4.8309,4.8611,4.7958,4.6301,4.6853,4.6426,4.5095,4.4769,4.4192,4.3413,4.3112,4.2986,4.2986,4.2986,4.2986,4.2986,4.2986,4.2715,4.2263,4.2816,4.269,4.2288,4.2841,4.2986,4.2986,4.2986,4.2986,4.2942,4.2389,4.2414,4.2615,4.2313,4.2439,4.2715,4.2911,4.2986,4.3129,4.3768,4.5502,4.7248,4.7859,4.9679,5.1229,5.1229,5.1229,5.1229,5.1229,5.1229,5.1229,5.1229,5.1229,5.1229,5.1229,5.1229,5.1229,5.1229,5.1229,5.1229,5.1229,5.1229,5.1229,5.1229,5.1229,5.1229,5.1229,5.1229,5.1229,5.1229,5.1229,5.1229,5.1229,5.1229,5.1229,5.1229,5.1229,5.093,5.0331,5.0062,4.9883,4.9793,4.9194,4.8686,4.8267,4.7967,4.7638,4.7309,4.7309,4.7309,4.7512,4.9398,5.024,5.0653]}]]